<?xml version='1.0' encoding='UTF-8'?><gpx version="1.1" creator="JPX - https://github.com/jenetics/jpx" xmlns="http://www.topografix.com/GPX/1/1"><trk><trkseg><trkpt lat="45.79398390870647" lon="11.435126563871275"><ele>652.0</ele><time>2026-04-19T09:03:06.999Z</time></trkpt><trkpt lat="45.79396885532031" lon="11.43501365691844"><ele>652.0</ele><time>2026-04-19T09:03:09.999Z</time></trkpt><trkpt lat="45.793954593910975" lon="11.434902523127736"><ele>652.0</ele><time>2026-04-19T09:03:23.999Z</time></trkpt><trkpt lat="45.79397412012694" lon="11.434808234381595"><ele>652.0</ele><time>2026-04-19T09:03:24.999Z</time></trkpt><trkpt lat="45.79401125468375" lon="11.434684285498834"><ele>652.0</ele><time>2026-04-19T09:03:25.999Z</time></trkpt><trkpt lat="45.79407613622559" lon="11.434553334662919"><ele>652.0</ele><time>2026-04-19T09:03:26.999Z</time></trkpt><trkpt lat="45.794184393058266" lon="11.434367495001768"><ele>650.5</ele><time>2026-04-19T09:03:27.999Z</time></trkpt><trkpt lat="45.79426936854553" lon="11.434242514821715"><ele>649.0</ele><time>2026-04-19T09:03:28.999Z</time></trkpt><trkpt lat="45.794363761014324" lon="11.434126998711147"><ele>647.5</ele><time>2026-04-19T09:03:29.999Z</time></trkpt><trkpt lat="45.79444630040744" lon="11.434006397214057"><ele>646.0</ele><time>2026-04-19T09:03:30.999Z</time></trkpt><trkpt lat="45.794534413379644" lon="11.433924337809907"><ele>650.0</ele><time>2026-04-19T09:03:31.999Z</time></trkpt><trkpt lat="45.79459494014089" lon="11.433795632429108"><ele>654.0</ele><time>2026-04-19T09:03:32.999Z</time></trkpt><trkpt lat="45.794666595224626" lon="11.43368627558041"><ele>658.0</ele><time>2026-04-19T09:03:33.999Z</time></trkpt><trkpt lat="45.794753382647436" lon="11.433549392618085"><ele>662.0</ele><time>2026-04-19T09:03:34.999Z</time></trkpt><trkpt lat="45.79484710130849" lon="11.433425948165521"><ele>662.0</ele><time>2026-04-19T09:03:35.999Z</time></trkpt><trkpt lat="45.79492242688271" lon="11.433315955636782"><ele>662.0</ele><time>2026-04-19T09:03:36.999Z</time></trkpt><trkpt lat="45.79499498221998" lon="11.433214692432767"><ele>662.0</ele><time>2026-04-19T09:03:37.999Z</time></trkpt><trkpt lat="45.795070999023615" lon="11.433116786807673"><ele>662.0</ele><time>2026-04-19T09:03:38.999Z</time></trkpt><trkpt lat="45.795141116350784" lon="11.433010485117519"><ele>662.0</ele><time>2026-04-19T09:03:39.999Z</time></trkpt><trkpt lat="45.795208821893645" lon="11.432890978246956"><ele>666.6</ele><time>2026-04-19T09:03:40.999Z</time></trkpt><trkpt lat="45.79527902644009" lon="11.432773317482578"><ele>671.2</ele><time>2026-04-19T09:03:41.999Z</time></trkpt><trkpt lat="45.79534189443401" lon="11.432642730920456"><ele>675.8</ele><time>2026-04-19T09:03:42.999Z</time></trkpt><trkpt lat="45.795403577545144" lon="11.432506808194368"><ele>680.4</ele><time>2026-04-19T09:03:43.999Z</time></trkpt><trkpt lat="45.79546450303199" lon="11.432369664688014"><ele>685.0</ele><time>2026-04-19T09:03:44.999Z</time></trkpt><trkpt lat="45.79551608435893" lon="11.432204576879766"><ele>683.0</ele><time>2026-04-19T09:03:45.999Z</time></trkpt><trkpt lat="45.79556837819347" lon="11.432039700509772"><ele>681.0</ele><time>2026-04-19T09:03:46.999Z</time></trkpt><trkpt lat="45.7955924686918" lon="11.43186161996906"><ele>679.0</ele><time>2026-04-19T09:03:47.999Z</time></trkpt><trkpt lat="45.795634256362575" lon="11.431687121120381"><ele>677.0</ele><time>2026-04-19T09:03:48.999Z</time></trkpt><trkpt lat="45.79565966132098" lon="11.431508892380815"><ele>677.0</ele><time>2026-04-19T09:03:49.999Z</time></trkpt><trkpt lat="45.79568209449399" lon="11.431313623195496"><ele>677.0</ele><time>2026-04-19T09:03:50.999Z</time></trkpt><trkpt lat="45.79573498658422" lon="11.431133730428723"><ele>677.0</ele><time>2026-04-19T09:03:51.999Z</time></trkpt><trkpt lat="45.79580801635156" lon="11.430954508656068"><ele>677.0</ele><time>2026-04-19T09:03:52.999Z</time></trkpt><trkpt lat="45.79587376244105" lon="11.430789192365548"><ele>675.0</ele><time>2026-04-19T09:03:53.999Z</time></trkpt><trkpt lat="45.79596051336098" lon="11.430608882818234"><ele>673.0</ele><time>2026-04-19T09:03:54.999Z</time></trkpt><trkpt lat="45.796055179640376" lon="11.43043655354187"><ele>671.0</ele><time>2026-04-19T09:03:55.999Z</time></trkpt><trkpt lat="45.79614999928089" lon="11.43026185778578"><ele>680.3333333333333</ele><time>2026-04-19T09:03:56.999Z</time></trkpt><trkpt lat="45.79623202932033" lon="11.430090304160275"><ele>689.6666666666666</ele><time>2026-04-19T09:03:57.999Z</time></trkpt><trkpt lat="45.796300954071604" lon="11.429892713155443"><ele>699.0</ele><time>2026-04-19T09:03:58.999Z</time></trkpt><trkpt lat="45.796354687100205" lon="11.429681279565541"><ele>696.3333333333334</ele><time>2026-04-19T09:03:59.999Z</time></trkpt><trkpt lat="45.79639029105697" lon="11.4294664258222"><ele>693.6666666666667</ele><time>2026-04-19T09:04:00.999Z</time></trkpt><trkpt lat="45.79644600282126" lon="11.429264009020333"><ele>691.0</ele><time>2026-04-19T09:04:01.999Z</time></trkpt><trkpt lat="45.79651340841464" lon="11.429067392120526"><ele>691.0</ele><time>2026-04-19T09:04:02.999Z</time></trkpt><trkpt lat="45.796587829244885" lon="11.428864871264027"><ele>691.0</ele><time>2026-04-19T09:04:03.999Z</time></trkpt><trkpt lat="45.79666351530073" lon="11.428671898615908"><ele>691.0</ele><time>2026-04-19T09:04:04.999Z</time></trkpt><trkpt lat="45.796730945889244" lon="11.428479743952247"><ele>692.0</ele><time>2026-04-19T09:04:05.999Z</time></trkpt><trkpt lat="45.79680853925897" lon="11.42830977851301"><ele>693.0</ele><time>2026-04-19T09:04:06.999Z</time></trkpt><trkpt lat="45.796863298633205" lon="11.42815322100588"><ele>694.0</ele><time>2026-04-19T09:04:07.999Z</time></trkpt><trkpt lat="45.796927476934854" lon="11.42803024881705"><ele>695.0</ele><time>2026-04-19T09:04:08.999Z</time></trkpt><trkpt lat="45.79697123788566" lon="11.427929531710728"><ele>695.0</ele><time>2026-04-19T09:04:09.999Z</time></trkpt><trkpt lat="45.79702921927649" lon="11.427833944209166"><ele>695.0</ele><time>2026-04-19T09:04:10.999Z</time></trkpt><trkpt lat="45.797104750337816" lon="11.427871786229659"><ele>695.0</ele><time>2026-04-19T09:04:11.999Z</time></trkpt><trkpt lat="45.79717032326783" lon="11.427926972437172"><ele>695.0</ele><time>2026-04-19T09:04:12.999Z</time></trkpt><trkpt lat="45.79717635447788" lon="11.42807900754619"><ele>695.0</ele><time>2026-04-19T09:04:13.999Z</time></trkpt><trkpt lat="45.79713207856716" lon="11.428196796740933"><ele>695.0</ele><time>2026-04-19T09:04:14.999Z</time></trkpt><trkpt lat="45.79703170425674" lon="11.4282672146483"><ele>693.6666666666666</ele><time>2026-04-19T09:04:15.999Z</time></trkpt><trkpt lat="45.79690361644819" lon="11.428433891739962"><ele>692.3333333333334</ele><time>2026-04-19T09:04:16.999Z</time></trkpt><trkpt lat="45.7968040157184" lon="11.428658628877299"><ele>691.0</ele><time>2026-04-19T09:04:17.999Z</time></trkpt><trkpt lat="45.79672722531582" lon="11.428996263289996"><ele>691.0</ele><time>2026-04-19T09:04:18.999Z</time></trkpt><trkpt lat="45.796674443152185" lon="11.429331252529714"><ele>691.0</ele><time>2026-04-19T09:04:19.999Z</time></trkpt><trkpt lat="45.796644057560485" lon="11.42955953676655"><ele>691.0</ele><time>2026-04-19T09:04:20.999Z</time></trkpt><trkpt lat="45.796626675061496" lon="11.429770671613058"><ele>692.5999999999999</ele><time>2026-04-19T09:04:21.999Z</time></trkpt><trkpt lat="45.79662941206387" lon="11.429953538836243"><ele>694.2</ele><time>2026-04-19T09:04:22.999Z</time></trkpt><trkpt lat="45.79662053832405" lon="11.430116796331513"><ele>695.8</ele><time>2026-04-19T09:04:23.999Z</time></trkpt><trkpt lat="45.79659758466595" lon="11.430243197460383"><ele>697.4000000000001</ele><time>2026-04-19T09:04:24.999Z</time></trkpt><trkpt lat="45.79657235340452" lon="11.430376792058155"><ele>699.0</ele><time>2026-04-19T09:04:25.999Z</time></trkpt><trkpt lat="45.79651391331232" lon="11.430512496363196"><ele>701.25</ele><time>2026-04-19T09:04:26.999Z</time></trkpt><trkpt lat="45.79645055624439" lon="11.430658635370518"><ele>703.5</ele><time>2026-04-19T09:04:27.999Z</time></trkpt><trkpt lat="45.79640218609057" lon="11.430825388942818"><ele>705.75</ele><time>2026-04-19T09:04:28.999Z</time></trkpt><trkpt lat="45.796357779583396" lon="11.430983640233812"><ele>708.0</ele><time>2026-04-19T09:04:29.999Z</time></trkpt><trkpt lat="45.79630978701702" lon="11.431158434051634"><ele>711.0</ele><time>2026-04-19T09:04:30.999Z</time></trkpt><trkpt lat="45.79626038095198" lon="11.431320042861516"><ele>714.0</ele><time>2026-04-19T09:04:31.999Z</time></trkpt><trkpt lat="45.7962375741581" lon="11.431495473565777"><ele>717.0</ele><time>2026-04-19T09:04:32.999Z</time></trkpt><trkpt lat="45.79622099286468" lon="11.431668023612298"><ele>720.0</ele><time>2026-04-19T09:04:33.999Z</time></trkpt><trkpt lat="45.79621535492391" lon="11.431845879944843"><ele>720.0</ele><time>2026-04-19T09:04:34.999Z</time></trkpt><trkpt lat="45.79623172630702" lon="11.432028045870334"><ele>720.0</ele><time>2026-04-19T09:04:35.999Z</time></trkpt><trkpt lat="45.7962416033536" lon="11.432204787624917"><ele>720.0</ele><time>2026-04-19T09:04:36.999Z</time></trkpt><trkpt lat="45.79625954453196" lon="11.432372871665791"><ele>720.0</ele><time>2026-04-19T09:04:37.999Z</time></trkpt><trkpt lat="45.79627238549611" lon="11.432544675700358"><ele>721.5</ele><time>2026-04-19T09:04:38.999Z</time></trkpt><trkpt lat="45.79627934511489" lon="11.432723052276932"><ele>723.0</ele><time>2026-04-19T09:04:39.999Z</time></trkpt><trkpt lat="45.79626945163428" lon="11.432903411969194"><ele>724.5</ele><time>2026-04-19T09:04:40.999Z</time></trkpt><trkpt lat="45.796233353516826" lon="11.4330807099871"><ele>726.0</ele><time>2026-04-19T09:04:41.999Z</time></trkpt><trkpt lat="45.79618341583515" lon="11.433267721638451"><ele>729.6666666666666</ele><time>2026-04-19T09:04:42.999Z</time></trkpt><trkpt lat="45.79613193158726" lon="11.43347315759621"><ele>733.3333333333333</ele><time>2026-04-19T09:04:43.999Z</time></trkpt><trkpt lat="45.796083449359244" lon="11.433685594543418"><ele>737.0</ele><time>2026-04-19T09:04:44.999Z</time></trkpt><trkpt lat="45.796041616529756" lon="11.43390403956584"><ele>731.0</ele><time>2026-04-19T09:04:45.999Z</time></trkpt><trkpt lat="45.795988390518005" lon="11.434141449400132"><ele>725.0</ele><time>2026-04-19T09:04:46.999Z</time></trkpt><trkpt lat="45.795930743421806" lon="11.434391808014484"><ele>719.0</ele><time>2026-04-19T09:04:47.999Z</time></trkpt><trkpt lat="45.79588195543255" lon="11.434653170562118"><ele>719.0</ele><time>2026-04-19T09:04:48.999Z</time></trkpt><trkpt lat="45.79583705644817" lon="11.434898620154756"><ele>719.0</ele><time>2026-04-19T09:04:49.999Z</time></trkpt><trkpt lat="45.79579050859024" lon="11.435125083773084"><ele>719.0</ele><time>2026-04-19T09:04:50.999Z</time></trkpt><trkpt lat="45.79574298296405" lon="11.435328771249281"><ele>721.5</ele><time>2026-04-19T09:04:51.999Z</time></trkpt><trkpt lat="45.79569067602911" lon="11.435497630497931"><ele>724.0</ele><time>2026-04-19T09:04:52.999Z</time></trkpt><trkpt lat="45.7956079879997" lon="11.435623950766313"><ele>726.5</ele><time>2026-04-19T09:04:53.999Z</time></trkpt><trkpt lat="45.79551936048324" lon="11.435745479742804"><ele>729.0</ele><time>2026-04-19T09:04:54.999Z</time></trkpt><trkpt lat="45.79542772020715" lon="11.435836441984682"><ele>729.0</ele><time>2026-04-19T09:04:55.999Z</time></trkpt><trkpt lat="45.79535687380247" lon="11.435928097126496"><ele>729.0</ele><time>2026-04-19T09:04:56.999Z</time></trkpt><trkpt lat="45.79531455851265" lon="11.436032534337091"><ele>729.0</ele><time>2026-04-19T09:04:57.999Z</time></trkpt><trkpt lat="45.795291263025945" lon="11.436143674799085"><ele>729.0</ele><time>2026-04-19T09:04:58.999Z</time></trkpt><trkpt lat="45.79534154658192" lon="11.436237860343265"><ele>729.0</ele><time>2026-04-19T09:04:59.999Z</time></trkpt><trkpt lat="45.79540073041194" lon="11.436295417435739"><ele>729.0</ele><time>2026-04-19T09:05:00.999Z</time></trkpt><trkpt lat="45.79551751557514" lon="11.436323094581727"><ele>729.0</ele><time>2026-04-19T09:05:01.999Z</time></trkpt><trkpt lat="45.795605412916885" lon="11.436295524714673"><ele>729.0</ele><time>2026-04-19T09:05:02.999Z</time></trkpt><trkpt lat="45.79566577386303" lon="11.436189954421636"><ele>729.0</ele><time>2026-04-19T09:05:03.999Z</time></trkpt><trkpt lat="45.79573967625326" lon="11.436009773256336"><ele>729.0</ele><time>2026-04-19T09:05:04.999Z</time></trkpt><trkpt lat="45.79583536336478" lon="11.435830266846002"><ele>729.0</ele><time>2026-04-19T09:05:05.999Z</time></trkpt><trkpt lat="45.795923880841954" lon="11.435689093285724"><ele>729.0</ele><time>2026-04-19T09:05:07Z</time></trkpt><trkpt lat="45.79600239079798" lon="11.435533940444193"><ele>729.0</ele><time>2026-04-19T09:05:08Z</time></trkpt><trkpt lat="45.7960649188532" lon="11.435353381718642"><ele>729.0</ele><time>2026-04-19T09:05:09Z</time></trkpt><trkpt lat="45.79611560174482" lon="11.435171018484459"><ele>733.75</ele><time>2026-04-19T09:05:10Z</time></trkpt><trkpt lat="45.796154913774" lon="11.43498491892078"><ele>738.5</ele><time>2026-04-19T09:05:11Z</time></trkpt><trkpt lat="45.79623531147588" lon="11.434802840571129"><ele>743.25</ele><time>2026-04-19T09:05:12Z</time></trkpt><trkpt lat="45.79630134951134" lon="11.434609500056585"><ele>748.0</ele><time>2026-04-19T09:05:13Z</time></trkpt><trkpt lat="45.79636362556274" lon="11.434394546170989"><ele>748.0</ele><time>2026-04-19T09:05:14Z</time></trkpt><trkpt lat="45.796435872171514" lon="11.434191845893832"><ele>748.0</ele><time>2026-04-19T09:05:15Z</time></trkpt><trkpt lat="45.79650872757068" lon="11.433969407262223"><ele>748.0</ele><time>2026-04-19T09:05:16Z</time></trkpt><trkpt lat="45.796581985111196" lon="11.433760329294312"><ele>744.3333333333334</ele><time>2026-04-19T09:05:17Z</time></trkpt><trkpt lat="45.796657091347456" lon="11.433556423612544"><ele>740.6666666666666</ele><time>2026-04-19T09:05:18Z</time></trkpt><trkpt lat="45.796733962670636" lon="11.433349915216734"><ele>737.0</ele><time>2026-04-19T09:05:19Z</time></trkpt><trkpt lat="45.796800384818475" lon="11.433149518470312"><ele>746.75</ele><time>2026-04-19T09:05:20Z</time></trkpt><trkpt lat="45.79686459344164" lon="11.432955104156335"><ele>756.5</ele><time>2026-04-19T09:05:21Z</time></trkpt><trkpt lat="45.7969044463944" lon="11.432754095683478"><ele>766.25</ele><time>2026-04-19T09:05:22Z</time></trkpt><trkpt lat="45.796935580500225" lon="11.432552886541174"><ele>776.0</ele><time>2026-04-19T09:05:23Z</time></trkpt><trkpt lat="45.79695559624604" lon="11.432351202711502"><ele>773.5</ele><time>2026-04-19T09:05:24Z</time></trkpt><trkpt lat="45.79698729992972" lon="11.43213316109179"><ele>771.0</ele><time>2026-04-19T09:05:25Z</time></trkpt><trkpt lat="45.79702257637477" lon="11.431933601746358"><ele>768.5</ele><time>2026-04-19T09:05:26Z</time></trkpt><trkpt lat="45.797066995214266" lon="11.431730604104015"><ele>766.0</ele><time>2026-04-19T09:05:27Z</time></trkpt><trkpt lat="45.79714192735145" lon="11.431517193680362"><ele>766.0</ele><time>2026-04-19T09:05:28Z</time></trkpt><trkpt lat="45.79724479933013" lon="11.431365738854451"><ele>766.0</ele><time>2026-04-19T09:05:29Z</time></trkpt><trkpt lat="45.79734777594701" lon="11.43119649913665"><ele>766.0</ele><time>2026-04-19T09:05:30Z</time></trkpt><trkpt lat="45.797429295340656" lon="11.431025450246548"><ele>766.0</ele><time>2026-04-19T09:05:31Z</time></trkpt><trkpt lat="45.797515684458894" lon="11.430857134705063"><ele>762.5</ele><time>2026-04-19T09:05:32Z</time></trkpt><trkpt lat="45.79757287924898" lon="11.430671729883619"><ele>759.0</ele><time>2026-04-19T09:05:33Z</time></trkpt><trkpt lat="45.79762676068289" lon="11.43046770819607"><ele>755.5</ele><time>2026-04-19T09:05:34Z</time></trkpt><trkpt lat="45.797663686067196" lon="11.430261233651823"><ele>752.0</ele><time>2026-04-19T09:05:35Z</time></trkpt><trkpt lat="45.79769508856372" lon="11.430056645954352"><ele>757.25</ele><time>2026-04-19T09:05:36Z</time></trkpt><trkpt lat="45.79772303801694" lon="11.429870858998969"><ele>762.5</ele><time>2026-04-19T09:05:37Z</time></trkpt><trkpt lat="45.797769798081404" lon="11.429707471939771"><ele>767.75</ele><time>2026-04-19T09:05:38Z</time></trkpt><trkpt lat="45.797808348874284" lon="11.429539617470352"><ele>773.0</ele><time>2026-04-19T09:05:39Z</time></trkpt><trkpt lat="45.797840514890915" lon="11.429388971932415"><ele>773.0000000000001</ele><time>2026-04-19T09:05:40Z</time></trkpt><trkpt lat="45.79786937563654" lon="11.429262850940326"><ele>773.0</ele><time>2026-04-19T09:05:41Z</time></trkpt><trkpt lat="45.79789921908344" lon="11.4291498788366"><ele>773.0</ele><time>2026-04-19T09:05:42Z</time></trkpt><trkpt lat="45.79799451536855" lon="11.429056537589906"><ele>773.0</ele><time>2026-04-19T09:05:44Z</time></trkpt><trkpt lat="45.798061986581594" lon="11.429080033308946"><ele>773.0000000000001</ele><time>2026-04-19T09:05:45Z</time></trkpt><trkpt lat="45.798123168047915" lon="11.429168641151314"><ele>773.0</ele><time>2026-04-19T09:05:46Z</time></trkpt><trkpt lat="45.79810580610439" lon="11.429280314374447"><ele>773.0</ele><time>2026-04-19T09:05:47Z</time></trkpt><trkpt lat="45.798071972641615" lon="11.429395330601793"><ele>773.0</ele><time>2026-04-19T09:05:48Z</time></trkpt><trkpt lat="45.798041848205074" lon="11.429516485395492"><ele>773.0</ele><time>2026-04-19T09:05:49Z</time></trkpt><trkpt lat="45.797953441402996" lon="11.429663985119738"><ele>773.0</ele><time>2026-04-19T09:05:50Z</time></trkpt><trkpt lat="45.79790738540614" lon="11.429832724451131"><ele>773.0</ele><time>2026-04-19T09:05:51Z</time></trkpt><trkpt lat="45.79786115877322" lon="11.43001484328681"><ele>776.0</ele><time>2026-04-19T09:05:52Z</time></trkpt><trkpt lat="45.79782522678531" lon="11.430181107024035"><ele>779.0</ele><time>2026-04-19T09:05:53Z</time></trkpt><trkpt lat="45.79779872620284" lon="11.4303460135074"><ele>782.0</ele><time>2026-04-19T09:05:54Z</time></trkpt><trkpt lat="45.7977886325774" lon="11.430517233985222"><ele>785.0</ele><time>2026-04-19T09:05:55Z</time></trkpt><trkpt lat="45.797806236001236" lon="11.43068341638785"><ele>787.25</ele><time>2026-04-19T09:05:56Z</time></trkpt><trkpt lat="45.79780579569711" lon="11.430870485024364"><ele>789.5</ele><time>2026-04-19T09:05:57Z</time></trkpt><trkpt lat="45.79778856142805" lon="11.431050873960741"><ele>791.75</ele><time>2026-04-19T09:05:58Z</time></trkpt><trkpt lat="45.79774281951509" lon="11.43122356808499"><ele>794.0</ele><time>2026-04-19T09:05:59Z</time></trkpt><trkpt lat="45.79766633084344" lon="11.43137800640925"><ele>789.5</ele><time>2026-04-19T09:06:00Z</time></trkpt><trkpt lat="45.79759415913626" lon="11.431543322744872"><ele>785.0</ele><time>2026-04-19T09:06:01Z</time></trkpt><trkpt lat="45.79752049561324" lon="11.431725066650678"><ele>780.5</ele><time>2026-04-19T09:06:02Z</time></trkpt><trkpt lat="45.79744931703458" lon="11.431917266068343"><ele>776.0</ele><time>2026-04-19T09:06:03Z</time></trkpt><trkpt lat="45.79741443423253" lon="11.432151992699373"><ele>776.0</ele><time>2026-04-19T09:06:04Z</time></trkpt><trkpt lat="45.79740313303893" lon="11.432387692164504"><ele>776.0</ele><time>2026-04-19T09:06:05Z</time></trkpt><trkpt lat="45.797395943333385" lon="11.432626957137652"><ele>776.0</ele><time>2026-04-19T09:06:06Z</time></trkpt><trkpt lat="45.7973747225008" lon="11.432869129694293"><ele>779.6666666666667</ele><time>2026-04-19T09:06:07Z</time></trkpt><trkpt lat="45.79735540004301" lon="11.43308895094421"><ele>783.3333333333333</ele><time>2026-04-19T09:06:08Z</time></trkpt><trkpt lat="45.79734291331996" lon="11.433306107487967"><ele>787.0</ele><time>2026-04-19T09:06:09Z</time></trkpt><trkpt lat="45.79731770415613" lon="11.433518164800844"><ele>787.0</ele><time>2026-04-19T09:06:10Z</time></trkpt><trkpt lat="45.79727749587936" lon="11.433728899758586"><ele>787.0</ele><time>2026-04-19T09:06:11Z</time></trkpt><trkpt lat="45.79723499034229" lon="11.433933228939859"><ele>787.0</ele><time>2026-04-19T09:06:12Z</time></trkpt><trkpt lat="45.79720961617123" lon="11.434150135656266"><ele>788.75</ele><time>2026-04-19T09:06:13Z</time></trkpt><trkpt lat="45.797179440686115" lon="11.434356906311887"><ele>790.5</ele><time>2026-04-19T09:06:14Z</time></trkpt><trkpt lat="45.797157891987396" lon="11.434559363888587"><ele>792.25</ele><time>2026-04-19T09:06:15Z</time></trkpt><trkpt lat="45.79713744221935" lon="11.434771827072879"><ele>794.0</ele><time>2026-04-19T09:06:16Z</time></trkpt><trkpt lat="45.79711075684159" lon="11.434994846403153"><ele>795.0</ele><time>2026-04-19T09:06:17Z</time></trkpt><trkpt lat="45.79708485597609" lon="11.43521101285715"><ele>796.0</ele><time>2026-04-19T09:06:18Z</time></trkpt><trkpt lat="45.7970528643728" lon="11.435416154766937"><ele>797.0</ele><time>2026-04-19T09:06:19Z</time></trkpt><trkpt lat="45.79702174708461" lon="11.435624748547522"><ele>798.0</ele><time>2026-04-19T09:06:20Z</time></trkpt><trkpt lat="45.79696775642152" lon="11.435804954201041"><ele>799.5999999999999</ele><time>2026-04-19T09:06:21Z</time></trkpt><trkpt lat="45.79692797942073" lon="11.435965183313217"><ele>801.1999999999999</ele><time>2026-04-19T09:06:22Z</time></trkpt><trkpt lat="45.7969055152564" lon="11.436114503621752"><ele>802.8</ele><time>2026-04-19T09:06:23Z</time></trkpt><trkpt lat="45.79686150330633" lon="11.436248216670707"><ele>804.4</ele><time>2026-04-19T09:06:24Z</time></trkpt><trkpt lat="45.79681591067124" lon="11.436369565021554"><ele>806.0</ele><time>2026-04-19T09:06:25Z</time></trkpt><trkpt lat="45.79677451034906" lon="11.43648314942657"><ele>802.1666666666667</ele><time>2026-04-19T09:06:26Z</time></trkpt><trkpt lat="45.7967298411113" lon="11.436586630840393"><ele>798.3333333333334</ele><time>2026-04-19T09:06:27Z</time></trkpt><trkpt lat="45.79668486814532" lon="11.436682328197744"><ele>794.5</ele><time>2026-04-19T09:06:28Z</time></trkpt><trkpt lat="45.796646970017626" lon="11.436788380230816"><ele>790.6666666666667</ele><time>2026-04-19T09:06:29Z</time></trkpt><trkpt lat="45.796639857487925" lon="11.436908167381533"><ele>786.8333333333334</ele><time>2026-04-19T09:06:30Z</time></trkpt><trkpt lat="45.796680221275636" lon="11.437027030347654"><ele>783.0</ele><time>2026-04-19T09:06:31Z</time></trkpt><trkpt lat="45.79677631562524" lon="11.437089375196717"><ele>790.0</ele><time>2026-04-19T09:06:32Z</time></trkpt><trkpt lat="45.79686511387879" lon="11.437100503886612"><ele>797.0</ele><time>2026-04-19T09:06:33Z</time></trkpt><trkpt lat="45.796941836755316" lon="11.437050809530492"><ele>804.0</ele><time>2026-04-19T09:06:33.999Z</time></trkpt><trkpt lat="45.79699416907643" lon="11.436958244137209"><ele>811.0</ele><time>2026-04-19T09:06:34.999Z</time></trkpt><trkpt lat="45.7970314244118" lon="11.43680603436691"><ele>818.0</ele><time>2026-04-19T09:06:35.999Z</time></trkpt><trkpt lat="45.797045415910425" lon="11.436605667875147"><ele>818.0</ele><time>2026-04-19T09:06:36.999Z</time></trkpt><trkpt lat="45.797080145712194" lon="11.43640735158841"><ele>818.0</ele><time>2026-04-19T09:06:37.999Z</time></trkpt><trkpt lat="45.79711376601541" lon="11.43618573585668"><ele>818.0</ele><time>2026-04-19T09:06:38.999Z</time></trkpt><trkpt lat="45.797169334605094" lon="11.436017882516772"><ele>818.0</ele><time>2026-04-19T09:06:39.999Z</time></trkpt><trkpt lat="45.797219121807714" lon="11.43586954460733"><ele>815.0</ele><time>2026-04-19T09:06:40.999Z</time></trkpt><trkpt lat="45.797279343769944" lon="11.435675780200292"><ele>812.0</ele><time>2026-04-19T09:06:41.999Z</time></trkpt><trkpt lat="45.79733128478336" lon="11.435508659944876"><ele>809.0</ele><time>2026-04-19T09:06:42.999Z</time></trkpt><trkpt lat="45.79737815771922" lon="11.435357845922761"><ele>806.0</ele><time>2026-04-19T09:06:43.999Z</time></trkpt><trkpt lat="45.79743458974823" lon="11.43517498777063"><ele>804.0</ele><time>2026-04-19T09:06:44.999Z</time></trkpt><trkpt lat="45.797486853699226" lon="11.435003922446136"><ele>802.0</ele><time>2026-04-19T09:06:45.999Z</time></trkpt><trkpt lat="45.79753826558787" lon="11.434834910159719"><ele>800.0</ele><time>2026-04-19T09:06:46.999Z</time></trkpt><trkpt lat="45.797595677775234" lon="11.434645609415362"><ele>798.0</ele><time>2026-04-19T09:06:47.999Z</time></trkpt><trkpt lat="45.79765322204145" lon="11.434455639326055"><ele>806.0</ele><time>2026-04-19T09:06:48.999Z</time></trkpt><trkpt lat="45.79771108506814" lon="11.43425456787142"><ele>814.0</ele><time>2026-04-19T09:06:49.999Z</time></trkpt><trkpt lat="45.797765497218315" lon="11.434052214837255"><ele>822.0</ele><time>2026-04-19T09:06:50.999Z</time></trkpt><trkpt lat="45.79781067998855" lon="11.433865430864802"><ele>830.0</ele><time>2026-04-19T09:06:51.999Z</time></trkpt><trkpt lat="45.797853976343895" lon="11.43366258676809"><ele>830.0</ele><time>2026-04-19T09:06:52.999Z</time></trkpt><trkpt lat="45.797898589617176" lon="11.433439534821346"><ele>830.0</ele><time>2026-04-19T09:06:53.999Z</time></trkpt><trkpt lat="45.79794256340476" lon="11.433209341738163"><ele>830.0</ele><time>2026-04-19T09:06:54.999Z</time></trkpt><trkpt lat="45.79799174140949" lon="11.43296321428811"><ele>827.0</ele><time>2026-04-19T09:06:55.999Z</time></trkpt><trkpt lat="45.79805966620297" lon="11.432738392207012"><ele>824.0</ele><time>2026-04-19T09:06:56.999Z</time></trkpt><trkpt lat="45.79813720053238" lon="11.432538577520235"><ele>821.0</ele><time>2026-04-19T09:06:57.999Z</time></trkpt><trkpt lat="45.79819858541411" lon="11.43236074141465"><ele>821.0</ele><time>2026-04-19T09:06:58.999Z</time></trkpt><trkpt lat="45.798281333888525" lon="11.43218966857456"><ele>821.0</ele><time>2026-04-19T09:06:59.999Z</time></trkpt><trkpt lat="45.79835544919023" lon="11.43205666586033"><ele>821.0</ele><time>2026-04-19T09:07:00.999Z</time></trkpt><trkpt lat="45.79841825820029" lon="11.431917569397385"><ele>821.0</ele><time>2026-04-19T09:07:01.999Z</time></trkpt><trkpt lat="45.7984899355958" lon="11.431754822416123"><ele>826.5</ele><time>2026-04-19T09:07:02.999Z</time></trkpt><trkpt lat="45.79855621786174" lon="11.431592059968708"><ele>832.0</ele><time>2026-04-19T09:07:03.999Z</time></trkpt><trkpt lat="45.79860537355729" lon="11.431410779509893"><ele>837.5</ele><time>2026-04-19T09:07:04.999Z</time></trkpt><trkpt lat="45.7986213311909" lon="11.431206858551013"><ele>843.0</ele><time>2026-04-19T09:07:05.999Z</time></trkpt><trkpt lat="45.798627417704715" lon="11.431025620155769"><ele>843.0</ele><time>2026-04-19T09:07:07Z</time></trkpt><trkpt lat="45.79863658795236" lon="11.430861651326312"><ele>843.0</ele><time>2026-04-19T09:07:08Z</time></trkpt><trkpt lat="45.79869291028235" lon="11.430689897748977"><ele>843.0</ele><time>2026-04-19T09:07:09Z</time></trkpt><trkpt lat="45.79875585849339" lon="11.430536991274076"><ele>843.0</ele><time>2026-04-19T09:07:10Z</time></trkpt><trkpt lat="45.79881297527908" lon="11.430360142140826"><ele>839.75</ele><time>2026-04-19T09:07:11Z</time></trkpt><trkpt lat="45.798896482512895" lon="11.430211508856765"><ele>836.5</ele><time>2026-04-19T09:07:12Z</time></trkpt><trkpt lat="45.79896677617243" lon="11.430049008158122"><ele>833.25</ele><time>2026-04-19T09:07:13Z</time></trkpt><trkpt lat="45.799032990937896" lon="11.429889669439174"><ele>830.0</ele><time>2026-04-19T09:07:14Z</time></trkpt><trkpt lat="45.79910039520475" lon="11.429729909114984"><ele>828.25</ele><time>2026-04-19T09:07:15Z</time></trkpt><trkpt lat="45.79916491865133" lon="11.429580898008298"><ele>826.5</ele><time>2026-04-19T09:07:16Z</time></trkpt><trkpt lat="45.79921719020811" lon="11.429422682828548"><ele>824.75</ele><time>2026-04-19T09:07:17Z</time></trkpt><trkpt lat="45.79926030441311" lon="11.429266485747272"><ele>823.0</ele><time>2026-04-19T09:07:18Z</time></trkpt><trkpt lat="45.799301765746286" lon="11.429111379940553"><ele>830.4</ele><time>2026-04-19T09:07:19Z</time></trkpt><trkpt lat="45.79934519590027" lon="11.428946885229555"><ele>837.8</ele><time>2026-04-19T09:07:20Z</time></trkpt><trkpt lat="45.79939270209907" lon="11.428805591966393"><ele>845.2</ele><time>2026-04-19T09:07:21Z</time></trkpt><trkpt lat="45.79943695349883" lon="11.428674167807259"><ele>852.6</ele><time>2026-04-19T09:07:22Z</time></trkpt><trkpt lat="45.79947223915271" lon="11.428533267766971"><ele>860.0</ele><time>2026-04-19T09:07:23Z</time></trkpt><trkpt lat="45.79949896398558" lon="11.428381264659722"><ele>860.0</ele><time>2026-04-19T09:07:24Z</time></trkpt><trkpt lat="45.79951523314984" lon="11.428221487806098"><ele>860.0</ele><time>2026-04-19T09:07:25Z</time></trkpt><trkpt lat="45.79951710323511" lon="11.42805136599019"><ele>860.0</ele><time>2026-04-19T09:07:26Z</time></trkpt><trkpt lat="45.79951033495717" lon="11.427895034089076"><ele>860.0</ele><time>2026-04-19T09:07:27Z</time></trkpt><trkpt lat="45.79950608073583" lon="11.427746655310589"><ele>860.0</ele><time>2026-04-19T09:07:28Z</time></trkpt><trkpt lat="45.79952575146581" lon="11.427613627949507"><ele>858.0</ele><time>2026-04-19T09:07:29Z</time></trkpt><trkpt lat="45.79956528886327" lon="11.427479244519338"><ele>856.0</ele><time>2026-04-19T09:07:30Z</time></trkpt><trkpt lat="45.79963611412211" lon="11.427371917594495"><ele>854.0</ele><time>2026-04-19T09:07:31Z</time></trkpt><trkpt lat="45.79971247322596" lon="11.427272875073823"><ele>852.0</ele><time>2026-04-19T09:07:32Z</time></trkpt><trkpt lat="45.799798917332886" lon="11.427183855090831"><ele>850.0</ele><time>2026-04-19T09:07:33Z</time></trkpt><trkpt lat="45.799879385061" lon="11.427088959618926"><ele>847.4</ele><time>2026-04-19T09:07:34Z</time></trkpt><trkpt lat="45.79996819115964" lon="11.427004388303223"><ele>844.8</ele><time>2026-04-19T09:07:35Z</time></trkpt><trkpt lat="45.800027192401345" lon="11.426871634580248"><ele>842.2</ele><time>2026-04-19T09:07:36Z</time></trkpt><trkpt lat="45.80005942839985" lon="11.426735529972046"><ele>839.6</ele><time>2026-04-19T09:07:37Z</time></trkpt><trkpt lat="45.80008131238355" lon="11.426575808146785"><ele>837.0</ele><time>2026-04-19T09:07:38Z</time></trkpt><trkpt lat="45.80010557661345" lon="11.426418059893269"><ele>841.5</ele><time>2026-04-19T09:07:39Z</time></trkpt><trkpt lat="45.80014701302166" lon="11.426276680079363"><ele>846.0</ele><time>2026-04-19T09:07:40Z</time></trkpt><trkpt lat="45.800221850809336" lon="11.426150945097518"><ele>850.5</ele><time>2026-04-19T09:07:41Z</time></trkpt><trkpt lat="45.80031943762192" lon="11.426054241481614"><ele>855.0</ele><time>2026-04-19T09:07:42Z</time></trkpt><trkpt lat="45.800435258922626" lon="11.425996761967776"><ele>855.0</ele><time>2026-04-19T09:07:43Z</time></trkpt><trkpt lat="45.80055480707667" lon="11.425971209839942"><ele>855.0</ele><time>2026-04-19T09:07:44Z</time></trkpt><trkpt lat="45.800655473340406" lon="11.425897503998485"><ele>855.0</ele><time>2026-04-19T09:07:45Z</time></trkpt><trkpt lat="45.80073807387492" lon="11.425774921448369"><ele>855.0</ele><time>2026-04-19T09:07:46Z</time></trkpt><trkpt lat="45.800799931179775" lon="11.425632456223598"><ele>855.0</ele><time>2026-04-19T09:07:47Z</time></trkpt><trkpt lat="45.80083571063209" lon="11.425490818932554"><ele>855.0</ele><time>2026-04-19T09:07:48Z</time></trkpt><trkpt lat="45.80085077016859" lon="11.42532668230372"><ele>855.0</ele><time>2026-04-19T09:07:49Z</time></trkpt><trkpt lat="45.80088757595633" lon="11.425155128597511"><ele>855.0</ele><time>2026-04-19T09:07:50Z</time></trkpt><trkpt lat="45.80091750246192" lon="11.424995201899282"><ele>859.0</ele><time>2026-04-19T09:07:51Z</time></trkpt><trkpt lat="45.80096626917205" lon="11.424861411703507"><ele>863.0</ele><time>2026-04-19T09:07:52Z</time></trkpt><trkpt lat="45.801053410372326" lon="11.424745625773166"><ele>867.0</ele><time>2026-04-19T09:07:53Z</time></trkpt><trkpt lat="45.80114743267899" lon="11.424628931984639"><ele>871.0</ele><time>2026-04-19T09:07:54Z</time></trkpt><trkpt lat="45.80123967263554" lon="11.424536533875983"><ele>871.0</ele><time>2026-04-19T09:07:55Z</time></trkpt><trkpt lat="45.80132547360624" lon="11.424430433163575"><ele>871.0</ele><time>2026-04-19T09:07:56Z</time></trkpt><trkpt lat="45.801382477975274" lon="11.424289269287224"><ele>871.0</ele><time>2026-04-19T09:07:57Z</time></trkpt><trkpt lat="45.80141651595815" lon="11.42412081931508"><ele>871.0</ele><time>2026-04-19T09:07:58Z</time></trkpt><trkpt lat="45.80144404233042" lon="11.423941342606721"><ele>870.4</ele><time>2026-04-19T09:07:59Z</time></trkpt><trkpt lat="45.80141702176651" lon="11.423784659417013"><ele>869.8</ele><time>2026-04-19T09:08:00Z</time></trkpt><trkpt lat="45.80138460423379" lon="11.423621732228234"><ele>869.1999999999999</ele><time>2026-04-19T09:08:01Z</time></trkpt><trkpt lat="45.80137511621678" lon="11.42346350085592"><ele>868.5999999999999</ele><time>2026-04-19T09:08:02Z</time></trkpt><trkpt lat="45.80135213556931" lon="11.423313874527066"><ele>868.0</ele><time>2026-04-19T09:08:03Z</time></trkpt><trkpt lat="45.80133286520289" lon="11.423174584014294"><ele>868.0</ele><time>2026-04-19T09:08:04Z</time></trkpt><trkpt lat="45.80132232565334" lon="11.423046084526083"><ele>868.0</ele><time>2026-04-19T09:08:05Z</time></trkpt><trkpt lat="45.80134033699546" lon="11.422906896337327"><ele>868.0</ele><time>2026-04-19T09:08:06Z</time></trkpt><trkpt lat="45.801384308452015" lon="11.422789832250322"><ele>868.0</ele><time>2026-04-19T09:08:07Z</time></trkpt><trkpt lat="45.80143834613379" lon="11.422701069526607"><ele>868.0</ele><time>2026-04-19T09:08:08Z</time></trkpt><trkpt lat="45.80150461566245" lon="11.422614872194895"><ele>867.5999999999999</ele><time>2026-04-19T09:08:09Z</time></trkpt><trkpt lat="45.80158208446045" lon="11.422554205226126"><ele>867.1999999999999</ele><time>2026-04-19T09:08:10Z</time></trkpt><trkpt lat="45.80167855871869" lon="11.422508093488632"><ele>866.8</ele><time>2026-04-19T09:08:11Z</time></trkpt><trkpt lat="45.80177688891647" lon="11.42247009343161"><ele>866.4</ele><time>2026-04-19T09:08:12Z</time></trkpt><trkpt lat="45.80185791658898" lon="11.422428911628476"><ele>866.0</ele><time>2026-04-19T09:08:13Z</time></trkpt><trkpt lat="45.80196370744642" lon="11.422398218762345"><ele>866.0</ele><time>2026-04-19T09:08:14Z</time></trkpt><trkpt lat="45.802068919404114" lon="11.422367318775686"><ele>866.0</ele><time>2026-04-19T09:08:15Z</time></trkpt><trkpt lat="45.80218625213141" lon="11.422341174450667"><ele>866.0</ele><time>2026-04-19T09:08:16Z</time></trkpt><trkpt lat="45.802324326197706" lon="11.422371320649232"><ele>866.0</ele><time>2026-04-19T09:08:17Z</time></trkpt><trkpt lat="45.80249756426318" lon="11.422422162403493"><ele>864.3333333333334</ele><time>2026-04-19T09:08:18Z</time></trkpt><trkpt lat="45.80269101818093" lon="11.422483724995924"><ele>862.6666666666667</ele><time>2026-04-19T09:08:19Z</time></trkpt><trkpt lat="45.8028836080399" lon="11.422546090818406"><ele>861.0</ele><time>2026-04-19T09:08:20Z</time></trkpt><trkpt lat="45.803056046597064" lon="11.42260373899745"><ele>861.0</ele><time>2026-04-19T09:08:21Z</time></trkpt><trkpt lat="45.80323533034725" lon="11.422662521599205"><ele>861.0</ele><time>2026-04-19T09:08:22Z</time></trkpt><trkpt lat="45.80339701126045" lon="11.422714664581251"><ele>861.0</ele><time>2026-04-19T09:08:23Z</time></trkpt><trkpt lat="45.80355914058067" lon="11.422767457046929"><ele>860.0</ele><time>2026-04-19T09:08:24Z</time></trkpt><trkpt lat="45.80371093338429" lon="11.422818015943143"><ele>859.0</ele><time>2026-04-19T09:08:25Z</time></trkpt><trkpt lat="45.803866319583555" lon="11.422869089999741"><ele>858.0</ele><time>2026-04-19T09:08:26Z</time></trkpt><trkpt lat="45.80401002806758" lon="11.422889243412037"><ele>858.0</ele><time>2026-04-19T09:08:27Z</time></trkpt><trkpt lat="45.80416704056957" lon="11.422905777265612"><ele>858.0</ele><time>2026-04-19T09:08:28Z</time></trkpt><trkpt lat="45.804319833840445" lon="11.422920730600424"><ele>858.0</ele><time>2026-04-19T09:08:29Z</time></trkpt><trkpt lat="45.80446637472526" lon="11.422935072035374"><ele>859.3333333333333</ele><time>2026-04-19T09:08:30Z</time></trkpt><trkpt lat="45.804635406472286" lon="11.422951614574622"><ele>860.6666666666666</ele><time>2026-04-19T09:08:31Z</time></trkpt><trkpt lat="45.804778417336344" lon="11.42296561054094"><ele>862.0</ele><time>2026-04-19T09:08:32Z</time></trkpt><trkpt lat="45.804947697947604" lon="11.422981200423253"><ele>862.0</ele><time>2026-04-19T09:08:33Z</time></trkpt><trkpt lat="45.80512927231274" lon="11.422976624276536"><ele>862.0</ele><time>2026-04-19T09:08:34Z</time></trkpt><trkpt lat="45.80529238247132" lon="11.42301398550966"><ele>862.0</ele><time>2026-04-19T09:08:35Z</time></trkpt><trkpt lat="45.805458410584826" lon="11.423032768619278"><ele>870.0</ele><time>2026-04-19T09:08:36Z</time></trkpt><trkpt lat="45.80561255541398" lon="11.423073475437718"><ele>878.0</ele><time>2026-04-19T09:08:37Z</time></trkpt><trkpt lat="45.805749448850484" lon="11.423154373030176"><ele>886.0</ele><time>2026-04-19T09:08:38Z</time></trkpt><trkpt lat="45.805884217054924" lon="11.423271811682595"><ele>881.3333333333333</ele><time>2026-04-19T09:08:39Z</time></trkpt><trkpt lat="45.806014732138735" lon="11.423412037061803"><ele>876.6666666666667</ele><time>2026-04-19T09:08:39.999Z</time></trkpt><trkpt lat="45.80614956521485" lon="11.423559548796382"><ele>872.0</ele><time>2026-04-19T09:08:40.999Z</time></trkpt><trkpt lat="45.80630184106171" lon="11.423696846315316"><ele>881.6666666666667</ele><time>2026-04-19T09:08:41.999Z</time></trkpt><trkpt lat="45.80644391207714" lon="11.423862575418097"><ele>891.3333333333333</ele><time>2026-04-19T09:08:42.999Z</time></trkpt><trkpt lat="45.806616790623856" lon="11.423964897098358"><ele>901.0</ele><time>2026-04-19T09:08:43.999Z</time></trkpt><trkpt lat="45.80679071472214" lon="11.423997231659799"><ele>898.6666666666666</ele><time>2026-04-19T09:08:44.999Z</time></trkpt><trkpt lat="45.80697371422693" lon="11.424036862477157"><ele>896.3333333333333</ele><time>2026-04-19T09:08:45.999Z</time></trkpt><trkpt lat="45.80715000354583" lon="11.42406625078078"><ele>894.0</ele><time>2026-04-19T09:08:46.999Z</time></trkpt><trkpt lat="45.80732054993945" lon="11.424095423732412"><ele>894.0</ele><time>2026-04-19T09:08:47.999Z</time></trkpt><trkpt lat="45.80748871117675" lon="11.424151460671297"><ele>894.0</ele><time>2026-04-19T09:08:48.999Z</time></trkpt><trkpt lat="45.80758946180115" lon="11.424248397387217"><ele>894.0</ele><time>2026-04-19T09:08:49.999Z</time></trkpt><trkpt lat="45.80772206803959" lon="11.424372610257556"><ele>892.6666666666667</ele><time>2026-04-19T09:08:50.999Z</time></trkpt><trkpt lat="45.80785162613239" lon="11.424504754764502"><ele>891.3333333333334</ele><time>2026-04-19T09:08:51.999Z</time></trkpt><trkpt lat="45.80797086513249" lon="11.424624853399852"><ele>890.0</ele><time>2026-04-19T09:08:52.999Z</time></trkpt><trkpt lat="45.80809446388527" lon="11.424749343239979"><ele>895.0</ele><time>2026-04-19T09:08:54Z</time></trkpt><trkpt lat="45.808228860746944" lon="11.424863198366673"><ele>900.0</ele><time>2026-04-19T09:08:55Z</time></trkpt><trkpt lat="45.80838319190939" lon="11.424948060158533"><ele>905.0</ele><time>2026-04-19T09:08:56Z</time></trkpt><trkpt lat="45.80854259773759" lon="11.424987162024241"><ele>905.0</ele><time>2026-04-19T09:08:57Z</time></trkpt><trkpt lat="45.80868224657592" lon="11.424974325404484"><ele>905.0</ele><time>2026-04-19T09:08:58Z</time></trkpt><trkpt lat="45.808829972281025" lon="11.425002744871394"><ele>905.0</ele><time>2026-04-19T09:08:59Z</time></trkpt><trkpt lat="45.80897208726492" lon="11.425029303379524"><ele>905.0</ele><time>2026-04-19T09:09:00Z</time></trkpt><trkpt lat="45.80910368889792" lon="11.425092344167396"><ele>905.0</ele><time>2026-04-19T09:09:01Z</time></trkpt><trkpt lat="45.80922798242425" lon="11.42518011666344"><ele>905.0</ele><time>2026-04-19T09:09:02Z</time></trkpt><trkpt lat="45.80934731181456" lon="11.425309456012632"><ele>905.0</ele><time>2026-04-19T09:09:03Z</time></trkpt><trkpt lat="45.809439699346875" lon="11.425443731556841"><ele>905.0</ele><time>2026-04-19T09:09:04Z</time></trkpt><trkpt lat="45.80953326653038" lon="11.425586780625778"><ele>905.75</ele><time>2026-04-19T09:09:05Z</time></trkpt><trkpt lat="45.809621329086454" lon="11.425718682535344"><ele>906.5</ele><time>2026-04-19T09:09:06Z</time></trkpt><trkpt lat="45.80971295447599" lon="11.425851066875317"><ele>907.25</ele><time>2026-04-19T09:09:07Z</time></trkpt><trkpt lat="45.80982696293677" lon="11.42597176705676"><ele>908.0</ele><time>2026-04-19T09:09:08Z</time></trkpt><trkpt lat="45.80996319948772" lon="11.426071207919119"><ele>908.0</ele><time>2026-04-19T09:09:09Z</time></trkpt><trkpt lat="45.810091471372594" lon="11.426134809848248"><ele>908.0</ele><time>2026-04-19T09:09:10Z</time></trkpt><trkpt lat="45.81018473304439" lon="11.426165210209764"><ele>908.0</ele><time>2026-04-19T09:09:11Z</time></trkpt><trkpt lat="45.81033537194783" lon="11.426204014087807"><ele>908.0</ele><time>2026-04-19T09:09:12Z</time></trkpt><trkpt lat="45.810486521983016" lon="11.426240722340646"><ele>909.0</ele><time>2026-04-19T09:09:13Z</time></trkpt><trkpt lat="45.810635238249176" lon="11.426254686948722"><ele>910.0</ele><time>2026-04-19T09:09:14Z</time></trkpt><trkpt lat="45.810769392757" lon="11.42630943914361"><ele>911.0</ele><time>2026-04-19T09:09:15Z</time></trkpt><trkpt lat="45.810913452553514" lon="11.42634618206857"><ele>912.0</ele><time>2026-04-19T09:09:16Z</time></trkpt><trkpt lat="45.81105099051753" lon="11.426372424515636"><ele>915.75</ele><time>2026-04-19T09:09:17Z</time></trkpt><trkpt lat="45.81117170471619" lon="11.426460361057078"><ele>919.5</ele><time>2026-04-19T09:09:18Z</time></trkpt><trkpt lat="45.81129724185947" lon="11.426546867922365"><ele>923.25</ele><time>2026-04-19T09:09:19Z</time></trkpt><trkpt lat="45.81141416149232" lon="11.426634012354604"><ele>927.0</ele><time>2026-04-19T09:09:20Z</time></trkpt><trkpt lat="45.811533011501965" lon="11.42672650794525"><ele>927.0</ele><time>2026-04-19T09:09:21Z</time></trkpt><trkpt lat="45.81165992298703" lon="11.426825277253"><ele>927.0</ele><time>2026-04-19T09:09:22Z</time></trkpt><trkpt lat="45.81179390609442" lon="11.426929550135936"><ele>927.0</ele><time>2026-04-19T09:09:23Z</time></trkpt><trkpt lat="45.81194042388109" lon="11.427014339275411"><ele>929.6666666666667</ele><time>2026-04-19T09:09:24Z</time></trkpt><trkpt lat="45.812064604405215" lon="11.42712810688044"><ele>932.3333333333334</ele><time>2026-04-19T09:09:25Z</time></trkpt><trkpt lat="45.812194980207835" lon="11.427239879626368"><ele>935.0</ele><time>2026-04-19T09:09:26Z</time></trkpt><trkpt lat="45.8123458786114" lon="11.42736130000993"><ele>935.3333333333334</ele><time>2026-04-19T09:09:27Z</time></trkpt><trkpt lat="45.812484828717956" lon="11.427472482704612"><ele>935.6666666666667</ele><time>2026-04-19T09:09:28Z</time></trkpt><trkpt lat="45.812633599263236" lon="11.427587415182051"><ele>936.0</ele><time>2026-04-19T09:09:29Z</time></trkpt><trkpt lat="45.81275991691265" lon="11.427711861841408"><ele>938.0</ele><time>2026-04-19T09:09:30Z</time></trkpt><trkpt lat="45.81289877145731" lon="11.427833698607518"><ele>940.0</ele><time>2026-04-19T09:09:31Z</time></trkpt><trkpt lat="45.8130242520331" lon="11.427948892653609"><ele>942.0</ele><time>2026-04-19T09:09:32Z</time></trkpt><trkpt lat="45.81318029651819" lon="11.428022883053526"><ele>942.0</ele><time>2026-04-19T09:09:33Z</time></trkpt><trkpt lat="45.813305719900114" lon="11.428140113933315"><ele>942.0</ele><time>2026-04-19T09:09:34Z</time></trkpt><trkpt lat="45.81344464117678" lon="11.428253087983668"><ele>942.0</ele><time>2026-04-19T09:09:35Z</time></trkpt><trkpt lat="45.8135826606345" lon="11.428310028281182"><ele>943.6666666666667</ele><time>2026-04-19T09:09:36Z</time></trkpt><trkpt lat="45.81373149331943" lon="11.428427794357756"><ele>945.3333333333334</ele><time>2026-04-19T09:09:37Z</time></trkpt><trkpt lat="45.813854873490726" lon="11.428513976203263"><ele>947.0</ele><time>2026-04-19T09:09:38Z</time></trkpt><trkpt lat="45.81398244992785" lon="11.428606662872207"><ele>947.0</ele><time>2026-04-19T09:09:39Z</time></trkpt><trkpt lat="45.814108221968496" lon="11.428691055304675"><ele>947.0</ele><time>2026-04-19T09:09:40Z</time></trkpt><trkpt lat="45.81423883521543" lon="11.42877856801441"><ele>947.0</ele><time>2026-04-19T09:09:41Z</time></trkpt><trkpt lat="45.81436430122635" lon="11.428885377867523"><ele>947.0</ele><time>2026-04-19T09:09:42Z</time></trkpt><trkpt lat="45.81448794414421" lon="11.428989238185979"><ele>948.75</ele><time>2026-04-19T09:09:43Z</time></trkpt><trkpt lat="45.814618867328484" lon="11.429086151462926"><ele>950.5</ele><time>2026-04-19T09:09:44Z</time></trkpt><trkpt lat="45.814740888027764" lon="11.429183063402899"><ele>952.25</ele><time>2026-04-19T09:09:45Z</time></trkpt><trkpt lat="45.814862209642726" lon="11.429298538877918"><ele>954.0</ele><time>2026-04-19T09:09:46Z</time></trkpt><trkpt lat="45.814975519965145" lon="11.42943205257625"><ele>954.0</ele><time>2026-04-19T09:09:47Z</time></trkpt><trkpt lat="45.81507195647294" lon="11.429592475498616"><ele>954.0</ele><time>2026-04-19T09:09:48Z</time></trkpt><trkpt lat="45.81516784537562" lon="11.429764244424804"><ele>954.0</ele><time>2026-04-19T09:09:49Z</time></trkpt><trkpt lat="45.8152602360677" lon="11.42996950104548"><ele>960.3333333333333</ele><time>2026-04-19T09:09:50Z</time></trkpt><trkpt lat="45.81531527518132" lon="11.430209359507462"><ele>966.6666666666666</ele><time>2026-04-19T09:09:51Z</time></trkpt><trkpt lat="45.815378587215875" lon="11.430439973908728"><ele>973.0</ele><time>2026-04-19T09:09:52Z</time></trkpt><trkpt lat="45.81544686398887" lon="11.430686553773027"><ele>973.0</ele><time>2026-04-19T09:09:53Z</time></trkpt><trkpt lat="45.815514473439954" lon="11.430943067796274"><ele>973.0</ele><time>2026-04-19T09:09:54Z</time></trkpt><trkpt lat="45.81558250592288" lon="11.43119763575037"><ele>973.0</ele><time>2026-04-19T09:09:55Z</time></trkpt><trkpt lat="45.81565792057802" lon="11.431448779642547"><ele>973.3333333333333</ele><time>2026-04-19T09:09:56Z</time></trkpt><trkpt lat="45.815728064902196" lon="11.431702104059678"><ele>973.6666666666667</ele><time>2026-04-19T09:09:57Z</time></trkpt><trkpt lat="45.81578714911408" lon="11.431915485199262"><ele>974.0</ele><time>2026-04-19T09:09:58Z</time></trkpt><trkpt lat="45.81585040732927" lon="11.43214394071165"><ele>973.0</ele><time>2026-04-19T09:09:59Z</time></trkpt><trkpt lat="45.815915214646694" lon="11.432367124647069"><ele>972.0</ele><time>2026-04-19T09:10:00Z</time></trkpt><trkpt lat="45.815991604173306" lon="11.432597914770517"><ele>971.0</ele><time>2026-04-19T09:10:01Z</time></trkpt><trkpt lat="45.81606972793983" lon="11.432794721718066"><ele>976.0</ele><time>2026-04-19T09:10:02Z</time></trkpt><trkpt lat="45.816168381700976" lon="11.433013578687655"><ele>981.0</ele><time>2026-04-19T09:10:03Z</time></trkpt><trkpt lat="45.81627160768789" lon="11.433209833432429"><ele>986.0</ele><time>2026-04-19T09:10:04Z</time></trkpt><trkpt lat="45.8163791589363" lon="11.433409095158622"><ele>986.0</ele><time>2026-04-19T09:10:05Z</time></trkpt><trkpt lat="45.81648045210755" lon="11.43359676254226"><ele>986.0</ele><time>2026-04-19T09:10:06Z</time></trkpt><trkpt lat="45.81658227894947" lon="11.433785418586961"><ele>986.0</ele><time>2026-04-19T09:10:07Z</time></trkpt><trkpt lat="45.8166767650376" lon="11.433960474111466"><ele>983.3333333333334</ele><time>2026-04-19T09:10:08Z</time></trkpt><trkpt lat="45.81677249787537" lon="11.434137840080693"><ele>980.6666666666667</ele><time>2026-04-19T09:10:09Z</time></trkpt><trkpt lat="45.816869629070766" lon="11.434316987579892"><ele>978.0</ele><time>2026-04-19T09:10:10Z</time></trkpt><trkpt lat="45.816966542787156" lon="11.434494001925366"><ele>979.25</ele><time>2026-04-19T09:10:11Z</time></trkpt><trkpt lat="45.81705779391683" lon="11.43466067410653"><ele>980.5</ele><time>2026-04-19T09:10:12Z</time></trkpt><trkpt lat="45.81714597504327" lon="11.434785882450067"><ele>981.75</ele><time>2026-04-19T09:10:13Z</time></trkpt><trkpt lat="45.81723171797814" lon="11.434912475519544"><ele>983.0</ele><time>2026-04-19T09:10:14Z</time></trkpt><trkpt lat="45.81731258583919" lon="11.435044117529824"><ele>983.0</ele><time>2026-04-19T09:10:15Z</time></trkpt><trkpt lat="45.81741355902428" lon="11.43512827272834"><ele>983.0</ele><time>2026-04-19T09:10:16Z</time></trkpt><trkpt lat="45.81750694974134" lon="11.435227775169912"><ele>983.0</ele><time>2026-04-19T09:10:17Z</time></trkpt><trkpt lat="45.81760748329759" lon="11.435315676854254"><ele>983.0</ele><time>2026-04-19T09:10:18Z</time></trkpt><trkpt lat="45.81771801063987" lon="11.43540277999438"><ele>982.5999999999999</ele><time>2026-04-19T09:10:19Z</time></trkpt><trkpt lat="45.81781319576016" lon="11.435501636873823"><ele>982.1999999999999</ele><time>2026-04-19T09:10:20Z</time></trkpt><trkpt lat="45.81791548908493" lon="11.435560592760124"><ele>981.8</ele><time>2026-04-19T09:10:21Z</time></trkpt><trkpt lat="45.81799738170618" lon="11.435609784383548"><ele>981.4</ele><time>2026-04-19T09:10:22Z</time></trkpt><trkpt lat="45.818058730282424" lon="11.43564869471732"><ele>981.0</ele><time>2026-04-19T09:10:23Z</time></trkpt><trkpt lat="45.81810724940638" lon="11.435745152485412"><ele>981.0</ele><time>2026-04-19T09:10:25Z</time></trkpt><trkpt lat="45.81803645953043" lon="11.435882839024805"><ele>980.9999999999999</ele><time>2026-04-19T09:10:27.001Z</time></trkpt><trkpt lat="45.81799110443823" lon="11.4360062757786"><ele>980.9999999999999</ele><time>2026-04-19T09:10:28.001Z</time></trkpt><trkpt lat="45.81795084880422" lon="11.436113960963507"><ele>981.0</ele><time>2026-04-19T09:10:29.001Z</time></trkpt><trkpt lat="45.81791111827169" lon="11.436229166367093"><ele>981.0</ele><time>2026-04-19T09:10:30.001Z</time></trkpt><trkpt lat="45.817876291349094" lon="11.436342812179456"><ele>982.4</ele><time>2026-04-19T09:10:31.001Z</time></trkpt><trkpt lat="45.817871219263445" lon="11.436439267685314"><ele>983.8</ele><time>2026-04-19T09:10:32.001Z</time></trkpt><trkpt lat="45.81791623091819" lon="11.436506462325086"><ele>985.1999999999999</ele><time>2026-04-19T09:10:33.001Z</time></trkpt><trkpt lat="45.81798694516709" lon="11.436613966471905"><ele>986.5999999999999</ele><time>2026-04-19T09:10:35.001Z</time></trkpt><trkpt lat="45.81810574141343" lon="11.436758815562214"><ele>988.0</ele><time>2026-04-19T09:10:37.001Z</time></trkpt><trkpt lat="45.81815868726118" lon="11.436821301626042"><ele>988.0</ele><time>2026-04-19T09:10:38.001Z</time></trkpt><trkpt lat="45.81824066297031" lon="11.436917329228818"><ele>988.0</ele><time>2026-04-19T09:10:39.001Z</time></trkpt><trkpt lat="45.818313882104974" lon="11.43699736943391"><ele>988.0</ele><time>2026-04-19T09:10:40.001Z</time></trkpt><trkpt lat="45.81840515383681" lon="11.437097557511073"><ele>988.0</ele><time>2026-04-19T09:10:41.001Z</time></trkpt><trkpt lat="45.818471419128834" lon="11.437190637257716"><ele>988.0</ele><time>2026-04-19T09:10:42.001Z</time></trkpt><trkpt lat="45.81855564952448" lon="11.437302560903971"><ele>989.75</ele><time>2026-04-19T09:10:43.001Z</time></trkpt><trkpt lat="45.818650735215286" lon="11.437382178523327"><ele>991.5</ele><time>2026-04-19T09:10:44.001Z</time></trkpt><trkpt lat="45.818758159794875" lon="11.43749418399378"><ele>993.25</ele><time>2026-04-19T09:10:45.001Z</time></trkpt><trkpt lat="45.818855249079334" lon="11.437593833899829"><ele>995.0</ele><time>2026-04-19T09:10:46Z</time></trkpt><trkpt lat="45.8189280360198" lon="11.437668540607904"><ele>995.0</ele><time>2026-04-19T09:10:47Z</time></trkpt><trkpt lat="45.81904126167719" lon="11.437783893383529"><ele>995.0</ele><time>2026-04-19T09:10:48Z</time></trkpt><trkpt lat="45.819143040681695" lon="11.437885498569761"><ele>995.0</ele><time>2026-04-19T09:10:49Z</time></trkpt><trkpt lat="45.81927864015998" lon="11.438015326121187"><ele>995.0</ele><time>2026-04-19T09:10:50Z</time></trkpt><trkpt lat="45.819381157135844" lon="11.438116950956"><ele>998.75</ele><time>2026-04-19T09:10:51Z</time></trkpt><trkpt lat="45.81951447912108" lon="11.438252358318213"><ele>1002.5</ele><time>2026-04-19T09:10:52Z</time></trkpt><trkpt lat="45.81961496396215" lon="11.43835441495278"><ele>1006.25</ele><time>2026-04-19T09:10:53Z</time></trkpt><trkpt lat="45.81975079140419" lon="11.438480281003688"><ele>1010.0</ele><time>2026-04-19T09:10:54Z</time></trkpt><trkpt lat="45.81984621658258" lon="11.438568107769301"><ele>1010.0</ele><time>2026-04-19T09:10:55Z</time></trkpt><trkpt lat="45.819937138183406" lon="11.43867959672061"><ele>1010.0</ele><time>2026-04-19T09:10:56Z</time></trkpt><trkpt lat="45.82000205632563" lon="11.43881185528873"><ele>1010.0</ele><time>2026-04-19T09:10:57Z</time></trkpt><trkpt lat="45.82008235286391" lon="11.438933835188411"><ele>1010.0</ele><time>2026-04-19T09:10:58Z</time></trkpt><trkpt lat="45.820156906698266" lon="11.439056169370163"><ele>1012.0</ele><time>2026-04-19T09:10:59Z</time></trkpt><trkpt lat="45.82022599062291" lon="11.43919098875324"><ele>1014.0</ele><time>2026-04-19T09:11:00Z</time></trkpt><trkpt lat="45.82028564766296" lon="11.43932629449525"><ele>1016.0</ele><time>2026-04-19T09:11:01Z</time></trkpt><trkpt lat="45.820346243426606" lon="11.439467712374581"><ele>1018.0</ele><time>2026-04-19T09:11:02Z</time></trkpt><trkpt lat="45.82040893218474" lon="11.439614153479878"><ele>1024.25</ele><time>2026-04-19T09:11:03Z</time></trkpt><trkpt lat="45.820477430439475" lon="11.439750869136146"><ele>1030.5</ele><time>2026-04-19T09:11:04Z</time></trkpt><trkpt lat="45.82054033793147" lon="11.439895948384505"><ele>1036.75</ele><time>2026-04-19T09:11:05Z</time></trkpt><trkpt lat="45.82060057561402" lon="11.440037591247947"><ele>1043.0</ele><time>2026-04-19T09:11:06Z</time></trkpt><trkpt lat="45.82070029608999" lon="11.440147732400606"><ele>1043.0</ele><time>2026-04-19T09:11:07Z</time></trkpt><trkpt lat="45.82077613163959" lon="11.440256027504939"><ele>1043.0</ele><time>2026-04-19T09:11:08Z</time></trkpt><trkpt lat="45.820852538360185" lon="11.440376939852444"><ele>1043.0</ele><time>2026-04-19T09:11:09Z</time></trkpt><trkpt lat="45.82091928507375" lon="11.440498448768597"><ele>1043.0</ele><time>2026-04-19T09:11:10Z</time></trkpt><trkpt lat="45.82099669537362" lon="11.440613556144745"><ele>1043.0</ele><time>2026-04-19T09:11:11Z</time></trkpt><trkpt lat="45.82106777664917" lon="11.440718884859365"><ele>1048.0</ele><time>2026-04-19T09:11:12Z</time></trkpt><trkpt lat="45.82127989219255" lon="11.440612035294837"><ele>1053.0</ele><time>2026-04-19T09:11:13Z</time></trkpt><trkpt lat="45.82139954496427" lon="11.440686027932312"><ele>1058.0</ele><time>2026-04-19T09:11:15Z</time></trkpt><trkpt lat="45.82149274229309" lon="11.440663039954936"><ele>1058.0</ele><time>2026-04-19T09:11:16Z</time></trkpt><trkpt lat="45.8216003501748" lon="11.440647180618713"><ele>1058.0</ele><time>2026-04-19T09:11:17Z</time></trkpt><trkpt lat="45.821713179706975" lon="11.44060172331123"><ele>1058.0</ele><time>2026-04-19T09:11:18Z</time></trkpt><trkpt lat="45.82184205392535" lon="11.440575432058735"><ele>1058.0</ele><time>2026-04-19T09:11:19Z</time></trkpt><trkpt lat="45.8219765129087" lon="11.440574912294455"><ele>1060.25</ele><time>2026-04-19T09:11:20Z</time></trkpt><trkpt lat="45.82212613052089" lon="11.44056958263414"><ele>1062.5</ele><time>2026-04-19T09:11:21Z</time></trkpt><trkpt lat="45.822259213219304" lon="11.4405976766436"><ele>1064.75</ele><time>2026-04-19T09:11:22Z</time></trkpt><trkpt lat="45.822382224066686" lon="11.440630023653325"><ele>1067.0</ele><time>2026-04-19T09:11:23Z</time></trkpt><trkpt lat="45.82252745825356" lon="11.440676434491216"><ele>1068.0</ele><time>2026-04-19T09:11:24Z</time></trkpt><trkpt lat="45.82266527182738" lon="11.440711482229833"><ele>1069.0</ele><time>2026-04-19T09:11:25Z</time></trkpt><trkpt lat="45.82279536307792" lon="11.440744896727"><ele>1070.0</ele><time>2026-04-19T09:11:26Z</time></trkpt><trkpt lat="45.82292530980224" lon="11.44078600400726"><ele>1071.0</ele><time>2026-04-19T09:11:27Z</time></trkpt><trkpt lat="45.823038907157155" lon="11.44079735044187"><ele>1071.0</ele><time>2026-04-19T09:11:28Z</time></trkpt><trkpt lat="45.823114583793085" lon="11.440856816633357"><ele>1071.0</ele><time>2026-04-19T09:11:29Z</time></trkpt><trkpt lat="45.823232209724615" lon="11.440897898054788"><ele>1071.0</ele><time>2026-04-19T09:11:30Z</time></trkpt><trkpt lat="45.82337843772868" lon="11.440911696000356"><ele>1071.0</ele><time>2026-04-19T09:11:31Z</time></trkpt><trkpt lat="45.823523325263075" lon="11.440906257687388"><ele>1073.25</ele><time>2026-04-19T09:11:32Z</time></trkpt><trkpt lat="45.8236668781564" lon="11.440898435424355"><ele>1075.5</ele><time>2026-04-19T09:11:33Z</time></trkpt><trkpt lat="45.82378937188442" lon="11.440897135536972"><ele>1077.75</ele><time>2026-04-19T09:11:34Z</time></trkpt><trkpt lat="45.82392742497777" lon="11.440905947496393"><ele>1080.0</ele><time>2026-04-19T09:11:35Z</time></trkpt><trkpt lat="45.824049401226596" lon="11.440920874059364"><ele>1080.0</ele><time>2026-04-19T09:11:36Z</time></trkpt><trkpt lat="45.8241925379194" lon="11.440940859757067"><ele>1080.0</ele><time>2026-04-19T09:11:37Z</time></trkpt><trkpt lat="45.82433985367801" lon="11.440962175034779"><ele>1080.0</ele><time>2026-04-19T09:11:38Z</time></trkpt><trkpt lat="45.824462048132986" lon="11.44098298912878"><ele>1080.0</ele><time>2026-04-19T09:11:39Z</time></trkpt><trkpt lat="45.824558510263145" lon="11.441003523642603"><ele>1082.6</ele><time>2026-04-19T09:11:40Z</time></trkpt><trkpt lat="45.82463076866689" lon="11.44101206629192"><ele>1085.2</ele><time>2026-04-19T09:11:41Z</time></trkpt><trkpt lat="45.824710192153276" lon="11.441065189256744"><ele>1087.8</ele><time>2026-04-19T09:11:42Z</time></trkpt><trkpt lat="45.824789342204575" lon="11.44116829287617"><ele>1090.4</ele><time>2026-04-19T09:11:44Z</time></trkpt><trkpt lat="45.82489375315268" lon="11.44119441963158"><ele>1093.0</ele><time>2026-04-19T09:11:46Z</time></trkpt><trkpt lat="45.82492687814726" lon="11.441085301666227"><ele>1093.0</ele><time>2026-04-19T09:11:47Z</time></trkpt><trkpt lat="45.82495024195388" lon="11.440971941053864"><ele>1093.0</ele><time>2026-04-19T09:11:48Z</time></trkpt><trkpt lat="45.824977947303026" lon="11.440872197144106"><ele>1093.0</ele><time>2026-04-19T09:11:49Z</time></trkpt><trkpt lat="45.825043316767804" lon="11.440745943138431"><ele>1093.0</ele><time>2026-04-19T09:11:50Z</time></trkpt><trkpt lat="45.82509435658217" lon="11.440668890010896"><ele>1093.0</ele><time>2026-04-19T09:11:51Z</time></trkpt><trkpt lat="45.82516703371411" lon="11.440632778638987"><ele>1093.0</ele><time>2026-04-19T09:11:52Z</time></trkpt><trkpt lat="45.825215759800706" lon="11.440569668437373"><ele>1095.0</ele><time>2026-04-19T09:11:53Z</time></trkpt><trkpt lat="45.825266229847195" lon="11.44044626240555"><ele>1097.0</ele><time>2026-04-19T09:11:55Z</time></trkpt><trkpt lat="45.82534944503067" lon="11.440440073645854"><ele>1099.0</ele><time>2026-04-19T09:11:59Z</time></trkpt><trkpt lat="45.825304140383004" lon="11.440596617211439"><ele>1101.0</ele><time>2026-04-19T09:12:01Z</time></trkpt><trkpt lat="45.825300577928715" lon="11.44070197988798"><ele>1103.0</ele><time>2026-04-19T09:12:03Z</time></trkpt><trkpt lat="45.825411913481815" lon="11.44108744281097"><ele>1109.0</ele><time>2026-04-19T09:12:06Z</time></trkpt><trkpt lat="45.82545084776005" lon="11.441333493579128"><ele>1115.0</ele><time>2026-04-19T09:12:07Z</time></trkpt><trkpt lat="45.825454216236885" lon="11.441560179066167"><ele>1121.0</ele><time>2026-04-19T09:12:08Z</time></trkpt><trkpt lat="45.82544545544966" lon="11.441717923526163"><ele>1127.0</ele><time>2026-04-19T09:12:09Z</time></trkpt><trkpt lat="45.82543754021939" lon="11.441826501121533"><ele>1127.0</ele><time>2026-04-19T09:12:10Z</time></trkpt><trkpt lat="45.82543306900974" lon="11.44194004974301"><ele>1127.0</ele><time>2026-04-19T09:12:12Z</time></trkpt><trkpt lat="45.82543401680261" lon="11.442068853937146"><ele>1127.0</ele><time>2026-04-19T09:12:14Z</time></trkpt><trkpt lat="45.82529605503311" lon="11.442711553980525"><ele>1126.4</ele><time>2026-04-19T09:12:17Z</time></trkpt><trkpt lat="45.8252257796828" lon="11.44272700567306"><ele>1125.8000000000002</ele><time>2026-04-19T09:12:18Z</time></trkpt><trkpt lat="45.82538778679579" lon="11.442703981892906"><ele>1125.2</ele><time>2026-04-19T09:12:22Z</time></trkpt><trkpt lat="45.825297986669526" lon="11.442731656040694"><ele>1124.6000000000001</ele><time>2026-04-19T09:12:23Z</time></trkpt><trkpt lat="45.82521787500572" lon="11.442753396474599"><ele>1124.0</ele><time>2026-04-19T09:12:24Z</time></trkpt><trkpt lat="45.82510779013934" lon="11.442807670846754"><ele>1124.0</ele><time>2026-04-19T09:12:25.001Z</time></trkpt><trkpt lat="45.824965951533706" lon="11.442813915962306"><ele>1124.0</ele><time>2026-04-19T09:12:26.001Z</time></trkpt><trkpt lat="45.82488020754194" lon="11.442819286051405"><ele>1124.0</ele><time>2026-04-19T09:12:27.001Z</time></trkpt><trkpt lat="45.824760177400705" lon="11.442817833692759"><ele>1124.0</ele><time>2026-04-19T09:12:28.001Z</time></trkpt><trkpt lat="45.824651617456894" lon="11.442813079248616"><ele>1124.0</ele><time>2026-04-19T09:12:29.001Z</time></trkpt><trkpt lat="45.82449121599824" lon="11.44280076806052"><ele>1124.0</ele><time>2026-04-19T09:12:31.001Z</time></trkpt><trkpt lat="45.8243872187298" lon="11.442781482363312"><ele>1124.0</ele><time>2026-04-19T09:12:32.001Z</time></trkpt><trkpt lat="45.824294572012356" lon="11.442763857373166"><ele>1124.0</ele><time>2026-04-19T09:12:33.001Z</time></trkpt><trkpt lat="45.82417840336572" lon="11.44274368545854"><ele>1125.6000000000001</ele><time>2026-04-19T09:12:34.001Z</time></trkpt><trkpt lat="45.82409580239917" lon="11.442724205839863"><ele>1127.2</ele><time>2026-04-19T09:12:35.001Z</time></trkpt><trkpt lat="45.824024512068284" lon="11.442717446723986"><ele>1128.8000000000002</ele><time>2026-04-19T09:12:36.001Z</time></trkpt><trkpt lat="45.82390871713196" lon="11.442718958312371"><ele>1130.4</ele><time>2026-04-19T09:12:38.001Z</time></trkpt><trkpt lat="45.82379529656635" lon="11.44271983310463"><ele>1132.0</ele><time>2026-04-19T09:12:39.001Z</time></trkpt><trkpt lat="45.823678097833294" lon="11.442735128199105"><ele>1132.0</ele><time>2026-04-19T09:12:40.001Z</time></trkpt><trkpt lat="45.82356829653148" lon="11.442781047397174"><ele>1132.0</ele><time>2026-04-19T09:12:41.001Z</time></trkpt><trkpt lat="45.823468431583656" lon="11.4428084331761"><ele>1132.0</ele><time>2026-04-19T09:12:42.001Z</time></trkpt><trkpt lat="45.82337140065076" lon="11.442841971789102"><ele>1132.0</ele><time>2026-04-19T09:12:43.001Z</time></trkpt><trkpt lat="45.82327556357686" lon="11.442911843846247"><ele>1132.0</ele><time>2026-04-19T09:12:44.001Z</time></trkpt><trkpt lat="45.82320829899406" lon="11.442968087585164"><ele>1137.0</ele><time>2026-04-19T09:12:45.001Z</time></trkpt><trkpt lat="45.823117524965326" lon="11.44305713510229"><ele>1142.0</ele><time>2026-04-19T09:12:46.001Z</time></trkpt><trkpt lat="45.82303883622404" lon="11.443177241788238"><ele>1147.0</ele><time>2026-04-19T09:12:47.001Z</time></trkpt><trkpt lat="45.8229967508018" lon="11.443262462505471"><ele>1152.0</ele><time>2026-04-19T09:12:48.001Z</time></trkpt><trkpt lat="45.822924739721856" lon="11.44340359925105"><ele>1157.0</ele><time>2026-04-19T09:12:50.001Z</time></trkpt><trkpt lat="45.82285809346664" lon="11.443517688239169"><ele>1157.0</ele><time>2026-04-19T09:12:51.001Z</time></trkpt><trkpt lat="45.822776447771616" lon="11.44362542054914"><ele>1157.0</ele><time>2026-04-19T09:12:52Z</time></trkpt><trkpt lat="45.82268795911446" lon="11.443725321691394"><ele>1157.0</ele><time>2026-04-19T09:12:53Z</time></trkpt><trkpt lat="45.82263306368215" lon="11.44383212808027"><ele>1157.0</ele><time>2026-04-19T09:12:54Z</time></trkpt><trkpt lat="45.82258290681149" lon="11.443932296419677"><ele>1157.0</ele><time>2026-04-19T09:12:55Z</time></trkpt><trkpt lat="45.8225411391655" lon="11.444020953231183"><ele>1158.8</ele><time>2026-04-19T09:12:56Z</time></trkpt><trkpt lat="45.82247854905744" lon="11.444171884728823"><ele>1160.6</ele><time>2026-04-19T09:12:57Z</time></trkpt><trkpt lat="45.82244380569281" lon="11.444278361708891"><ele>1162.3999999999999</ele><time>2026-04-19T09:12:58Z</time></trkpt><trkpt lat="45.82240962355923" lon="11.444438680249988"><ele>1164.2</ele><time>2026-04-19T09:12:59Z</time></trkpt><trkpt lat="45.82239138661887" lon="11.444601687073586"><ele>1166.0</ele><time>2026-04-19T09:13:00Z</time></trkpt><trkpt lat="45.822386222731424" lon="11.444756294387508"><ele>1168.5</ele><time>2026-04-19T09:13:01Z</time></trkpt><trkpt lat="45.82238610571849" lon="11.444962374367574"><ele>1171.0</ele><time>2026-04-19T09:13:03Z</time></trkpt><trkpt lat="45.82240573174112" lon="11.44523679625475"><ele>1173.5</ele><time>2026-04-19T09:13:05Z</time></trkpt><trkpt lat="45.8224222218276" lon="11.44538147400313"><ele>1176.0</ele><time>2026-04-19T09:13:06Z</time></trkpt><trkpt lat="45.8224378296511" lon="11.445474687546922"><ele>1177.5</ele><time>2026-04-19T09:13:07Z</time></trkpt><trkpt lat="45.82247078848356" lon="11.445645797872745"><ele>1179.0</ele><time>2026-04-19T09:13:08Z</time></trkpt><trkpt lat="45.82248854994436" lon="11.445812452652024"><ele>1180.5</ele><time>2026-04-19T09:13:09Z</time></trkpt><trkpt lat="45.82254853608546" lon="11.445948638790508"><ele>1182.0</ele><time>2026-04-19T09:13:10Z</time></trkpt><trkpt lat="45.82258016058236" lon="11.446081424261681"><ele>1182.0</ele><time>2026-04-19T09:13:11Z</time></trkpt><trkpt lat="45.82259236785721" lon="11.446237429262087"><ele>1182.0</ele><time>2026-04-19T09:13:12Z</time></trkpt><trkpt lat="45.82260864764395" lon="11.446368766923262"><ele>1182.0</ele><time>2026-04-19T09:13:13Z</time></trkpt><trkpt lat="45.82262260173987" lon="11.446498764250132"><ele>1182.0</ele><time>2026-04-19T09:13:14Z</time></trkpt><trkpt lat="45.822631199086025" lon="11.446632090861037"><ele>1182.0</ele><time>2026-04-19T09:13:15Z</time></trkpt><trkpt lat="45.82264742326334" lon="11.446731571236944"><ele>1186.3333333333333</ele><time>2026-04-19T09:13:16Z</time></trkpt><trkpt lat="45.82266990490573" lon="11.446845873318157"><ele>1190.6666666666667</ele><time>2026-04-19T09:13:17Z</time></trkpt><trkpt lat="45.82269409828236" lon="11.446958626986698"><ele>1195.0</ele><time>2026-04-19T09:13:18Z</time></trkpt><trkpt lat="45.822725102608935" lon="11.447056293154114"><ele>1199.3333333333335</ele><time>2026-04-19T09:13:19Z</time></trkpt><trkpt lat="45.82274781470203" lon="11.44717766411305"><ele>1203.6666666666667</ele><time>2026-04-19T09:13:20Z</time></trkpt><trkpt lat="45.82277531974495" lon="11.447290026262166"><ele>1208.0</ele><time>2026-04-19T09:13:21Z</time></trkpt><trkpt lat="45.82279592795376" lon="11.447393804050567"><ele>1208.4</ele><time>2026-04-19T09:13:22Z</time></trkpt><trkpt lat="45.82284266496399" lon="11.44757753280682"><ele>1208.8</ele><time>2026-04-19T09:13:23Z</time></trkpt><trkpt lat="45.822890182971214" lon="11.44772988758377"><ele>1209.2</ele><time>2026-04-19T09:13:24Z</time></trkpt><trkpt lat="45.822922195395144" lon="11.447850182953434"><ele>1209.6</ele><time>2026-04-19T09:13:25Z</time></trkpt><trkpt lat="45.82294195356588" lon="11.447966179199307"><ele>1210.0</ele><time>2026-04-19T09:13:26Z</time></trkpt><trkpt lat="45.82294953296534" lon="11.448085806904468"><ele>1210.1666666666665</ele><time>2026-04-19T09:13:27Z</time></trkpt><trkpt lat="45.822965200499745" lon="11.448184217395395"><ele>1210.3333333333333</ele><time>2026-04-19T09:13:28Z</time></trkpt><trkpt lat="45.82298886936258" lon="11.448299846460328"><ele>1210.5</ele><time>2026-04-19T09:13:29Z</time></trkpt><trkpt lat="45.82302304114331" lon="11.448406183006725"><ele>1210.6666666666667</ele><time>2026-04-19T09:13:30Z</time></trkpt><trkpt lat="45.823047088555995" lon="11.448508729806216"><ele>1210.8333333333335</ele><time>2026-04-19T09:13:31Z</time></trkpt><trkpt lat="45.82308993242344" lon="11.44868106331407"><ele>1211.0</ele><time>2026-04-19T09:13:33Z</time></trkpt><trkpt lat="45.82302748677874" lon="11.448882330751182"><ele>1212.0</ele><time>2026-04-19T09:13:34Z</time></trkpt><trkpt lat="45.822938459410096" lon="11.448959986287962"><ele>1213.0</ele><time>2026-04-19T09:13:35Z</time></trkpt><trkpt lat="45.82288036492807" lon="11.449059784541163"><ele>1214.0</ele><time>2026-04-19T09:13:36Z</time></trkpt><trkpt lat="45.82286036391899" lon="11.449155519269082"><ele>1215.0</ele><time>2026-04-19T09:13:37Z</time></trkpt><trkpt lat="45.82281810410772" lon="11.449254290523555"><ele>1216.0</ele><time>2026-04-19T09:13:39Z</time></trkpt><trkpt lat="45.82273636746747" lon="11.449310638270662"><ele>1217.0</ele><time>2026-04-19T09:13:41Z</time></trkpt><trkpt lat="45.82270112874855" lon="11.449398698774528"><ele>1217.0</ele><time>2026-04-19T09:13:42Z</time></trkpt><trkpt lat="45.822655011708825" lon="11.449474410948696"><ele>1217.0</ele><time>2026-04-19T09:13:43Z</time></trkpt><trkpt lat="45.82259859676298" lon="11.449547556191405"><ele>1217.0</ele><time>2026-04-19T09:13:44Z</time></trkpt><trkpt lat="45.82252832198831" lon="11.44964774978712"><ele>1217.0</ele><time>2026-04-19T09:13:46Z</time></trkpt><trkpt lat="45.82245564480255" lon="11.449713647445916"><ele>1217.0</ele><time>2026-04-19T09:13:48Z</time></trkpt><trkpt lat="45.82232827587859" lon="11.449809977406696"><ele>1216.0</ele><time>2026-04-19T09:13:50Z</time></trkpt><trkpt lat="45.822251126629276" lon="11.449841383758965"><ele>1215.0</ele><time>2026-04-19T09:13:52Z</time></trkpt><trkpt lat="45.82214070938176" lon="11.449854124249546"><ele>1214.0</ele><time>2026-04-19T09:13:54Z</time></trkpt><trkpt lat="45.82204698484667" lon="11.449781459685708"><ele>1213.0</ele><time>2026-04-19T09:13:56Z</time></trkpt><trkpt lat="45.821972726566365" lon="11.449695893090508"><ele>1212.0</ele><time>2026-04-19T09:13:57Z</time></trkpt><trkpt lat="45.82192212512219" lon="11.44963267690348"><ele>1211.2</ele><time>2026-04-19T09:13:58Z</time></trkpt><trkpt lat="45.8218413460606" lon="11.449540369400365"><ele>1210.4</ele><time>2026-04-19T09:13:59Z</time></trkpt><trkpt lat="45.8217897681338" lon="11.449477073548081"><ele>1209.6</ele><time>2026-04-19T09:14:00Z</time></trkpt><trkpt lat="45.8217334389331" lon="11.449402118488438"><ele>1208.8</ele><time>2026-04-19T09:14:01Z</time></trkpt><trkpt lat="45.82161477189816" lon="11.449223999719027"><ele>1208.0</ele><time>2026-04-19T09:14:02Z</time></trkpt><trkpt lat="45.82156546892306" lon="11.449128747012747"><ele>1208.0</ele><time>2026-04-19T09:14:03Z</time></trkpt><trkpt lat="45.82150784456508" lon="11.448961081758313"><ele>1208.0</ele><time>2026-04-19T09:14:05Z</time></trkpt><trkpt lat="45.82147573284199" lon="11.448831476717954"><ele>1208.0</ele><time>2026-04-19T09:14:06Z</time></trkpt><trkpt lat="45.82140855660797" lon="11.448712647636889"><ele>1208.0</ele><time>2026-04-19T09:14:08Z</time></trkpt><trkpt lat="45.82130986820179" lon="11.448602472479976"><ele>1207.75</ele><time>2026-04-19T09:14:10.001Z</time></trkpt><trkpt lat="45.82125281418423" lon="11.448519088032333"><ele>1207.5</ele><time>2026-04-19T09:14:11.001Z</time></trkpt><trkpt lat="45.821110495744925" lon="11.448350897721701"><ele>1207.25</ele><time>2026-04-19T09:14:13.001Z</time></trkpt><trkpt lat="45.82100483383212" lon="11.44824374730393"><ele>1207.0</ele><time>2026-04-19T09:14:14.001Z</time></trkpt><trkpt lat="45.820916439314544" lon="11.448158209376901"><ele>1207.0</ele><time>2026-04-19T09:14:15.001Z</time></trkpt><trkpt lat="45.82084247700475" lon="11.44809410958829"><ele>1207.0</ele><time>2026-04-19T09:14:16.001Z</time></trkpt><trkpt lat="45.82075654675302" lon="11.448041440145538"><ele>1207.0</ele><time>2026-04-19T09:14:17.001Z</time></trkpt><trkpt lat="45.82066599182204" lon="11.447990108851586"><ele>1207.0</ele><time>2026-04-19T09:14:18.001Z</time></trkpt><trkpt lat="45.8205964149291" lon="11.447938864577656"><ele>1207.0</ele><time>2026-04-19T09:14:19.001Z</time></trkpt><trkpt lat="45.820520797338176" lon="11.447890522694733"><ele>1207.0</ele><time>2026-04-19T09:14:20.001Z</time></trkpt><trkpt lat="45.820436800219404" lon="11.447876522185744"><ele>1207.0</ele><time>2026-04-19T09:14:21.001Z</time></trkpt><trkpt lat="45.82037346581378" lon="11.447844789291802"><ele>1207.0</ele><time>2026-04-19T09:14:22.001Z</time></trkpt><trkpt lat="45.82029546248715" lon="11.44786445246157"><ele>1207.0</ele><time>2026-04-19T09:14:23.001Z</time></trkpt><trkpt lat="45.820160284293515" lon="11.447877147193338"><ele>1207.0</ele><time>2026-04-19T09:14:25.001Z</time></trkpt><trkpt lat="45.82007649725205" lon="11.447920571274251"><ele>1207.0</ele><time>2026-04-19T09:14:26.001Z</time></trkpt><trkpt lat="45.81994900234215" lon="11.44799579039638"><ele>1207.0</ele><time>2026-04-19T09:14:27.001Z</time></trkpt><trkpt lat="45.81979875460987" lon="11.448043800461841"><ele>1207.0</ele><time>2026-04-19T09:14:28.001Z</time></trkpt><trkpt lat="45.81968108570379" lon="11.448071401805715"><ele>1207.0</ele><time>2026-04-19T09:14:29.001Z</time></trkpt><trkpt lat="45.819548606564425" lon="11.448119984327917"><ele>1207.0</ele><time>2026-04-19T09:14:30.001Z</time></trkpt><trkpt lat="45.81945238682244" lon="11.448133050961959"><ele>1207.0</ele><time>2026-04-19T09:14:31.001Z</time></trkpt><trkpt lat="45.81935249741692" lon="11.448149307409166"><ele>1207.0</ele><time>2026-04-19T09:14:32.001Z</time></trkpt><trkpt lat="45.819266020012584" lon="11.448177486372504"><ele>1207.0</ele><time>2026-04-19T09:14:33.001Z</time></trkpt><trkpt lat="45.81912883183427" lon="11.448217976453794"><ele>1207.0</ele><time>2026-04-19T09:14:34.001Z</time></trkpt><trkpt lat="45.81900709705946" lon="11.448245779670506"><ele>1205.4</ele><time>2026-04-19T09:14:35.001Z</time></trkpt><trkpt lat="45.81890014166583" lon="11.448272468305142"><ele>1203.8000000000002</ele><time>2026-04-19T09:14:36.001Z</time></trkpt><trkpt lat="45.81881202449771" lon="11.44827673085076"><ele>1202.2</ele><time>2026-04-19T09:14:37.001Z</time></trkpt><trkpt lat="45.818728818375035" lon="11.448291886286821"><ele>1200.6000000000001</ele><time>2026-04-19T09:14:38.001Z</time></trkpt><trkpt lat="45.81862600991319" lon="11.448295905066304"><ele>1199.0</ele><time>2026-04-19T09:14:39.001Z</time></trkpt><trkpt lat="45.81853218498773" lon="11.4483022945407"><ele>1197.8</ele><time>2026-04-19T09:14:40.001Z</time></trkpt><trkpt lat="45.81843732340204" lon="11.448304842508472"><ele>1196.6000000000001</ele><time>2026-04-19T09:14:41.001Z</time></trkpt><trkpt lat="45.81833725694654" lon="11.44832736215868"><ele>1195.4</ele><time>2026-04-19T09:14:42.001Z</time></trkpt><trkpt lat="45.818244688437915" lon="11.448362990677794"><ele>1194.2</ele><time>2026-04-19T09:14:43.001Z</time></trkpt><trkpt lat="45.81814877845613" lon="11.44838268752336"><ele>1193.0</ele><time>2026-04-19T09:14:44.001Z</time></trkpt><trkpt lat="45.81805814954196" lon="11.448377799933024"><ele>1193.0</ele><time>2026-04-19T09:14:45.001Z</time></trkpt><trkpt lat="45.81796614504159" lon="11.448362485271932"><ele>1193.0</ele><time>2026-04-19T09:14:46.001Z</time></trkpt><trkpt lat="45.817856989456" lon="11.448360929535232"><ele>1193.0</ele><time>2026-04-19T09:14:47.001Z</time></trkpt><trkpt lat="45.817756849854845" lon="11.448377402327093"><ele>1193.0</ele><time>2026-04-19T09:14:48.001Z</time></trkpt><trkpt lat="45.81767904570903" lon="11.448415442654479"><ele>1193.0</ele><time>2026-04-19T09:14:49.001Z</time></trkpt><trkpt lat="45.81759136726026" lon="11.448443143332986"><ele>1191.5</ele><time>2026-04-19T09:14:50.001Z</time></trkpt><trkpt lat="45.81750059843343" lon="11.448448634885246"><ele>1190.0</ele><time>2026-04-19T09:14:51.001Z</time></trkpt><trkpt lat="45.8173863690173" lon="11.448507324882378"><ele>1188.5</ele><time>2026-04-19T09:14:52.001Z</time></trkpt><trkpt lat="45.81723944856134" lon="11.448608552906173"><ele>1187.0</ele><time>2026-04-19T09:14:53.001Z</time></trkpt><trkpt lat="45.81713885826645" lon="11.448638666971046"><ele>1187.0</ele><time>2026-04-19T09:14:54.001Z</time></trkpt><trkpt lat="45.8170467587434" lon="11.448648156414283"><ele>1187.0</ele><time>2026-04-19T09:14:55.001Z</time></trkpt><trkpt lat="45.8169526801388" lon="11.44865159992096"><ele>1187.0</ele><time>2026-04-19T09:14:56.001Z</time></trkpt><trkpt lat="45.81684837734588" lon="11.448651269810437"><ele>1187.0</ele><time>2026-04-19T09:14:57.001Z</time></trkpt><trkpt lat="45.81674338969339" lon="11.448650261700829"><ele>1187.0</ele><time>2026-04-19T09:14:58Z</time></trkpt><trkpt lat="45.81663781935091" lon="11.448645764334714"><ele>1187.1666666666667</ele><time>2026-04-19T09:14:59Z</time></trkpt><trkpt lat="45.816550915336165" lon="11.448628409741666"><ele>1187.3333333333335</ele><time>2026-04-19T09:15:00Z</time></trkpt><trkpt lat="45.816458860542326" lon="11.448602612556652"><ele>1187.5</ele><time>2026-04-19T09:15:01Z</time></trkpt><trkpt lat="45.816393020533845" lon="11.44861462363221"><ele>1187.6666666666667</ele><time>2026-04-19T09:15:02Z</time></trkpt><trkpt lat="45.8163264872363" lon="11.44862363951981"><ele>1187.8333333333333</ele><time>2026-04-19T09:15:03Z</time></trkpt><trkpt lat="45.8161951097421" lon="11.448665783649378"><ele>1188.0</ele><time>2026-04-19T09:15:05Z</time></trkpt><trkpt lat="45.816096917267224" lon="11.448734821202962"><ele>1188.75</ele><time>2026-04-19T09:15:07Z</time></trkpt><trkpt lat="45.81603423544218" lon="11.448834911120736"><ele>1189.5</ele><time>2026-04-19T09:15:09Z</time></trkpt><trkpt lat="45.81601967160624" lon="11.448979009637648"><ele>1190.25</ele><time>2026-04-19T09:15:11Z</time></trkpt><trkpt lat="45.81600201175755" lon="11.449109590185055"><ele>1191.0</ele><time>2026-04-19T09:15:12Z</time></trkpt><trkpt lat="45.815975311734505" lon="11.449349293807677"><ele>1191.0</ele><time>2026-04-19T09:15:13Z</time></trkpt><trkpt lat="45.8159335864842" lon="11.449502024164563"><ele>1191.0</ele><time>2026-04-19T09:15:14Z</time></trkpt><trkpt lat="45.815880151545194" lon="11.449643566522571"><ele>1191.0</ele><time>2026-04-19T09:15:15Z</time></trkpt><trkpt lat="45.815794661859115" lon="11.449822203269665"><ele>1191.0</ele><time>2026-04-19T09:15:16Z</time></trkpt><trkpt lat="45.81576756222197" lon="11.450001578155069"><ele>1192.3333333333333</ele><time>2026-04-19T09:15:17Z</time></trkpt><trkpt lat="45.81567156284618" lon="11.45020389202801"><ele>1193.6666666666665</ele><time>2026-04-19T09:15:18Z</time></trkpt><trkpt lat="45.81556701334235" lon="11.450410770955704"><ele>1195.0</ele><time>2026-04-19T09:15:19Z</time></trkpt><trkpt lat="45.815488289312285" lon="11.450581928218424"><ele>1197.3333333333333</ele><time>2026-04-19T09:15:20Z</time></trkpt><trkpt lat="45.81539170287361" lon="11.450778455098863"><ele>1199.6666666666667</ele><time>2026-04-19T09:15:21Z</time></trkpt><trkpt lat="45.81529927578804" lon="11.450964519653624"><ele>1202.0</ele><time>2026-04-19T09:15:22Z</time></trkpt><trkpt lat="45.81523108291297" lon="11.451114199510647"><ele>1204.6666666666667</ele><time>2026-04-19T09:15:23Z</time></trkpt><trkpt lat="45.81520838023978" lon="11.451365102744589"><ele>1207.3333333333333</ele><time>2026-04-19T09:15:24Z</time></trkpt><trkpt lat="45.81513128824807" lon="11.45148113582362"><ele>1210.0</ele><time>2026-04-19T09:15:26Z</time></trkpt><trkpt lat="45.814960801377524" lon="11.451382116118467"><ele>1210.0</ele><time>2026-04-19T09:15:27Z</time></trkpt><trkpt lat="45.815031390823115" lon="11.45157339295691"><ele>1210.0</ele><time>2026-04-19T09:15:28Z</time></trkpt><trkpt lat="45.814959376520925" lon="11.451433649156849"><ele>1210.0</ele><time>2026-04-19T09:15:30Z</time></trkpt><trkpt lat="45.81490209044988" lon="11.451480196834751"><ele>1210.0</ele><time>2026-04-19T09:15:32Z</time></trkpt><trkpt lat="45.81483821250785" lon="11.451467143362374"><ele>1210.0</ele><time>2026-04-19T09:15:33Z</time></trkpt><trkpt lat="45.81472852551472" lon="11.451542671245834"><ele>1210.0</ele><time>2026-04-19T09:15:35Z</time></trkpt><trkpt lat="45.81459690308793" lon="11.451624149598354"><ele>1210.0</ele><time>2026-04-19T09:15:37Z</time></trkpt><trkpt lat="45.81447680658392" lon="11.45170080850479"><ele>1210.0</ele><time>2026-04-19T09:15:38Z</time></trkpt><trkpt lat="45.81438317309222" lon="11.451723441490566"><ele>1210.0</ele><time>2026-04-19T09:15:39Z</time></trkpt><trkpt lat="45.814297207405886" lon="11.451757338068935"><ele>1210.3333333333333</ele><time>2026-04-19T09:15:40Z</time></trkpt><trkpt lat="45.814210387828886" lon="11.45179322060009"><ele>1210.6666666666665</ele><time>2026-04-19T09:15:41Z</time></trkpt><trkpt lat="45.814126562291996" lon="11.451834747325329"><ele>1211.0</ele><time>2026-04-19T09:15:42Z</time></trkpt><trkpt lat="45.814048682670595" lon="11.451877879910517"><ele>1211.3333333333333</ele><time>2026-04-19T09:15:43Z</time></trkpt><trkpt lat="45.81396102938668" lon="11.45192016541692"><ele>1211.6666666666667</ele><time>2026-04-19T09:15:44Z</time></trkpt><trkpt lat="45.81388535936916" lon="11.451905002668687"><ele>1212.0</ele><time>2026-04-19T09:15:45Z</time></trkpt><trkpt lat="45.813822339713354" lon="11.451887503414735"><ele>1212.0</ele><time>2026-04-19T09:15:47Z</time></trkpt><trkpt lat="45.81367109949373" lon="11.451807860114451"><ele>1212.0</ele><time>2026-04-19T09:15:49Z</time></trkpt><trkpt lat="45.81360724788339" lon="11.451713628797588"><ele>1212.0</ele><time>2026-04-19T09:15:50Z</time></trkpt><trkpt lat="45.81356969241455" lon="11.451634328876619"><ele>1212.0</ele><time>2026-04-19T09:15:51Z</time></trkpt><trkpt lat="45.81357193567285" lon="11.451404504598568"><ele>1212.0</ele><time>2026-04-19T09:15:52Z</time></trkpt><trkpt lat="45.813558544457145" lon="11.451276323723214"><ele>1212.0</ele><time>2026-04-19T09:15:54Z</time></trkpt><trkpt lat="45.81350058686963" lon="11.451199573834716"><ele>1212.0</ele><time>2026-04-19T09:15:56Z</time></trkpt><trkpt lat="45.81345871950692" lon="11.451280750265568"><ele>1212.0</ele><time>2026-04-19T09:15:58Z</time></trkpt><trkpt lat="45.8133992293262" lon="11.451404842573156"><ele>1212.0</ele><time>2026-04-19T09:16:00Z</time></trkpt><trkpt lat="45.81333518127338" lon="11.451500131343671"><ele>1212.0</ele><time>2026-04-19T09:16:02Z</time></trkpt><trkpt lat="45.813448844682156" lon="11.451846683425051"><ele>1212.0</ele><time>2026-04-19T09:16:03Z</time></trkpt><trkpt lat="45.81346753424339" lon="11.451948327280926"><ele>1212.0</ele><time>2026-04-19T09:16:04Z</time></trkpt><trkpt lat="45.813505246946654" lon="11.452091878110812"><ele>1212.0</ele><time>2026-04-19T09:16:06.001Z</time></trkpt><trkpt lat="45.813551834224036" lon="11.452173412691408"><ele>1212.0</ele><time>2026-04-19T09:16:07.001Z</time></trkpt><trkpt lat="45.81358628151241" lon="11.452261969920771"><ele>1212.0</ele><time>2026-04-19T09:16:08.001Z</time></trkpt><trkpt lat="45.81361691971581" lon="11.452342766807755"><ele>1212.0</ele><time>2026-04-19T09:16:09.001Z</time></trkpt><trkpt lat="45.81366212535951" lon="11.452454278854873"><ele>1214.8</ele><time>2026-04-19T09:16:11.001Z</time></trkpt><trkpt lat="45.81370051023773" lon="11.452606911296526"><ele>1217.6</ele><time>2026-04-19T09:16:13.001Z</time></trkpt><trkpt lat="45.81362110009191" lon="11.45277759536004"><ele>1220.3999999999999</ele><time>2026-04-19T09:16:15.001Z</time></trkpt><trkpt lat="45.81357337679865" lon="11.452909056876683"><ele>1223.2</ele><time>2026-04-19T09:16:17.001Z</time></trkpt><trkpt lat="45.813546091657216" lon="11.452995785230312"><ele>1226.0</ele><time>2026-04-19T09:16:18.001Z</time></trkpt><trkpt lat="45.81351483975534" lon="11.453123688011566"><ele>1228.1666666666667</ele><time>2026-04-19T09:16:19.001Z</time></trkpt><trkpt lat="45.813541357811935" lon="11.453241012924723"><ele>1230.3333333333335</ele><time>2026-04-19T09:16:20.001Z</time></trkpt><trkpt lat="45.813559111074234" lon="11.45333431778667"><ele>1232.5</ele><time>2026-04-19T09:16:21.001Z</time></trkpt><trkpt lat="45.81350721679453" lon="11.453437859524122"><ele>1234.6666666666667</ele><time>2026-04-19T09:16:22.001Z</time></trkpt><trkpt lat="45.81346940422298" lon="11.453545533821936"><ele>1236.8333333333333</ele><time>2026-04-19T09:16:23.001Z</time></trkpt><trkpt lat="45.813441555803855" lon="11.45363008074178"><ele>1239.0</ele><time>2026-04-19T09:16:24.001Z</time></trkpt><trkpt lat="45.8134052222658" lon="11.453743083241626"><ele>1239.0</ele><time>2026-04-19T09:16:25.001Z</time></trkpt><trkpt lat="45.81356593653432" lon="11.453779728522461"><ele>1239.0</ele><time>2026-04-19T09:16:28.001Z</time></trkpt><trkpt lat="45.8136831061921" lon="11.453980713684707"><ele>1239.0</ele><time>2026-04-19T09:16:30.001Z</time></trkpt><trkpt lat="45.81380604329377" lon="11.45405067501187"><ele>1242.75</ele><time>2026-04-19T09:16:31.001Z</time></trkpt><trkpt lat="45.813906217626965" lon="11.454077737036311"><ele>1246.5</ele><time>2026-04-19T09:16:32.001Z</time></trkpt><trkpt lat="45.81406578144334" lon="11.454041114618452"><ele>1250.25</ele><time>2026-04-19T09:16:33.001Z</time></trkpt><trkpt lat="45.81419269078055" lon="11.454005197013755"><ele>1254.0</ele><time>2026-04-19T09:16:34.001Z</time></trkpt><trkpt lat="45.81429310595728" lon="11.453944769557106"><ele>1253.2</ele><time>2026-04-19T09:16:35.001Z</time></trkpt><trkpt lat="45.814393768569964" lon="11.453918084235225"><ele>1252.4</ele><time>2026-04-19T09:16:36.001Z</time></trkpt><trkpt lat="45.81448002108856" lon="11.453852939807895"><ele>1251.6</ele><time>2026-04-19T09:16:37.001Z</time></trkpt><trkpt lat="45.8145665891025" lon="11.453755338693556"><ele>1250.8</ele><time>2026-04-19T09:16:38.001Z</time></trkpt><trkpt lat="45.81463684583683" lon="11.453646978660347"><ele>1250.0</ele><time>2026-04-19T09:16:40.001Z</time></trkpt><trkpt lat="45.81463622050203" lon="11.45377356395195"><ele>1254.2</ele><time>2026-04-19T09:16:43.001Z</time></trkpt><trkpt lat="45.81461471716809" lon="11.453887289483275"><ele>1258.4</ele><time>2026-04-19T09:16:45.001Z</time></trkpt><trkpt lat="45.81455331574278" lon="11.454000069982197"><ele>1262.6</ele><time>2026-04-19T09:16:47.001Z</time></trkpt><trkpt lat="45.814502192716" lon="11.454132204071575"><ele>1266.8</ele><time>2026-04-19T09:16:49.001Z</time></trkpt><trkpt lat="45.814453811792184" lon="11.454233514320466"><ele>1271.0</ele><time>2026-04-19T09:16:50.001Z</time></trkpt><trkpt lat="45.814373444793084" lon="11.45439171347511"><ele>1271.0</ele><time>2026-04-19T09:16:51.001Z</time></trkpt><trkpt lat="45.81432945838057" lon="11.45450116280481"><ele>1271.0</ele><time>2026-04-19T09:16:52.001Z</time></trkpt><trkpt lat="45.81420833450772" lon="11.454622201887142"><ele>1271.0</ele><time>2026-04-19T09:16:53.001Z</time></trkpt><trkpt lat="45.81414885053764" lon="11.454695118440197"><ele>1271.0</ele><time>2026-04-19T09:16:54.001Z</time></trkpt><trkpt lat="45.81409108200219" lon="11.45475811365565"><ele>1271.0</ele><time>2026-04-19T09:16:55.001Z</time></trkpt><trkpt lat="45.814051702432025" lon="11.454862385625468"><ele>1271.0</ele><time>2026-04-19T09:16:56.001Z</time></trkpt><trkpt lat="45.81403762150683" lon="11.45497981659204"><ele>1271.0</ele><time>2026-04-19T09:16:57.001Z</time></trkpt><trkpt lat="45.814042248145185" lon="11.455117852310153"><ele>1271.0</ele><time>2026-04-19T09:16:59.001Z</time></trkpt><trkpt lat="45.81410447492638" lon="11.45529499012133"><ele>1271.0</ele><time>2026-04-19T09:17:01.001Z</time></trkpt><trkpt lat="45.81405452535934" lon="11.455406960360213"><ele>1271.0</ele><time>2026-04-19T09:17:02.001Z</time></trkpt><trkpt lat="45.81403247837525" lon="11.455534976263165"><ele>1273.5</ele><time>2026-04-19T09:17:03.001Z</time></trkpt><trkpt lat="45.81401502885393" lon="11.455635779561227"><ele>1276.0</ele><time>2026-04-19T09:17:04Z</time></trkpt><trkpt lat="45.81401252635546" lon="11.455729821124352"><ele>1278.5</ele><time>2026-04-19T09:17:05Z</time></trkpt><trkpt lat="45.81401720421923" lon="11.455845140307774"><ele>1281.0</ele><time>2026-04-19T09:17:06Z</time></trkpt><trkpt lat="45.81402526285498" lon="11.455948252007119"><ele>1283.5</ele><time>2026-04-19T09:17:07Z</time></trkpt><trkpt lat="45.81399973550785" lon="11.456065946107671"><ele>1286.0</ele><time>2026-04-19T09:17:09Z</time></trkpt><trkpt lat="45.813940028176276" lon="11.456138045588304"><ele>1286.0</ele><time>2026-04-19T09:17:10Z</time></trkpt><trkpt lat="45.813893354849036" lon="11.456211678075375"><ele>1286.0</ele><time>2026-04-19T09:17:11Z</time></trkpt><trkpt lat="45.81384437438216" lon="11.456285860610748"><ele>1286.0</ele><time>2026-04-19T09:17:12Z</time></trkpt><trkpt lat="45.813722319156426" lon="11.456372638150334"><ele>1286.0</ele><time>2026-04-19T09:17:13Z</time></trkpt><trkpt lat="45.81364756035823" lon="11.456371173720182"><ele>1286.0</ele><time>2026-04-19T09:17:14Z</time></trkpt><trkpt lat="45.81356945889767" lon="11.456435286211969"><ele>1286.0</ele><time>2026-04-19T09:17:15Z</time></trkpt><trkpt lat="45.81349580127093" lon="11.456463623217816"><ele>1287.0</ele><time>2026-04-19T09:17:16Z</time></trkpt><trkpt lat="45.81339216168381" lon="11.456515731506654"><ele>1288.0</ele><time>2026-04-19T09:17:18Z</time></trkpt><trkpt lat="45.81329311900584" lon="11.456484682029618"><ele>1289.0</ele><time>2026-04-19T09:17:19Z</time></trkpt><trkpt lat="45.813219404952775" lon="11.456459082099151"><ele>1290.0</ele><time>2026-04-19T09:17:20Z</time></trkpt><trkpt lat="45.81315170607964" lon="11.456369767842546"><ele>1291.0</ele><time>2026-04-19T09:17:21Z</time></trkpt><trkpt lat="45.81311665930314" lon="11.456181827155929"><ele>1288.2</ele><time>2026-04-19T09:17:23Z</time></trkpt><trkpt lat="45.81309201975379" lon="11.456072436823538"><ele>1285.3999999999999</ele><time>2026-04-19T09:17:24Z</time></trkpt><trkpt lat="45.81308044648783" lon="11.455859833349681"><ele>1282.6</ele><time>2026-04-19T09:17:25Z</time></trkpt><trkpt lat="45.81304645854108" lon="11.455727614458288"><ele>1279.8</ele><time>2026-04-19T09:17:27Z</time></trkpt><trkpt lat="45.81302027609121" lon="11.455637033234979"><ele>1277.0</ele><time>2026-04-19T09:17:28Z</time></trkpt><trkpt lat="45.812990807579204" lon="11.455546614499518"><ele>1277.0</ele><time>2026-04-19T09:17:29Z</time></trkpt><trkpt lat="45.81295943668864" lon="11.455455519048488"><ele>1277.0</ele><time>2026-04-19T09:17:30Z</time></trkpt><trkpt lat="45.812876776221124" lon="11.455315308473647"><ele>1277.0</ele><time>2026-04-19T09:17:32Z</time></trkpt><trkpt lat="45.81276074781409" lon="11.455212532415747"><ele>1277.0</ele><time>2026-04-19T09:17:34Z</time></trkpt><trkpt lat="45.81267189075347" lon="11.45518403257475"><ele>1277.0</ele><time>2026-04-19T09:17:35Z</time></trkpt><trkpt lat="45.81256649503828" lon="11.455153577235953"><ele>1278.2</ele><time>2026-04-19T09:17:36Z</time></trkpt><trkpt lat="45.812489610613376" lon="11.455107805112348"><ele>1279.4</ele><time>2026-04-19T09:17:37Z</time></trkpt><trkpt lat="45.81241128781192" lon="11.455085470186498"><ele>1280.6000000000001</ele><time>2026-04-19T09:17:38Z</time></trkpt><trkpt lat="45.81232347139891" lon="11.455045740602182"><ele>1281.8000000000002</ele><time>2026-04-19T09:17:39Z</time></trkpt><trkpt lat="45.81223646715392" lon="11.454997844763154"><ele>1283.0</ele><time>2026-04-19T09:17:40Z</time></trkpt><trkpt lat="45.812111084706196" lon="11.454977591907884"><ele>1283.0</ele><time>2026-04-19T09:17:41Z</time></trkpt><trkpt lat="45.81189681195328" lon="11.455022040941872"><ele>1283.0</ele><time>2026-04-19T09:17:42Z</time></trkpt><trkpt lat="45.81176375925762" lon="11.454984222532957"><ele>1283.0</ele><time>2026-04-19T09:17:43Z</time></trkpt><trkpt lat="45.8115731605858" lon="11.45491502384028"><ele>1282.5</ele><time>2026-04-19T09:17:44Z</time></trkpt><trkpt lat="45.81147038235059" lon="11.454835908468864"><ele>1282.0</ele><time>2026-04-19T09:17:45Z</time></trkpt><trkpt lat="45.811343884687666" lon="11.454753768681545"><ele>1281.5</ele><time>2026-04-19T09:17:47Z</time></trkpt><trkpt lat="45.81125374225452" lon="11.454660147016323"><ele>1281.0</ele><time>2026-04-19T09:17:48Z</time></trkpt><trkpt lat="45.81115215893604" lon="11.454541536369748"><ele>1281.0</ele><time>2026-04-19T09:17:49Z</time></trkpt><trkpt lat="45.8110502989998" lon="11.454425250359177"><ele>1281.0</ele><time>2026-04-19T09:17:50Z</time></trkpt><trkpt lat="45.81096696145579" lon="11.454308495391503"><ele>1281.0</ele><time>2026-04-19T09:17:51Z</time></trkpt><trkpt lat="45.81088439839331" lon="11.454158039314295"><ele>1281.0</ele><time>2026-04-19T09:17:52Z</time></trkpt><trkpt lat="45.81078753949131" lon="11.45404312786513"><ele>1284.25</ele><time>2026-04-19T09:17:53Z</time></trkpt><trkpt lat="45.810674575673694" lon="11.453904134358172"><ele>1287.5</ele><time>2026-04-19T09:17:54Z</time></trkpt><trkpt lat="45.81056750538371" lon="11.453830492256364"><ele>1290.75</ele><time>2026-04-19T09:17:55Z</time></trkpt><trkpt lat="45.810497779206365" lon="11.453755586924306"><ele>1294.0</ele><time>2026-04-19T09:17:56Z</time></trkpt><trkpt lat="45.81044325857979" lon="11.453622647168189"><ele>1294.0</ele><time>2026-04-19T09:17:57Z</time></trkpt><trkpt lat="45.810342019069154" lon="11.45356533967577"><ele>1294.0</ele><time>2026-04-19T09:17:58Z</time></trkpt><trkpt lat="45.81021628963058" lon="11.453430914149815"><ele>1294.0</ele><time>2026-04-19T09:17:59Z</time></trkpt><trkpt lat="45.81009068733095" lon="11.45336109695632"><ele>1294.0</ele><time>2026-04-19T09:18:00Z</time></trkpt><trkpt lat="45.80998965589519" lon="11.453318619078866"><ele>1296.6666666666665</ele><time>2026-04-19T09:18:01Z</time></trkpt><trkpt lat="45.809914547716126" lon="11.453265976091798"><ele>1299.3333333333333</ele><time>2026-04-19T09:18:02Z</time></trkpt><trkpt lat="45.809832389556085" lon="11.453218959471357"><ele>1302.0</ele><time>2026-04-19T09:18:03Z</time></trkpt><trkpt lat="45.809774106295734" lon="11.4531832088629"><ele>1304.6666666666667</ele><time>2026-04-19T09:18:04Z</time></trkpt><trkpt lat="45.80971289044247" lon="11.453120747292715"><ele>1307.3333333333335</ele><time>2026-04-19T09:18:06Z</time></trkpt><trkpt lat="45.80963945424072" lon="11.453111725309688"><ele>1310.0</ele><time>2026-04-19T09:18:10Z</time></trkpt><trkpt lat="45.809561230152205" lon="11.453116444791998"><ele>1310.0</ele><time>2026-04-19T09:18:12Z</time></trkpt><trkpt lat="45.8094873740246" lon="11.453088357689962"><ele>1310.0</ele><time>2026-04-19T09:18:13Z</time></trkpt><trkpt lat="45.80940122465678" lon="11.453044378881923"><ele>1310.0</ele><time>2026-04-19T09:18:14Z</time></trkpt><trkpt lat="45.809327297569595" lon="11.452995255945458"><ele>1310.0</ele><time>2026-04-19T09:18:15.001Z</time></trkpt><trkpt lat="45.80922759502155" lon="11.452920452657311"><ele>1310.0</ele><time>2026-04-19T09:18:16.001Z</time></trkpt><trkpt lat="45.80915394026871" lon="11.452817928469846"><ele>1310.5</ele><time>2026-04-19T09:18:17.001Z</time></trkpt><trkpt lat="45.8090784730064" lon="11.452759138882152"><ele>1311.0</ele><time>2026-04-19T09:18:18.001Z</time></trkpt><trkpt lat="45.808997018520444" lon="11.452736433907226"><ele>1311.5</ele><time>2026-04-19T09:18:19.001Z</time></trkpt><trkpt lat="45.80891510954357" lon="11.4527156856216"><ele>1312.0</ele><time>2026-04-19T09:18:20.001Z</time></trkpt><trkpt lat="45.808842806657914" lon="11.452698648464308"><ele>1312.5</ele><time>2026-04-19T09:18:21.001Z</time></trkpt><trkpt lat="45.808780237923486" lon="11.452688596031887"><ele>1313.0</ele><time>2026-04-19T09:18:22.001Z</time></trkpt><trkpt lat="45.808715806049314" lon="11.45271263902362"><ele>1313.0</ele><time>2026-04-19T09:18:23.001Z</time></trkpt><trkpt lat="45.80859561726003" lon="11.452763167899645"><ele>1313.0</ele><time>2026-04-19T09:18:25.001Z</time></trkpt><trkpt lat="45.808521744357634" lon="11.452785690705984"><ele>1313.0</ele><time>2026-04-19T09:18:26.001Z</time></trkpt><trkpt lat="45.80844534945392" lon="11.45280657692326"><ele>1313.0</ele><time>2026-04-19T09:18:27.001Z</time></trkpt><trkpt lat="45.80838126013025" lon="11.452838774064608"><ele>1313.0</ele><time>2026-04-19T09:18:28.001Z</time></trkpt><trkpt lat="45.80825167775375" lon="11.452878690999478"><ele>1312.8000000000002</ele><time>2026-04-19T09:18:30.001Z</time></trkpt><trkpt lat="45.80818549792414" lon="11.452895041514045"><ele>1312.6</ele><time>2026-04-19T09:18:31.001Z</time></trkpt><trkpt lat="45.80809066306397" lon="11.45292325719818"><ele>1312.4</ele><time>2026-04-19T09:18:32.001Z</time></trkpt><trkpt lat="45.80799034644832" lon="11.452949666528687"><ele>1312.1999999999998</ele><time>2026-04-19T09:18:33.001Z</time></trkpt><trkpt lat="45.807890011341634" lon="11.452939068754064"><ele>1312.0</ele><time>2026-04-19T09:18:34.001Z</time></trkpt><trkpt lat="45.80779935477275" lon="11.452962443448033"><ele>1307.6666666666665</ele><time>2026-04-19T09:18:35.001Z</time></trkpt><trkpt lat="45.807713065333274" lon="11.452979460195147"><ele>1303.3333333333333</ele><time>2026-04-19T09:18:36.001Z</time></trkpt><trkpt lat="45.807633797415036" lon="11.452992620758483"><ele>1299.0</ele><time>2026-04-19T09:18:37.001Z</time></trkpt><trkpt lat="45.80755386326817" lon="11.453016040349599"><ele>1294.6666666666667</ele><time>2026-04-19T09:18:38.001Z</time></trkpt><trkpt lat="45.80747044905073" lon="11.45302580289779"><ele>1290.3333333333335</ele><time>2026-04-19T09:18:39.001Z</time></trkpt><trkpt lat="45.807401451772414" lon="11.453037140192881"><ele>1286.0</ele><time>2026-04-19T09:18:40.001Z</time></trkpt><trkpt lat="45.807334907826444" lon="11.453073473188718"><ele>1285.8</ele><time>2026-04-19T09:18:41.001Z</time></trkpt><trkpt lat="45.807234998182594" lon="11.453179672363541"><ele>1285.6</ele><time>2026-04-19T09:18:43.001Z</time></trkpt><trkpt lat="45.807167396831694" lon="11.453219836456618"><ele>1285.4</ele><time>2026-04-19T09:18:44.001Z</time></trkpt><trkpt lat="45.80707284317856" lon="11.453219872887548"><ele>1285.2</ele><time>2026-04-19T09:18:47.001Z</time></trkpt><trkpt lat="45.80694937212023" lon="11.453273485436346"><ele>1285.0</ele><time>2026-04-19T09:18:49.001Z</time></trkpt><trkpt lat="45.8068537758134" lon="11.453266359670472"><ele>1284.2857142857144</ele><time>2026-04-19T09:18:50.001Z</time></trkpt><trkpt lat="45.806750214386845" lon="11.453220580281357"><ele>1283.5714285714287</ele><time>2026-04-19T09:18:51.001Z</time></trkpt><trkpt lat="45.806675912885936" lon="11.45318753019276"><ele>1282.857142857143</ele><time>2026-04-19T09:18:52.001Z</time></trkpt><trkpt lat="45.80661444282997" lon="11.453158804970677"><ele>1282.1428571428573</ele><time>2026-04-19T09:18:53.001Z</time></trkpt><trkpt lat="45.80655236749333" lon="11.4531419253443"><ele>1281.4285714285716</ele><time>2026-04-19T09:18:54.001Z</time></trkpt><trkpt lat="45.8064869234288" lon="11.453133535610338"><ele>1280.7142857142858</ele><time>2026-04-19T09:18:55.001Z</time></trkpt><trkpt lat="45.80641709861431" lon="11.453132793175929"><ele>1280.0</ele><time>2026-04-19T09:18:56.001Z</time></trkpt><trkpt lat="45.80635001582092" lon="11.453116428819271"><ele>1280.0</ele><time>2026-04-19T09:18:57.001Z</time></trkpt><trkpt lat="45.80627832950862" lon="11.453118492704482"><ele>1280.0</ele><time>2026-04-19T09:18:58.001Z</time></trkpt><trkpt lat="45.80621192683451" lon="11.453127832556534"><ele>1280.0</ele><time>2026-04-19T09:18:59.001Z</time></trkpt><trkpt lat="45.806091895971186" lon="11.453107673498485"><ele>1280.0</ele><time>2026-04-19T09:19:01.001Z</time></trkpt><trkpt lat="45.8059974567957" lon="11.453090506093009"><ele>1280.0</ele><time>2026-04-19T09:19:03.001Z</time></trkpt><trkpt lat="45.80588461962447" lon="11.453115670188533"><ele>1278.2</ele><time>2026-04-19T09:19:05.001Z</time></trkpt><trkpt lat="45.80578350271467" lon="11.453158848967284"><ele>1276.4</ele><time>2026-04-19T09:19:07.001Z</time></trkpt><trkpt lat="45.80571635604974" lon="11.453187259837822"><ele>1274.6</ele><time>2026-04-19T09:19:09.001Z</time></trkpt><trkpt lat="45.80561670665349" lon="11.45313489479497"><ele>1272.8</ele><time>2026-04-19T09:19:11Z</time></trkpt><trkpt lat="45.80553497239825" lon="11.453065149726438"><ele>1271.0</ele><time>2026-04-19T09:19:13Z</time></trkpt><trkpt lat="45.80550484292493" lon="11.45316331628634"><ele>1271.0</ele><time>2026-04-19T09:19:17Z</time></trkpt><trkpt lat="45.805589679314565" lon="11.453211591224983"><ele>1271.0</ele><time>2026-04-19T09:19:20Z</time></trkpt><trkpt lat="45.80571641644173" lon="11.453241313531858"><ele>1271.0</ele><time>2026-04-19T09:19:21Z</time></trkpt><trkpt lat="45.80581867236598" lon="11.453292543192806"><ele>1271.0</ele><time>2026-04-19T09:19:22Z</time></trkpt><trkpt lat="45.805898514628765" lon="11.453345637036335"><ele>1271.0</ele><time>2026-04-19T09:19:23Z</time></trkpt><trkpt lat="45.80596327213324" lon="11.453355564826023"><ele>1272.5</ele><time>2026-04-19T09:19:24Z</time></trkpt><trkpt lat="45.80604636313045" lon="11.45339039223583"><ele>1274.0</ele><time>2026-04-19T09:19:25Z</time></trkpt><trkpt lat="45.806140993935244" lon="11.453410750756378"><ele>1275.5</ele><time>2026-04-19T09:19:26Z</time></trkpt><trkpt lat="45.806204971403616" lon="11.453433529830127"><ele>1277.0</ele><time>2026-04-19T09:19:27Z</time></trkpt><trkpt lat="45.80628637886219" lon="11.453462472485514"><ele>1278.5</ele><time>2026-04-19T09:19:28Z</time></trkpt><trkpt lat="45.806358436638824" lon="11.453488360808535"><ele>1280.0</ele><time>2026-04-19T09:19:29Z</time></trkpt><trkpt lat="45.806421780445135" lon="11.453508999939416"><ele>1280.0</ele><time>2026-04-19T09:19:30Z</time></trkpt><trkpt lat="45.80648882147212" lon="11.453544174578951"><ele>1280.0</ele><time>2026-04-19T09:19:31Z</time></trkpt><trkpt lat="45.80653183406293" lon="11.453649647455638"><ele>1280.0</ele><time>2026-04-19T09:19:32Z</time></trkpt><trkpt lat="45.80668459186533" lon="11.453737130908564"><ele>1280.0</ele><time>2026-04-19T09:19:34Z</time></trkpt><trkpt lat="45.80678393557649" lon="11.453819795501877"><ele>1280.0</ele><time>2026-04-19T09:19:35Z</time></trkpt><trkpt lat="45.80687086146912" lon="11.453870443999493"><ele>1276.8</ele><time>2026-04-19T09:19:36Z</time></trkpt><trkpt lat="45.80695634374252" lon="11.453932762912332"><ele>1273.6</ele><time>2026-04-19T09:19:37Z</time></trkpt><trkpt lat="45.80702906805876" lon="11.453968755835682"><ele>1270.4</ele><time>2026-04-19T09:19:38Z</time></trkpt><trkpt lat="45.807126707544064" lon="11.45405060380233"><ele>1267.2</ele><time>2026-04-19T09:19:39Z</time></trkpt><trkpt lat="45.80723442032947" lon="11.454109763314994"><ele>1264.0</ele><time>2026-04-19T09:19:40Z</time></trkpt><trkpt lat="45.80732252124473" lon="11.454207365290404"><ele>1264.0</ele><time>2026-04-19T09:19:41Z</time></trkpt><trkpt lat="45.807405104199276" lon="11.454335021266937"><ele>1264.0</ele><time>2026-04-19T09:19:42Z</time></trkpt><trkpt lat="45.807463401680515" lon="11.454415351933354"><ele>1264.0</ele><time>2026-04-19T09:19:43Z</time></trkpt><trkpt lat="45.807506298941334" lon="11.454519531067072"><ele>1264.0</ele><time>2026-04-19T09:19:44Z</time></trkpt><trkpt lat="45.807538417183466" lon="11.45460750928621"><ele>1264.0</ele><time>2026-04-19T09:19:45Z</time></trkpt><trkpt lat="45.80762498608963" lon="11.454659320293228"><ele>1263.3333333333333</ele><time>2026-04-19T09:19:47Z</time></trkpt><trkpt lat="45.80771165630215" lon="11.454640658777729"><ele>1262.6666666666665</ele><time>2026-04-19T09:19:48Z</time></trkpt><trkpt lat="45.80779079653545" lon="11.454619776740307"><ele>1262.0</ele><time>2026-04-19T09:19:49Z</time></trkpt><trkpt lat="45.807864369983456" lon="11.45459642596721"><ele>1261.3333333333333</ele><time>2026-04-19T09:19:50Z</time></trkpt><trkpt lat="45.807946251421335" lon="11.454588641471966"><ele>1260.6666666666667</ele><time>2026-04-19T09:19:51Z</time></trkpt><trkpt lat="45.80802826856284" lon="11.45457260000473"><ele>1260.0</ele><time>2026-04-19T09:19:52Z</time></trkpt><trkpt lat="45.80811378377996" lon="11.454555573608433"><ele>1260.0</ele><time>2026-04-19T09:19:53Z</time></trkpt><trkpt lat="45.80819493914853" lon="11.454554967450076"><ele>1260.0</ele><time>2026-04-19T09:19:54Z</time></trkpt><trkpt lat="45.80827594821952" lon="11.454591776756661"><ele>1260.0</ele><time>2026-04-19T09:19:55Z</time></trkpt><trkpt lat="45.808348443817025" lon="11.454659693227978"><ele>1260.0</ele><time>2026-04-19T09:19:56Z</time></trkpt><trkpt lat="45.80841156745162" lon="11.454740679614764"><ele>1260.0</ele><time>2026-04-19T09:19:57Z</time></trkpt><trkpt lat="45.80847684033382" lon="11.4548300181713"><ele>1260.0</ele><time>2026-04-19T09:19:58Z</time></trkpt><trkpt lat="45.80852397662886" lon="11.454909785882915"><ele>1263.6666666666667</ele><time>2026-04-19T09:19:59Z</time></trkpt><trkpt lat="45.80856599314437" lon="11.45499061233766"><ele>1267.3333333333333</ele><time>2026-04-19T09:20:00Z</time></trkpt><trkpt lat="45.80861369147697" lon="11.455081313674928"><ele>1271.0</ele><time>2026-04-19T09:20:01Z</time></trkpt><trkpt lat="45.80865368186861" lon="11.455181514171107"><ele>1274.6666666666665</ele><time>2026-04-19T09:20:02.001Z</time></trkpt><trkpt lat="45.80869589760179" lon="11.455285565163015"><ele>1278.3333333333333</ele><time>2026-04-19T09:20:03.001Z</time></trkpt><trkpt lat="45.80873011570275" lon="11.455393889815868"><ele>1282.0</ele><time>2026-04-19T09:20:04.001Z</time></trkpt><trkpt lat="45.80875626813306" lon="11.455511799092745"><ele>1282.0</ele><time>2026-04-19T09:20:05.001Z</time></trkpt><trkpt lat="45.80878864786423" lon="11.45563415287868"><ele>1282.0</ele><time>2026-04-19T09:20:06.001Z</time></trkpt><trkpt lat="45.80880628630171" lon="11.455758868077154"><ele>1282.0</ele><time>2026-04-19T09:20:07.001Z</time></trkpt><trkpt lat="45.80881456966573" lon="11.455886577606558"><ele>1282.0</ele><time>2026-04-19T09:20:08.001Z</time></trkpt><trkpt lat="45.80882705875073" lon="11.456017019501118"><ele>1282.0</ele><time>2026-04-19T09:20:09.001Z</time></trkpt><trkpt lat="45.80883590102094" lon="11.45615890397785"><ele>1281.3999999999999</ele><time>2026-04-19T09:20:10.001Z</time></trkpt><trkpt lat="45.80884032668374" lon="11.456296301947877"><ele>1280.8</ele><time>2026-04-19T09:20:11.001Z</time></trkpt><trkpt lat="45.8088463634761" lon="11.456433463230576"><ele>1280.2</ele><time>2026-04-19T09:20:12.001Z</time></trkpt><trkpt lat="45.80884845327637" lon="11.456583694015412"><ele>1279.6</ele><time>2026-04-19T09:20:13.001Z</time></trkpt><trkpt lat="45.808853662203965" lon="11.456714108399813"><ele>1279.0</ele><time>2026-04-19T09:20:14.001Z</time></trkpt><trkpt lat="45.80886252904819" lon="11.456852253379665"><ele>1279.0</ele><time>2026-04-19T09:20:15.001Z</time></trkpt><trkpt lat="45.808867015548344" lon="11.457002624348444"><ele>1279.0</ele><time>2026-04-19T09:20:16.001Z</time></trkpt><trkpt lat="45.808874255485044" lon="11.45715712652067"><ele>1279.0</ele><time>2026-04-19T09:20:17.001Z</time></trkpt><trkpt lat="45.808875659084066" lon="11.457313985389874"><ele>1279.0</ele><time>2026-04-19T09:20:18.001Z</time></trkpt><trkpt lat="45.80888327883017" lon="11.457466298998092"><ele>1279.0</ele><time>2026-04-19T09:20:19.001Z</time></trkpt><trkpt lat="45.80888980870852" lon="11.45764013454246"><ele>1278.0</ele><time>2026-04-19T09:20:20.001Z</time></trkpt><trkpt lat="45.808887074506735" lon="11.457814440684645"><ele>1277.0</ele><time>2026-04-19T09:20:21.001Z</time></trkpt><trkpt lat="45.808928198561915" lon="11.458048721349556"><ele>1276.0</ele><time>2026-04-19T09:20:22.001Z</time></trkpt><trkpt lat="45.80894873568629" lon="11.45824285632714"><ele>1275.0</ele><time>2026-04-19T09:20:23.001Z</time></trkpt><trkpt lat="45.808951380116206" lon="11.458453067957326"><ele>1274.5</ele><time>2026-04-19T09:20:24.001Z</time></trkpt><trkpt lat="45.80895062119217" lon="11.45865629536851"><ele>1274.0</ele><time>2026-04-19T09:20:25.001Z</time></trkpt><trkpt lat="45.808954933597" lon="11.458861971875477"><ele>1273.5</ele><time>2026-04-19T09:20:26.001Z</time></trkpt><trkpt lat="45.80894603580038" lon="11.459069806512323"><ele>1273.0</ele><time>2026-04-19T09:20:27.001Z</time></trkpt><trkpt lat="45.808973812112484" lon="11.459262324781369"><ele>1272.0</ele><time>2026-04-19T09:20:28.001Z</time></trkpt><trkpt lat="45.809006097691764" lon="11.4594688308866"><ele>1271.0</ele><time>2026-04-19T09:20:29.001Z</time></trkpt><trkpt lat="45.809052751641325" lon="11.459668448017284"><ele>1270.0</ele><time>2026-04-19T09:20:30.001Z</time></trkpt><trkpt lat="45.80909001608318" lon="11.459863614649027"><ele>1269.0</ele><time>2026-04-19T09:20:31.001Z</time></trkpt><trkpt lat="45.80910880849104" lon="11.460050747097087"><ele>1267.5</ele><time>2026-04-19T09:20:32.001Z</time></trkpt><trkpt lat="45.80913835548728" lon="11.460256473455562"><ele>1266.0</ele><time>2026-04-19T09:20:33.001Z</time></trkpt><trkpt lat="45.80917935552834" lon="11.46045509709783"><ele>1264.5</ele><time>2026-04-19T09:20:34.001Z</time></trkpt><trkpt lat="45.809202079204745" lon="11.460648631688567"><ele>1263.0</ele><time>2026-04-19T09:20:35.001Z</time></trkpt><trkpt lat="45.80921837252412" lon="11.460827909122766"><ele>1261.25</ele><time>2026-04-19T09:20:36.001Z</time></trkpt><trkpt lat="45.809240936789095" lon="11.460974870661579"><ele>1259.5</ele><time>2026-04-19T09:20:37.001Z</time></trkpt><trkpt lat="45.809287663107334" lon="11.461109161957223"><ele>1257.75</ele><time>2026-04-19T09:20:38.001Z</time></trkpt><trkpt lat="45.80935922960502" lon="11.461254682971424"><ele>1256.0</ele><time>2026-04-19T09:20:39.001Z</time></trkpt><trkpt lat="45.80943516583743" lon="11.46138661723277"><ele>1261.0</ele><time>2026-04-19T09:20:40.001Z</time></trkpt><trkpt lat="45.809524791898546" lon="11.461522824588618"><ele>1266.0</ele><time>2026-04-19T09:20:41.001Z</time></trkpt><trkpt lat="45.809606250520226" lon="11.46166566077878"><ele>1271.0</ele><time>2026-04-19T09:20:42.001Z</time></trkpt><trkpt lat="45.8096882605516" lon="11.461819436843726"><ele>1276.0</ele><time>2026-04-19T09:20:43.001Z</time></trkpt><trkpt lat="45.8097681523309" lon="11.461966872667738"><ele>1273.75</ele><time>2026-04-19T09:20:44.001Z</time></trkpt><trkpt lat="45.80983548392362" lon="11.46212937029084"><ele>1271.5</ele><time>2026-04-19T09:20:45.001Z</time></trkpt><trkpt lat="45.80987545205057" lon="11.462317261014254"><ele>1269.25</ele><time>2026-04-19T09:20:46.001Z</time></trkpt><trkpt lat="45.80991721402748" lon="11.462506219754395"><ele>1267.0</ele><time>2026-04-19T09:20:47.001Z</time></trkpt><trkpt lat="45.80995933828205" lon="11.46269133369005"><ele>1267.0</ele><time>2026-04-19T09:20:48.001Z</time></trkpt><trkpt lat="45.81000795248176" lon="11.46289681981704"><ele>1267.0</ele><time>2026-04-19T09:20:49.001Z</time></trkpt><trkpt lat="45.810051978344305" lon="11.463091365865981"><ele>1267.0</ele><time>2026-04-19T09:20:50.001Z</time></trkpt><trkpt lat="45.81009855040447" lon="11.463280280438536"><ele>1267.0</ele><time>2026-04-19T09:20:51.001Z</time></trkpt><trkpt lat="45.81015487668286" lon="11.463461243510286"><ele>1269.0</ele><time>2026-04-19T09:20:52.001Z</time></trkpt><trkpt lat="45.81022310247527" lon="11.4636351279438"><ele>1271.0</ele><time>2026-04-19T09:20:53.001Z</time></trkpt><trkpt lat="45.81031022700172" lon="11.463806833271082"><ele>1273.0</ele><time>2026-04-19T09:20:54.001Z</time></trkpt><trkpt lat="45.81038098497466" lon="11.463995908679005"><ele>1275.0</ele><time>2026-04-19T09:20:55.001Z</time></trkpt><trkpt lat="45.81044678846238" lon="11.464185878712916"><ele>1275.0</ele><time>2026-04-19T09:20:56.001Z</time></trkpt><trkpt lat="45.81049456198993" lon="11.464382823997584"><ele>1275.0</ele><time>2026-04-19T09:20:57.001Z</time></trkpt><trkpt lat="45.81054647122215" lon="11.464566829478755"><ele>1275.0</ele><time>2026-04-19T09:20:58.001Z</time></trkpt><trkpt lat="45.810584319005294" lon="11.464753078933859"><ele>1275.0</ele><time>2026-04-19T09:20:59.001Z</time></trkpt><trkpt lat="45.8106199390818" lon="11.464923898296966"><ele>1272.0</ele><time>2026-04-19T09:21:00.001Z</time></trkpt><trkpt lat="45.81065690195476" lon="11.46508227025886"><ele>1269.0</ele><time>2026-04-19T09:21:01.001Z</time></trkpt><trkpt lat="45.81068784209628" lon="11.46520850430863"><ele>1266.0</ele><time>2026-04-19T09:21:02.001Z</time></trkpt><trkpt lat="45.810734839465304" lon="11.465329339042942"><ele>1263.0</ele><time>2026-04-19T09:21:03.001Z</time></trkpt><trkpt lat="45.81075894948131" lon="11.465440261338676"><ele>1260.0</ele><time>2026-04-19T09:21:04.001Z</time></trkpt><trkpt lat="45.810786346416535" lon="11.46553853034027"><ele>1258.3333333333333</ele><time>2026-04-19T09:21:05.001Z</time></trkpt><trkpt lat="45.810804522199206" lon="11.465645096028341"><ele>1256.6666666666667</ele><time>2026-04-19T09:21:06.001Z</time></trkpt><trkpt lat="45.810828127042605" lon="11.465729952658963"><ele>1255.0</ele><time>2026-04-19T09:21:07.001Z</time></trkpt><trkpt lat="45.8108225033762" lon="11.465834168099962"><ele>1253.3333333333335</ele><time>2026-04-19T09:21:08.001Z</time></trkpt><trkpt lat="45.81081388122916" lon="11.465929058882514"><ele>1251.6666666666667</ele><time>2026-04-19T09:21:09.001Z</time></trkpt><trkpt lat="45.81075542010625" lon="11.466077050599445"><ele>1250.0</ele><time>2026-04-19T09:21:10.001Z</time></trkpt><trkpt lat="45.8106850754153" lon="11.466179639079744"><ele>1250.0</ele><time>2026-04-19T09:21:11.001Z</time></trkpt><trkpt lat="45.81063747094381" lon="11.466260573070988"><ele>1250.0</ele><time>2026-04-19T09:21:12.001Z</time></trkpt><trkpt lat="45.810588809031465" lon="11.466336848829844"><ele>1250.0</ele><time>2026-04-19T09:21:13.001Z</time></trkpt><trkpt lat="45.81057086341783" lon="11.466423843449244"><ele>1250.0</ele><time>2026-04-19T09:21:14.001Z</time></trkpt><trkpt lat="45.81055212319706" lon="11.466513374572422"><ele>1250.0</ele><time>2026-04-19T09:21:15.001Z</time></trkpt><trkpt lat="45.81057465241636" lon="11.46670399290941"><ele>1250.0</ele><time>2026-04-19T09:21:17.001Z</time></trkpt><trkpt lat="45.81062437472593" lon="11.466804126493377"><ele>1249.5</ele><time>2026-04-19T09:21:18.001Z</time></trkpt><trkpt lat="45.810679960031386" lon="11.466929736102843"><ele>1249.0</ele><time>2026-04-19T09:21:19.001Z</time></trkpt><trkpt lat="45.810762026992045" lon="11.467042435831349"><ele>1248.5</ele><time>2026-04-19T09:21:20.001Z</time></trkpt><trkpt lat="45.81084945069801" lon="11.467139690999742"><ele>1248.0</ele><time>2026-04-19T09:21:21.001Z</time></trkpt><trkpt lat="45.81095954682507" lon="11.467231495208754"><ele>1247.6</ele><time>2026-04-19T09:21:22.001Z</time></trkpt><trkpt lat="45.81107077273216" lon="11.467249694841692"><ele>1247.1999999999998</ele><time>2026-04-19T09:21:23.001Z</time></trkpt><trkpt lat="45.81117861992262" lon="11.467240115999452"><ele>1246.8</ele><time>2026-04-19T09:21:24.001Z</time></trkpt><trkpt lat="45.81126818812762" lon="11.467184663608005"><ele>1246.3999999999999</ele><time>2026-04-19T09:21:25.001Z</time></trkpt><trkpt lat="45.81134673451508" lon="11.467091955647506"><ele>1246.0</ele><time>2026-04-19T09:21:26.001Z</time></trkpt><trkpt lat="45.81141804377054" lon="11.467006989230565"><ele>1247.1666666666665</ele><time>2026-04-19T09:21:27.001Z</time></trkpt><trkpt lat="45.811497510746094" lon="11.466940131968224"><ele>1248.3333333333333</ele><time>2026-04-19T09:21:28.001Z</time></trkpt><trkpt lat="45.8115780193755" lon="11.466923954650463"><ele>1249.5</ele><time>2026-04-19T09:21:29.001Z</time></trkpt><trkpt lat="45.8116569542857" lon="11.466927947859741"><ele>1250.6666666666667</ele><time>2026-04-19T09:21:30.001Z</time></trkpt><trkpt lat="45.811730122522555" lon="11.466946045159165"><ele>1251.8333333333335</ele><time>2026-04-19T09:21:31.001Z</time></trkpt><trkpt lat="45.811799404487054" lon="11.466989899744721"><ele>1253.0</ele><time>2026-04-19T09:21:32.001Z</time></trkpt><trkpt lat="45.811856210288624" lon="11.467040945180502"><ele>1253.3333333333335</ele><time>2026-04-19T09:21:33.001Z</time></trkpt><trkpt lat="45.81191101956409" lon="11.467091718273121"><ele>1253.6666666666667</ele><time>2026-04-19T09:21:34.001Z</time></trkpt><trkpt lat="45.811951858204175" lon="11.46720130575887"><ele>1254.0</ele><time>2026-04-19T09:21:36.001Z</time></trkpt><trkpt lat="45.811891651074404" lon="11.467336688977394"><ele>1254.3333333333333</ele><time>2026-04-19T09:21:38.001Z</time></trkpt><trkpt lat="45.811877844446364" lon="11.467445504178903"><ele>1254.6666666666665</ele><time>2026-04-19T09:21:39.001Z</time></trkpt><trkpt lat="45.811866656762604" lon="11.467587007219986"><ele>1255.0</ele><time>2026-04-19T09:21:40.001Z</time></trkpt><trkpt lat="45.81188339928345" lon="11.46769872825487"><ele>1256.5</ele><time>2026-04-19T09:21:41.001Z</time></trkpt><trkpt lat="45.811868806511995" lon="11.467821541150629"><ele>1258.0</ele><time>2026-04-19T09:21:42.001Z</time></trkpt><trkpt lat="45.811846663358864" lon="11.467942923829117"><ele>1259.5</ele><time>2026-04-19T09:21:43.001Z</time></trkpt><trkpt lat="45.811827566067485" lon="11.468071816304139"><ele>1261.0</ele><time>2026-04-19T09:21:44.001Z</time></trkpt><trkpt lat="45.81183193192749" lon="11.468198755345703"><ele>1262.5</ele><time>2026-04-19T09:21:45.001Z</time></trkpt><trkpt lat="45.811845028477116" lon="11.468315990583726"><ele>1264.0</ele><time>2026-04-19T09:21:46.001Z</time></trkpt><trkpt lat="45.811874353126825" lon="11.46841878147394"><ele>1265.0</ele><time>2026-04-19T09:21:47.001Z</time></trkpt><trkpt lat="45.811922454191205" lon="11.468505753298144"><ele>1266.0</ele><time>2026-04-19T09:21:48.001Z</time></trkpt><trkpt lat="45.81196836039324" lon="11.468589729142778"><ele>1267.0</ele><time>2026-04-19T09:21:50.001Z</time></trkpt><trkpt lat="45.8120283046632" lon="11.468539150732253"><ele>1268.0</ele><time>2026-04-19T09:21:53.001Z</time></trkpt><trkpt lat="45.81204263078415" lon="11.468382410465066"><ele>1269.0</ele><time>2026-04-19T09:21:55.001Z</time></trkpt><trkpt lat="45.81200527899472" lon="11.468288845553847"><ele>1270.0</ele><time>2026-04-19T09:21:57.001Z</time></trkpt><trkpt lat="45.81215143632242" lon="11.468212852101674"><ele>1270.0</ele><time>2026-04-19T09:21:59.001Z</time></trkpt><trkpt lat="45.81216371830667" lon="11.468360522527917"><ele>1270.0</ele><time>2026-04-19T09:22:01.001Z</time></trkpt><trkpt lat="45.81215660221" lon="11.468468362620959"><ele>1270.0</ele><time>2026-04-19T09:22:02.001Z</time></trkpt><trkpt lat="45.812321492875625" lon="11.468618723341006"><ele>1270.0</ele><time>2026-04-19T09:22:05.001Z</time></trkpt><trkpt lat="45.812391967480444" lon="11.468693380724748"><ele>1270.0</ele><time>2026-04-19T09:22:06.001Z</time></trkpt><trkpt lat="45.812469456717444" lon="11.468703216144924"><ele>1270.0</ele><time>2026-04-19T09:22:07.001Z</time></trkpt><trkpt lat="45.81260388152008" lon="11.468684536930034"><ele>1270.0</ele><time>2026-04-19T09:22:09.001Z</time></trkpt><trkpt lat="45.812773671094774" lon="11.468542533727677"><ele>1270.0</ele><time>2026-04-19T09:22:10.001Z</time></trkpt><trkpt lat="45.812836555893824" lon="11.468499626589402"><ele>1270.3333333333333</ele><time>2026-04-19T09:22:11.001Z</time></trkpt><trkpt lat="45.812939802850586" lon="11.468510940083261"><ele>1270.6666666666665</ele><time>2026-04-19T09:22:12.001Z</time></trkpt><trkpt lat="45.813010912226574" lon="11.468585850529049"><ele>1271.0</ele><time>2026-04-19T09:22:13.001Z</time></trkpt><trkpt lat="45.81307436869596" lon="11.468663824686178"><ele>1271.3333333333333</ele><time>2026-04-19T09:22:14.001Z</time></trkpt><trkpt lat="45.81313971893757" lon="11.46875414107025"><ele>1271.6666666666667</ele><time>2026-04-19T09:22:15.001Z</time></trkpt><trkpt lat="45.81317971521782" lon="11.468827952370699"><ele>1272.0</ele><time>2026-04-19T09:22:16.001Z</time></trkpt><trkpt lat="45.81323338458377" lon="11.468921673719892"><ele>1272.0</ele><time>2026-04-19T09:22:17.001Z</time></trkpt><trkpt lat="45.81329124531124" lon="11.469017253331865"><ele>1272.0</ele><time>2026-04-19T09:22:18.001Z</time></trkpt><trkpt lat="45.81336524937273" lon="11.469091800172986"><ele>1272.0</ele><time>2026-04-19T09:22:19.001Z</time></trkpt><trkpt lat="45.813416468091944" lon="11.469166259539644"><ele>1272.0</ele><time>2026-04-19T09:22:20.001Z</time></trkpt><trkpt lat="45.8134634711383" lon="11.4692378243393"><ele>1272.0</ele><time>2026-04-19T09:22:21.001Z</time></trkpt><trkpt lat="45.81352854671406" lon="11.46937844088027"><ele>1272.0</ele><time>2026-04-19T09:22:23.001Z</time></trkpt><trkpt lat="45.81357557249869" lon="11.469475744776078"><ele>1274.5</ele><time>2026-04-19T09:22:25.001Z</time></trkpt><trkpt lat="45.813642026101306" lon="11.469438700990139"><ele>1277.0</ele><time>2026-04-19T09:23:32Z</time></trkpt><trkpt lat="45.81371688614481" lon="11.469436642315008"><ele>1279.5</ele><time>2026-04-19T09:23:34Z</time></trkpt><trkpt lat="45.813782122715764" lon="11.469449407962522"><ele>1282.0</ele><time>2026-04-19T09:23:35Z</time></trkpt><trkpt lat="45.81386699827005" lon="11.469499496958615"><ele>1284.5</ele><time>2026-04-19T09:23:36Z</time></trkpt><trkpt lat="45.81396452628465" lon="11.469558349067944"><ele>1287.0</ele><time>2026-04-19T09:23:37Z</time></trkpt><trkpt lat="45.81405943147965" lon="11.46960504040824"><ele>1285.5</ele><time>2026-04-19T09:23:38Z</time></trkpt><trkpt lat="45.81417173345318" lon="11.46966010023183"><ele>1284.0</ele><time>2026-04-19T09:23:39Z</time></trkpt><trkpt lat="45.81429167746267" lon="11.469728876819469"><ele>1282.5</ele><time>2026-04-19T09:23:40Z</time></trkpt><trkpt lat="45.8144061328401" lon="11.469769078990453"><ele>1281.0</ele><time>2026-04-19T09:23:41Z</time></trkpt><trkpt lat="45.81451806769572" lon="11.469815185355325"><ele>1281.0</ele><time>2026-04-19T09:23:42Z</time></trkpt><trkpt lat="45.81465466993537" lon="11.469840380021157"><ele>1281.0</ele><time>2026-04-19T09:23:43Z</time></trkpt><trkpt lat="45.81478240904494" lon="11.469912330272814"><ele>1281.0</ele><time>2026-04-19T09:23:44Z</time></trkpt><trkpt lat="45.81489801094351" lon="11.469990535533784"><ele>1281.0</ele><time>2026-04-19T09:23:45Z</time></trkpt><trkpt lat="45.81500840583807" lon="11.470064967740765"><ele>1281.0</ele><time>2026-04-19T09:23:46Z</time></trkpt><trkpt lat="45.81512134206424" lon="11.470134194733475"><ele>1281.0</ele><time>2026-04-19T09:23:47Z</time></trkpt><trkpt lat="45.81523314371356" lon="11.470201691090967"><ele>1281.0</ele><time>2026-04-19T09:23:48Z</time></trkpt><trkpt lat="45.81534790498517" lon="11.470296806385672"><ele>1281.0</ele><time>2026-04-19T09:23:49Z</time></trkpt><trkpt lat="45.81541991444479" lon="11.47039301286416"><ele>1278.3999999999999</ele><time>2026-04-19T09:23:50Z</time></trkpt><trkpt lat="45.81548111699671" lon="11.470456871635346"><ele>1275.8</ele><time>2026-04-19T09:23:51Z</time></trkpt><trkpt lat="45.815567115250055" lon="11.470465429432707"><ele>1273.1999999999998</ele><time>2026-04-19T09:23:52Z</time></trkpt><trkpt lat="45.81564454113011" lon="11.470494712817937"><ele>1270.6</ele><time>2026-04-19T09:23:53Z</time></trkpt><trkpt lat="45.815757973312685" lon="11.470543736913575"><ele>1268.0</ele><time>2026-04-19T09:23:54Z</time></trkpt><trkpt lat="45.81594542930333" lon="11.470479567127008"><ele>1266.5</ele><time>2026-04-19T09:23:55Z</time></trkpt><trkpt lat="45.816074712576196" lon="11.47049449121863"><ele>1265.0</ele><time>2026-04-19T09:23:56Z</time></trkpt><trkpt lat="45.81617950810067" lon="11.470536158306242"><ele>1263.5</ele><time>2026-04-19T09:23:57Z</time></trkpt><trkpt lat="45.81629365892598" lon="11.470563410851327"><ele>1262.0</ele><time>2026-04-19T09:23:58Z</time></trkpt><trkpt lat="45.81640668317982" lon="11.470570085022404"><ele>1262.0</ele><time>2026-04-19T09:23:59Z</time></trkpt><trkpt lat="45.81649423392227" lon="11.470621751958223"><ele>1262.0</ele><time>2026-04-19T09:24:00Z</time></trkpt><trkpt lat="45.81659132452639" lon="11.470640620522122"><ele>1262.0</ele><time>2026-04-19T09:24:01Z</time></trkpt><trkpt lat="45.816679772468035" lon="11.470673202588454"><ele>1262.0</ele><time>2026-04-19T09:24:02Z</time></trkpt><trkpt lat="45.81676947144285" lon="11.470686512528294"><ele>1262.0</ele><time>2026-04-19T09:24:03Z</time></trkpt><trkpt lat="45.81687608029558" lon="11.470685144372514"><ele>1260.8</ele><time>2026-04-19T09:24:04Z</time></trkpt><trkpt lat="45.81701572002784" lon="11.470581144275656"><ele>1259.6</ele><time>2026-04-19T09:24:05Z</time></trkpt><trkpt lat="45.81711211358314" lon="11.470546364287143"><ele>1258.3999999999999</ele><time>2026-04-19T09:24:06Z</time></trkpt><trkpt lat="45.81721040410363" lon="11.47051778967085"><ele>1257.2</ele><time>2026-04-19T09:24:07Z</time></trkpt><trkpt lat="45.81729135391388" lon="11.470497999148318"><ele>1256.0</ele><time>2026-04-19T09:24:08Z</time></trkpt><trkpt lat="45.8173755814195" lon="11.470475324393028"><ele>1256.0</ele><time>2026-04-19T09:24:09Z</time></trkpt><trkpt lat="45.81745849479185" lon="11.470473355311965"><ele>1256.0</ele><time>2026-04-19T09:24:10Z</time></trkpt><trkpt lat="45.817545298456565" lon="11.470448125005476"><ele>1256.0</ele><time>2026-04-19T09:24:11Z</time></trkpt><trkpt lat="45.81763677631124" lon="11.470426206071751"><ele>1256.0</ele><time>2026-04-19T09:24:12Z</time></trkpt><trkpt lat="45.81771651695824" lon="11.470413415058522"><ele>1256.0</ele><time>2026-04-19T09:24:13Z</time></trkpt><trkpt lat="45.8178003780302" lon="11.470382744171276"><ele>1256.0</ele><time>2026-04-19T09:24:14Z</time></trkpt><trkpt lat="45.81787555386926" lon="11.470364299701698"><ele>1257.1666666666667</ele><time>2026-04-19T09:24:15Z</time></trkpt><trkpt lat="45.81796219408703" lon="11.47035861511239"><ele>1258.3333333333335</ele><time>2026-04-19T09:24:16Z</time></trkpt><trkpt lat="45.818051154586264" lon="11.470352023231868"><ele>1259.5</ele><time>2026-04-19T09:24:17Z</time></trkpt><trkpt lat="45.81812022161892" lon="11.470357788918179"><ele>1260.6666666666667</ele><time>2026-04-19T09:24:18Z</time></trkpt><trkpt lat="45.818195216242266" lon="11.47037653118963"><ele>1261.8333333333333</ele><time>2026-04-19T09:24:19Z</time></trkpt><trkpt lat="45.81826465746111" lon="11.470430079359673"><ele>1263.0</ele><time>2026-04-19T09:24:20Z</time></trkpt><trkpt lat="45.818319718557284" lon="11.470480895142735"><ele>1260.1666666666667</ele><time>2026-04-19T09:24:21Z</time></trkpt><trkpt lat="45.81837422128124" lon="11.470529947457832"><ele>1257.3333333333333</ele><time>2026-04-19T09:24:22Z</time></trkpt><trkpt lat="45.81841638843009" lon="11.470628592668978"><ele>1254.5</ele><time>2026-04-19T09:24:23Z</time></trkpt><trkpt lat="45.81847178255407" lon="11.470715189357119"><ele>1251.6666666666665</ele><time>2026-04-19T09:24:24Z</time></trkpt><trkpt lat="45.81852136754506" lon="11.470812046586813"><ele>1248.8333333333333</ele><time>2026-04-19T09:24:25Z</time></trkpt><trkpt lat="45.818574623912085" lon="11.47093156183526"><ele>1246.0</ele><time>2026-04-19T09:24:26Z</time></trkpt><trkpt lat="45.81856587885491" lon="11.471072199071141"><ele>1246.0</ele><time>2026-04-19T09:24:27Z</time></trkpt><trkpt lat="45.81853807365576" lon="11.471184094863274"><ele>1246.0</ele><time>2026-04-19T09:24:28Z</time></trkpt><trkpt lat="45.81858122040849" lon="11.471327473248254"><ele>1246.0</ele><time>2026-04-19T09:24:30.001Z</time></trkpt><trkpt lat="45.818651908176406" lon="11.471330766772999"><ele>1246.0</ele><time>2026-04-19T09:24:31.001Z</time></trkpt><trkpt lat="45.818749146338554" lon="11.471306005668554"><ele>1246.0</ele><time>2026-04-19T09:24:33.001Z</time></trkpt><trkpt lat="45.818814675797015" lon="11.47127883114352"><ele>1246.0</ele><time>2026-04-19T09:24:34.001Z</time></trkpt><trkpt lat="45.81887644778104" lon="11.471253756397639"><ele>1246.0</ele><time>2026-04-19T09:24:35.001Z</time></trkpt><trkpt lat="45.81895915607702" lon="11.471209787003977"><ele>1246.0</ele><time>2026-04-19T09:24:36.001Z</time></trkpt><trkpt lat="45.819095164375724" lon="11.471224369580009"><ele>1246.0</ele><time>2026-04-19T09:24:38.001Z</time></trkpt><trkpt lat="45.81918011979843" lon="11.471240814729716"><ele>1246.0</ele><time>2026-04-19T09:24:39.001Z</time></trkpt><trkpt lat="45.81925168421217" lon="11.471270311506476"><ele>1246.0</ele><time>2026-04-19T09:24:40.001Z</time></trkpt><trkpt lat="45.819314208959554" lon="11.4713711170132"><ele>1244.0</ele><time>2026-04-19T09:24:41.001Z</time></trkpt><trkpt lat="45.819379872951835" lon="11.471451269793244"><ele>1242.0</ele><time>2026-04-19T09:24:42.001Z</time></trkpt><trkpt lat="45.8195099217802" lon="11.47154170363111"><ele>1240.0</ele><time>2026-04-19T09:24:44.001Z</time></trkpt><trkpt lat="45.81958520884548" lon="11.471560823753295"><ele>1238.0</ele><time>2026-04-19T09:24:45.001Z</time></trkpt><trkpt lat="45.81965852255713" lon="11.471533950218497"><ele>1236.0</ele><time>2026-04-19T09:24:46.001Z</time></trkpt><trkpt lat="45.81973011108753" lon="11.471493350892755"><ele>1236.0</ele><time>2026-04-19T09:24:48.001Z</time></trkpt><trkpt lat="45.81985367608387" lon="11.471523756271795"><ele>1236.0</ele><time>2026-04-19T09:24:50.001Z</time></trkpt><trkpt lat="45.81993815377389" lon="11.471551582828564"><ele>1236.0</ele><time>2026-04-19T09:24:51.001Z</time></trkpt><trkpt lat="45.820019876665675" lon="11.471579374726767"><ele>1236.0</ele><time>2026-04-19T09:24:52.001Z</time></trkpt><trkpt lat="45.820094636273645" lon="11.471637053802375"><ele>1236.0</ele><time>2026-04-19T09:24:53.001Z</time></trkpt><trkpt lat="45.820152717290306" lon="11.47167286704623"><ele>1236.0</ele><time>2026-04-19T09:24:54.001Z</time></trkpt><trkpt lat="45.82023892851585" lon="11.471772133299892"><ele>1236.6</ele><time>2026-04-19T09:24:56.001Z</time></trkpt><trkpt lat="45.82026236619654" lon="11.471888842978176"><ele>1237.1999999999998</ele><time>2026-04-19T09:24:58.001Z</time></trkpt><trkpt lat="45.82026138122953" lon="11.472020302796643"><ele>1237.8000000000002</ele><time>2026-04-19T09:24:59.001Z</time></trkpt><trkpt lat="45.820296754182024" lon="11.4721368477031"><ele>1238.4</ele><time>2026-04-19T09:25:00.001Z</time></trkpt><trkpt lat="45.820339381845784" lon="11.47226574549241"><ele>1239.0</ele><time>2026-04-19T09:25:01.001Z</time></trkpt><trkpt lat="45.820386393163695" lon="11.47239643287672"><ele>1236.8</ele><time>2026-04-19T09:25:02.001Z</time></trkpt><trkpt lat="45.820420280828245" lon="11.47251207128382"><ele>1234.6000000000001</ele><time>2026-04-19T09:25:03.001Z</time></trkpt><trkpt lat="45.82044706202644" lon="11.472612400407835"><ele>1232.4</ele><time>2026-04-19T09:25:04.001Z</time></trkpt><trkpt lat="45.82047165206819" lon="11.472704740748249"><ele>1230.2</ele><time>2026-04-19T09:25:05.001Z</time></trkpt><trkpt lat="45.82050979217696" lon="11.472847772312017"><ele>1228.0</ele><time>2026-04-19T09:25:07.001Z</time></trkpt><trkpt lat="45.82053634451996" lon="11.473004104515425"><ele>1228.0</ele><time>2026-04-19T09:25:08.001Z</time></trkpt><trkpt lat="45.82052932473014" lon="11.47314138921738"><ele>1228.0</ele><time>2026-04-19T09:25:10.001Z</time></trkpt><trkpt lat="45.82048556856388" lon="11.473259156552103"><ele>1228.0</ele><time>2026-04-19T09:25:12.001Z</time></trkpt><trkpt lat="45.82047794514106" lon="11.473404978415628"><ele>1228.0</ele><time>2026-04-19T09:25:13.001Z</time></trkpt><trkpt lat="45.82049155901011" lon="11.473520263241653"><ele>1228.0</ele><time>2026-04-19T09:25:14.001Z</time></trkpt><trkpt lat="45.820512220585684" lon="11.473624428220319"><ele>1228.0</ele><time>2026-04-19T09:25:15.001Z</time></trkpt><trkpt lat="45.82053553656288" lon="11.473724440475314"><ele>1228.0</ele><time>2026-04-19T09:25:16.001Z</time></trkpt><trkpt lat="45.82056086741755" lon="11.473815942324235"><ele>1228.0</ele><time>2026-04-19T09:25:17.001Z</time></trkpt><trkpt lat="45.820604535546906" lon="11.473923428044973"><ele>1228.0</ele><time>2026-04-19T09:25:18.001Z</time></trkpt><trkpt lat="45.8206445367572" lon="11.474011766475634"><ele>1228.0</ele><time>2026-04-19T09:25:19.001Z</time></trkpt><trkpt lat="45.82070032860594" lon="11.474114644329589"><ele>1228.0</ele><time>2026-04-19T09:25:20.001Z</time></trkpt><trkpt lat="45.82079334922536" lon="11.474237403289065"><ele>1228.0</ele><time>2026-04-19T09:25:22.001Z</time></trkpt><trkpt lat="45.82084354958218" lon="11.474295965743387"><ele>1228.0</ele><time>2026-04-19T09:25:23.001Z</time></trkpt><trkpt lat="45.820901615782255" lon="11.474351381151722"><ele>1228.0</ele><time>2026-04-19T09:25:24.001Z</time></trkpt><trkpt lat="45.821009620851264" lon="11.474423228720186"><ele>1228.0</ele><time>2026-04-19T09:25:26.001Z</time></trkpt><trkpt lat="45.821082834624455" lon="11.474434946789682"><ele>1228.0</ele><time>2026-04-19T09:25:27.001Z</time></trkpt><trkpt lat="45.82132841095343" lon="11.474443616158874"><ele>1227.0</ele><time>2026-04-19T09:25:31Z</time></trkpt><trkpt lat="45.821494841625864" lon="11.474446180463154"><ele>1226.0</ele><time>2026-04-19T09:25:32Z</time></trkpt><trkpt lat="45.8215957838047" lon="11.47447716491306"><ele>1225.0</ele><time>2026-04-19T09:25:34Z</time></trkpt><trkpt lat="45.821682224466315" lon="11.474518545043797"><ele>1224.0</ele><time>2026-04-19T09:25:36Z</time></trkpt><trkpt lat="45.82180192834766" lon="11.474614154053674"><ele>1221.6000000000001</ele><time>2026-04-19T09:25:38Z</time></trkpt><trkpt lat="45.82190024633881" lon="11.47464603368387"><ele>1219.2</ele><time>2026-04-19T09:25:40Z</time></trkpt><trkpt lat="45.822012949931704" lon="11.474710548881513"><ele>1216.8000000000002</ele><time>2026-04-19T09:25:42Z</time></trkpt><trkpt lat="45.8220744603981" lon="11.474747690797253"><ele>1214.4</ele><time>2026-04-19T09:25:43Z</time></trkpt><trkpt lat="45.82214622210451" lon="11.474794024257307"><ele>1212.0</ele><time>2026-04-19T09:25:44Z</time></trkpt><trkpt lat="45.82222646932869" lon="11.474868532979498"><ele>1212.0</ele><time>2026-04-19T09:25:46Z</time></trkpt><trkpt lat="45.8223004732874" lon="11.474936324443558"><ele>1212.0</ele><time>2026-04-19T09:25:48Z</time></trkpt><trkpt lat="45.822403439062676" lon="11.474985049780036"><ele>1212.0</ele><time>2026-04-19T09:25:49Z</time></trkpt><trkpt lat="45.82249014626055" lon="11.47499003441916"><ele>1212.0</ele><time>2026-04-19T09:25:51Z</time></trkpt><trkpt lat="45.822574082818356" lon="11.47499554471951"><ele>1212.0</ele><time>2026-04-19T09:25:52Z</time></trkpt><trkpt lat="45.8226742761007" lon="11.47498718229821"><ele>1209.8</ele><time>2026-04-19T09:25:53Z</time></trkpt><trkpt lat="45.822741942504244" lon="11.475035516783825"><ele>1207.6</ele><time>2026-04-19T09:25:54Z</time></trkpt><trkpt lat="45.82281506943994" lon="11.475054515032086"><ele>1205.3999999999999</ele><time>2026-04-19T09:25:55Z</time></trkpt><trkpt lat="45.8228954487749" lon="11.475071017913795"><ele>1203.2</ele><time>2026-04-19T09:25:56Z</time></trkpt><trkpt lat="45.82300385351494" lon="11.475107109351612"><ele>1201.0</ele><time>2026-04-19T09:25:58Z</time></trkpt><trkpt lat="45.82311402579032" lon="11.47510570065886"><ele>1201.0</ele><time>2026-04-19T09:26:00Z</time></trkpt><trkpt lat="45.82320357391368" lon="11.475023103028482"><ele>1201.0</ele><time>2026-04-19T09:26:02Z</time></trkpt><trkpt lat="45.82326955943059" lon="11.474922200368315"><ele>1201.0</ele><time>2026-04-19T09:26:04Z</time></trkpt><trkpt lat="45.82339270233361" lon="11.474933224319148"><ele>1201.0</ele><time>2026-04-19T09:26:06Z</time></trkpt><trkpt lat="45.82345170752472" lon="11.474977808156464"><ele>1201.0</ele><time>2026-04-19T09:26:07Z</time></trkpt><trkpt lat="45.82352242344223" lon="11.475069286118213"><ele>1199.6</ele><time>2026-04-19T09:26:09Z</time></trkpt><trkpt lat="45.823578166074235" lon="11.475240435610852"><ele>1198.1999999999998</ele><time>2026-04-19T09:26:11Z</time></trkpt><trkpt lat="45.82362442171932" lon="11.47536437455627"><ele>1196.8000000000002</ele><time>2026-04-19T09:26:13Z</time></trkpt><trkpt lat="45.82365712608492" lon="11.475462071137347"><ele>1195.4</ele><time>2026-04-19T09:26:14Z</time></trkpt><trkpt lat="45.823690994019174" lon="11.47557797377381"><ele>1194.0</ele><time>2026-04-19T09:26:15Z</time></trkpt><trkpt lat="45.82371622440284" lon="11.475685101944402"><ele>1192.0</ele><time>2026-04-19T09:26:16Z</time></trkpt><trkpt lat="45.82373488572361" lon="11.47580012604478"><ele>1190.0</ele><time>2026-04-19T09:26:17Z</time></trkpt><trkpt lat="45.823746438718345" lon="11.475891093728062"><ele>1188.0</ele><time>2026-04-19T09:26:18Z</time></trkpt><trkpt lat="45.82375541576716" lon="11.47598958072176"><ele>1186.0</ele><time>2026-04-19T09:26:19Z</time></trkpt><trkpt lat="45.82376468183289" lon="11.47608129985037"><ele>1184.0</ele><time>2026-04-19T09:26:20Z</time></trkpt><trkpt lat="45.82379257606842" lon="11.47621215299103"><ele>1182.0</ele><time>2026-04-19T09:26:21Z</time></trkpt><trkpt lat="45.82380204628956" lon="11.47632343483768"><ele>1181.5</ele><time>2026-04-19T09:26:22Z</time></trkpt><trkpt lat="45.823814636189184" lon="11.47644588634311"><ele>1181.0</ele><time>2026-04-19T09:26:23Z</time></trkpt><trkpt lat="45.82383786524321" lon="11.476564424076788"><ele>1180.5</ele><time>2026-04-19T09:26:24Z</time></trkpt><trkpt lat="45.82386835574088" lon="11.476674106371615"><ele>1180.0</ele><time>2026-04-19T09:26:25Z</time></trkpt><trkpt lat="45.82393010593144" lon="11.476752172048542"><ele>1179.5</ele><time>2026-04-19T09:26:28Z</time></trkpt><trkpt lat="45.823961655102835" lon="11.476853008016253"><ele>1179.0</ele><time>2026-04-19T09:26:29Z</time></trkpt><trkpt lat="45.82398113130134" lon="11.476939636722008"><ele>1179.0</ele><time>2026-04-19T09:26:30Z</time></trkpt><trkpt lat="45.82404539472656" lon="11.476991760467351"><ele>1179.0</ele><time>2026-04-19T09:26:31Z</time></trkpt><trkpt lat="45.8241530087622" lon="11.477099091578642"><ele>1179.0</ele><time>2026-04-19T09:26:33Z</time></trkpt><trkpt lat="45.824235522303226" lon="11.47716166606111"><ele>1179.0</ele><time>2026-04-19T09:26:34Z</time></trkpt><trkpt lat="45.82432435116001" lon="11.477230989002162"><ele>1179.0</ele><time>2026-04-19T09:26:35Z</time></trkpt><trkpt lat="45.82444239625775" lon="11.477269507363667"><ele>1176.4</ele><time>2026-04-19T09:26:37Z</time></trkpt><trkpt lat="45.82453113716409" lon="11.477315984102797"><ele>1173.8000000000002</ele><time>2026-04-19T09:26:38Z</time></trkpt><trkpt lat="45.82464260210607" lon="11.477354516795288"><ele>1171.1999999999998</ele><time>2026-04-19T09:26:39Z</time></trkpt><trkpt lat="45.82474921409168" lon="11.477372418632122"><ele>1168.6</ele><time>2026-04-19T09:26:41Z</time></trkpt><trkpt lat="45.824832302628046" lon="11.477400932604867"><ele>1166.0</ele><time>2026-04-19T09:26:42Z</time></trkpt><trkpt lat="45.824980567887934" lon="11.477458371764726"><ele>1166.0</ele><time>2026-04-19T09:26:44Z</time></trkpt><trkpt lat="45.825114793095565" lon="11.477449556370708"><ele>1166.0</ele><time>2026-04-19T09:26:45Z</time></trkpt><trkpt lat="45.82518208797988" lon="11.477459393623485"><ele>1166.0</ele><time>2026-04-19T09:26:46Z</time></trkpt><trkpt lat="45.825305135211316" lon="11.477449818012566"><ele>1166.0</ele><time>2026-04-19T09:26:48Z</time></trkpt><trkpt lat="45.82538515093903" lon="11.47743690902166"><ele>1166.0</ele><time>2026-04-19T09:26:49Z</time></trkpt><trkpt lat="45.825474575948434" lon="11.47742031294523"><ele>1163.75</ele><time>2026-04-19T09:26:50Z</time></trkpt><trkpt lat="45.82559975492433" lon="11.477379915678847"><ele>1161.5</ele><time>2026-04-19T09:26:52Z</time></trkpt><trkpt lat="45.825697643567636" lon="11.477402942591082"><ele>1159.25</ele><time>2026-04-19T09:26:54Z</time></trkpt><trkpt lat="45.82576425731322" lon="11.477394835577634"><ele>1157.0</ele><time>2026-04-19T09:26:55Z</time></trkpt><trkpt lat="45.825919492391286" lon="11.477498654908043"><ele>1154.2</ele><time>2026-04-19T09:26:57Z</time></trkpt><trkpt lat="45.8260149989752" lon="11.477621779512274"><ele>1151.4</ele><time>2026-04-19T09:26:59Z</time></trkpt><trkpt lat="45.82609574966507" lon="11.477667603127045"><ele>1148.6</ele><time>2026-04-19T09:27:00Z</time></trkpt><trkpt lat="45.82618690397868" lon="11.477821046153617"><ele>1145.8</ele><time>2026-04-19T09:27:01Z</time></trkpt><trkpt lat="45.82626613014665" lon="11.477891341109144"><ele>1143.0</ele><time>2026-04-19T09:27:02Z</time></trkpt><trkpt lat="45.82632305654463" lon="11.477983063518057"><ele>1142.8</ele><time>2026-04-19T09:27:03Z</time></trkpt><trkpt lat="45.82639791723315" lon="11.478086508210609"><ele>1142.6</ele><time>2026-04-19T09:27:04Z</time></trkpt><trkpt lat="45.82644829203428" lon="11.478185536874006"><ele>1142.4</ele><time>2026-04-19T09:27:06Z</time></trkpt><trkpt lat="45.826483475216094" lon="11.478267765082558"><ele>1142.2</ele><time>2026-04-19T09:27:07Z</time></trkpt><trkpt lat="45.82650293369598" lon="11.478445062671794"><ele>1142.0</ele><time>2026-04-19T09:27:09Z</time></trkpt><trkpt lat="45.82648640508007" lon="11.478299884636279"><ele>1142.0</ele><time>2026-04-19T09:27:10Z</time></trkpt><trkpt lat="45.8265280098997" lon="11.478446006672321"><ele>1142.0</ele><time>2026-04-19T09:27:12Z</time></trkpt><trkpt lat="45.82656499757876" lon="11.478555530974589"><ele>1142.0</ele><time>2026-04-19T09:27:14.001Z</time></trkpt><trkpt lat="45.82669835497091" lon="11.47852388561706"><ele>1142.0</ele><time>2026-04-19T09:27:16.001Z</time></trkpt><trkpt lat="45.82674773998862" lon="11.478391802128762"><ele>1142.0</ele><time>2026-04-19T09:27:18.001Z</time></trkpt><trkpt lat="45.826760913266405" lon="11.478269621650243"><ele>1142.0</ele><time>2026-04-19T09:27:20.001Z</time></trkpt><trkpt lat="45.826786300061" lon="11.47810906855544"><ele>1142.0</ele><time>2026-04-19T09:27:22.001Z</time></trkpt><trkpt lat="45.82679767306207" lon="11.478018372887732"><ele>1142.0</ele><time>2026-04-19T09:27:23.001Z</time></trkpt><trkpt lat="45.82681147076717" lon="11.477860260000465"><ele>1142.0</ele><time>2026-04-19T09:27:25.001Z</time></trkpt><trkpt lat="45.82682094049274" lon="11.477721280615656"><ele>1142.0</ele><time>2026-04-19T09:27:27.001Z</time></trkpt><trkpt lat="45.826822171820844" lon="11.47757969914745"><ele>1140.8</ele><time>2026-04-19T09:27:29.001Z</time></trkpt><trkpt lat="45.82682235947544" lon="11.477400337927232"><ele>1139.6</ele><time>2026-04-19T09:27:31.001Z</time></trkpt><trkpt lat="45.82682745342405" lon="11.477250922474655"><ele>1138.3999999999999</ele><time>2026-04-19T09:27:33.001Z</time></trkpt><trkpt lat="45.8268992078343" lon="11.477244794520868"><ele>1137.2</ele><time>2026-04-19T09:27:34Z</time></trkpt><trkpt lat="45.82694265820953" lon="11.477349042416172"><ele>1136.0</ele><time>2026-04-19T09:27:35Z</time></trkpt><trkpt lat="45.8270684406794" lon="11.47755746279411"><ele>1136.0</ele><time>2026-04-19T09:27:39Z</time></trkpt><trkpt lat="45.82713208095709" lon="11.477610769734733"><ele>1136.0</ele><time>2026-04-19T09:27:40Z</time></trkpt><trkpt lat="45.827208316423395" lon="11.477649476674449"><ele>1136.0</ele><time>2026-04-19T09:27:42Z</time></trkpt><trkpt lat="45.827316174101284" lon="11.4777799250501"><ele>1136.0</ele><time>2026-04-19T09:27:44Z</time></trkpt><trkpt lat="45.82743570107249" lon="11.477826269313516"><ele>1136.0</ele><time>2026-04-19T09:27:45Z</time></trkpt><trkpt lat="45.82755063174253" lon="11.4779524953745"><ele>1135.1666666666667</ele><time>2026-04-19T09:27:46Z</time></trkpt><trkpt lat="45.82763556563497" lon="11.478081478954294"><ele>1134.3333333333335</ele><time>2026-04-19T09:27:47Z</time></trkpt><trkpt lat="45.82769865685337" lon="11.478211708519902"><ele>1133.5</ele><time>2026-04-19T09:27:48Z</time></trkpt><trkpt lat="45.82774936837772" lon="11.47828812383718"><ele>1132.6666666666667</ele><time>2026-04-19T09:27:49Z</time></trkpt><trkpt lat="45.827797182712914" lon="11.478364548179066"><ele>1131.8333333333333</ele><time>2026-04-19T09:27:50Z</time></trkpt><trkpt lat="45.82784817839456" lon="11.478433853665909"><ele>1131.0</ele><time>2026-04-19T09:27:51Z</time></trkpt><trkpt lat="45.82792686696487" lon="11.47850511582471"><ele>1128.0</ele><time>2026-04-19T09:27:53Z</time></trkpt><trkpt lat="45.82805992185033" lon="11.47850797236949"><ele>1125.0</ele><time>2026-04-19T09:27:55Z</time></trkpt><trkpt lat="45.828140955123324" lon="11.478570602546586"><ele>1122.0</ele><time>2026-04-19T09:27:57Z</time></trkpt><trkpt lat="45.828251782440134" lon="11.478664705770562"><ele>1119.0</ele><time>2026-04-19T09:27:59Z</time></trkpt><trkpt lat="45.82819781589508" lon="11.478930694532062"><ele>1119.0</ele><time>2026-04-19T09:28:01Z</time></trkpt><trkpt lat="45.82823391403596" lon="11.479029241221934"><ele>1119.0</ele><time>2026-04-19T09:28:03Z</time></trkpt><trkpt lat="45.82827207665765" lon="11.479118868797404"><ele>1119.0</ele><time>2026-04-19T09:28:04Z</time></trkpt><trkpt lat="45.828336056220145" lon="11.47925196717207"><ele>1119.0</ele><time>2026-04-19T09:28:06Z</time></trkpt><trkpt lat="45.828460832952686" lon="11.479320660745989"><ele>1119.0</ele><time>2026-04-19T09:28:08Z</time></trkpt><trkpt lat="45.8285513688188" lon="11.479302098841652"><ele>1116.8</ele><time>2026-04-19T09:28:09Z</time></trkpt><trkpt lat="45.828632632959746" lon="11.479292825162714"><ele>1114.6000000000001</ele><time>2026-04-19T09:28:10Z</time></trkpt><trkpt lat="45.828786822870235" lon="11.479258837801957"><ele>1112.4</ele><time>2026-04-19T09:28:12Z</time></trkpt><trkpt lat="45.82885930392821" lon="11.479280462308799"><ele>1110.2</ele><time>2026-04-19T09:28:13Z</time></trkpt><trkpt lat="45.82893396715299" lon="11.479279847148938"><ele>1108.0</ele><time>2026-04-19T09:28:14Z</time></trkpt><trkpt lat="45.82904019315516" lon="11.479256805129605"><ele>1108.0</ele><time>2026-04-19T09:28:17Z</time></trkpt><trkpt lat="45.82911048864637" lon="11.47922340483706"><ele>1108.0</ele><time>2026-04-19T09:28:18Z</time></trkpt><trkpt lat="45.82918695562995" lon="11.479184300294271"><ele>1108.0</ele><time>2026-04-19T09:28:19Z</time></trkpt><trkpt lat="45.82928371054329" lon="11.479133780216285"><ele>1108.0</ele><time>2026-04-19T09:28:21Z</time></trkpt><trkpt lat="45.82936122845265" lon="11.47917069259062"><ele>1108.0</ele><time>2026-04-19T09:28:23Z</time></trkpt><trkpt lat="45.82945331109224" lon="11.479259629890626"><ele>1107.8333333333333</ele><time>2026-04-19T09:28:25Z</time></trkpt><trkpt lat="45.82949547386886" lon="11.479340004790991"><ele>1107.6666666666665</ele><time>2026-04-19T09:28:26Z</time></trkpt><trkpt lat="45.829536128027954" lon="11.479452033019413"><ele>1107.5</ele><time>2026-04-19T09:28:27Z</time></trkpt><trkpt lat="45.829599974462475" lon="11.479477601365417"><ele>1107.3333333333333</ele><time>2026-04-19T09:28:28Z</time></trkpt><trkpt lat="45.82969459422043" lon="11.479561781921992"><ele>1107.1666666666667</ele><time>2026-04-19T09:28:30Z</time></trkpt><trkpt lat="45.82975655904312" lon="11.479680317346775"><ele>1107.0</ele><time>2026-04-19T09:28:32Z</time></trkpt><trkpt lat="45.82973984042014" lon="11.479810997798918"><ele>1107.0</ele><time>2026-04-19T09:28:34Z</time></trkpt><trkpt lat="45.8297073450806" lon="11.479998094968742"><ele>1107.0</ele><time>2026-04-19T09:28:36Z</time></trkpt><trkpt lat="45.82970102070989" lon="11.480107076463016"><ele>1107.0</ele><time>2026-04-19T09:28:37Z</time></trkpt><trkpt lat="45.82970216426571" lon="11.48020424462469"><ele>1107.0</ele><time>2026-04-19T09:28:38Z</time></trkpt><trkpt lat="45.82972045731296" lon="11.480344493368316"><ele>1107.0</ele><time>2026-04-19T09:28:39Z</time></trkpt><trkpt lat="45.82975083303753" lon="11.480479486307914"><ele>1108.8</ele><time>2026-04-19T09:28:40Z</time></trkpt><trkpt lat="45.829793902754716" lon="11.480607354344668"><ele>1110.6</ele><time>2026-04-19T09:28:41Z</time></trkpt><trkpt lat="45.829864774701534" lon="11.480707175836228"><ele>1112.3999999999999</ele><time>2026-04-19T09:28:42Z</time></trkpt><trkpt lat="45.82994688176203" lon="11.480819433911"><ele>1114.2</ele><time>2026-04-19T09:28:43Z</time></trkpt><trkpt lat="45.83004509956307" lon="11.480937528521014"><ele>1116.0</ele><time>2026-04-19T09:28:44Z</time></trkpt><trkpt lat="45.830124190749444" lon="11.481003254096565"><ele>1116.6</ele><time>2026-04-19T09:28:45Z</time></trkpt><trkpt lat="45.83020364442508" lon="11.481116556998334"><ele>1117.1999999999998</ele><time>2026-04-19T09:28:46Z</time></trkpt><trkpt lat="45.83028647836043" lon="11.481226580504515"><ele>1117.8000000000002</ele><time>2026-04-19T09:28:47Z</time></trkpt><trkpt lat="45.830356032054496" lon="11.48131654350904"><ele>1118.4</ele><time>2026-04-19T09:28:48Z</time></trkpt><trkpt lat="45.830412557621734" lon="11.481392014874196"><ele>1119.0</ele><time>2026-04-19T09:28:49Z</time></trkpt><trkpt lat="45.8304480086392" lon="11.481482178661953"><ele>1119.0</ele><time>2026-04-19T09:28:50Z</time></trkpt><trkpt lat="45.8304846209744" lon="11.48156585459608"><ele>1119.0</ele><time>2026-04-19T09:28:51Z</time></trkpt><trkpt lat="45.830519535713464" lon="11.48166332074794"><ele>1119.0</ele><time>2026-04-19T09:28:52Z</time></trkpt><trkpt lat="45.830557404651195" lon="11.481750355200804"><ele>1119.0</ele><time>2026-04-19T09:28:53Z</time></trkpt><trkpt lat="45.830618831912396" lon="11.481853078835464"><ele>1119.0</ele><time>2026-04-19T09:28:54Z</time></trkpt><trkpt lat="45.8306999226268" lon="11.481924928734326"><ele>1119.0</ele><time>2026-04-19T09:28:55Z</time></trkpt><trkpt lat="45.83075331053554" lon="11.482000626522183"><ele>1119.0</ele><time>2026-04-19T09:28:56Z</time></trkpt><trkpt lat="45.83086472195808" lon="11.482040198149527"><ele>1119.0</ele><time>2026-04-19T09:28:57Z</time></trkpt><trkpt lat="45.830954423723" lon="11.482085395966438"><ele>1119.0</ele><time>2026-04-19T09:28:58Z</time></trkpt><trkpt lat="45.83103334136068" lon="11.48215710812199"><ele>1119.0</ele><time>2026-04-19T09:28:59Z</time></trkpt><trkpt lat="45.83112295211496" lon="11.482265893165499"><ele>1119.0</ele><time>2026-04-19T09:29:03Z</time></trkpt><trkpt lat="45.83117016712479" lon="11.482371930248263"><ele>1119.6000000000001</ele><time>2026-04-19T09:29:04Z</time></trkpt><trkpt lat="45.83123256542066" lon="11.482451220888201"><ele>1120.2</ele><time>2026-04-19T09:29:05Z</time></trkpt><trkpt lat="45.831332936669185" lon="11.482519468074818"><ele>1120.8000000000002</ele><time>2026-04-19T09:29:06Z</time></trkpt><trkpt lat="45.83139660918547" lon="11.482552586325758"><ele>1121.4</ele><time>2026-04-19T09:29:07Z</time></trkpt><trkpt lat="45.83146680257147" lon="11.48260363542385"><ele>1122.0</ele><time>2026-04-19T09:29:08Z</time></trkpt><trkpt lat="45.83158713081685" lon="11.482749102542284"><ele>1122.0</ele><time>2026-04-19T09:29:10Z</time></trkpt><trkpt lat="45.83162604974964" lon="11.482845299499871"><ele>1122.0</ele><time>2026-04-19T09:29:11Z</time></trkpt><trkpt lat="45.831706544970274" lon="11.483062051021005"><ele>1122.0</ele><time>2026-04-19T09:29:13Z</time></trkpt><trkpt lat="45.83175550140051" lon="11.483195704154701"><ele>1122.0</ele><time>2026-04-19T09:29:14Z</time></trkpt><trkpt lat="45.83181131052734" lon="11.48332205383299"><ele>1123.4</ele><time>2026-04-19T09:29:15.001Z</time></trkpt><trkpt lat="45.831869094081945" lon="11.48342223912857"><ele>1124.8000000000002</ele><time>2026-04-19T09:29:16.001Z</time></trkpt><trkpt lat="45.8319570641373" lon="11.483544684646807"><ele>1126.2</ele><time>2026-04-19T09:29:17.001Z</time></trkpt><trkpt lat="45.83203524223938" lon="11.48364068921131"><ele>1127.6000000000001</ele><time>2026-04-19T09:29:18.001Z</time></trkpt><trkpt lat="45.83209223624344" lon="11.483736854546867"><ele>1129.0</ele><time>2026-04-19T09:29:19.001Z</time></trkpt><trkpt lat="45.83214759049956" lon="11.483825544962889"><ele>1131.2</ele><time>2026-04-19T09:29:20.001Z</time></trkpt><trkpt lat="45.83221501834491" lon="11.483924112917116"><ele>1133.4</ele><time>2026-04-19T09:29:21.001Z</time></trkpt><trkpt lat="45.83227098390346" lon="11.484004213408733"><ele>1135.6</ele><time>2026-04-19T09:29:22.001Z</time></trkpt><trkpt lat="45.83230885201606" lon="11.484102396370137"><ele>1137.8</ele><time>2026-04-19T09:29:24.001Z</time></trkpt><trkpt lat="45.83231997824161" lon="11.484244807738595"><ele>1140.0</ele><time>2026-04-19T09:29:26.001Z</time></trkpt><trkpt lat="45.832326342393166" lon="11.484444487829583"><ele>1141.2</ele><time>2026-04-19T09:29:28.001Z</time></trkpt><trkpt lat="45.83230073260579" lon="11.484669392223568"><ele>1142.4</ele><time>2026-04-19T09:29:30.001Z</time></trkpt><trkpt lat="45.832337046085186" lon="11.484852988455403"><ele>1143.6</ele><time>2026-04-19T09:29:32.001Z</time></trkpt><trkpt lat="45.832353174371256" lon="11.484942143420874"><ele>1144.8</ele><time>2026-04-19T09:29:33.001Z</time></trkpt><trkpt lat="45.832368407959265" lon="11.485031671994662"><ele>1146.0</ele><time>2026-04-19T09:29:34.001Z</time></trkpt><trkpt lat="45.83237929157277" lon="11.485149860818025"><ele>1146.0</ele><time>2026-04-19T09:29:36.001Z</time></trkpt><trkpt lat="45.83233114264745" lon="11.48528568936005"><ele>1146.0</ele><time>2026-04-19T09:29:38.001Z</time></trkpt><trkpt lat="45.83227519357895" lon="11.485398082010583"><ele>1146.0</ele><time>2026-04-19T09:29:40Z</time></trkpt><trkpt lat="45.83222624911583" lon="11.485505161684614"><ele>1146.0</ele><time>2026-04-19T09:29:42Z</time></trkpt><trkpt lat="45.832153891682296" lon="11.485681718896288"><ele>1146.0</ele><time>2026-04-19T09:29:43Z</time></trkpt><trkpt lat="45.83214416204009" lon="11.485857303971418"><ele>1146.5</ele><time>2026-04-19T09:29:44Z</time></trkpt><trkpt lat="45.832156446187135" lon="11.48594849292013"><ele>1147.0</ele><time>2026-04-19T09:29:45Z</time></trkpt><trkpt lat="45.8321858401489" lon="11.486085646270784"><ele>1147.5</ele><time>2026-04-19T09:29:46Z</time></trkpt><trkpt lat="45.83220712703068" lon="11.486185957864066"><ele>1148.0</ele><time>2026-04-19T09:29:47Z</time></trkpt><trkpt lat="45.832223116689036" lon="11.486329012200509"><ele>1148.5</ele><time>2026-04-19T09:29:49Z</time></trkpt><trkpt lat="45.832258987315534" lon="11.486444042232412"><ele>1149.0</ele><time>2026-04-19T09:29:51Z</time></trkpt><trkpt lat="45.832290199731524" lon="11.486589271720925"><ele>1150.2</ele><time>2026-04-19T09:29:52Z</time></trkpt><trkpt lat="45.83231428286056" lon="11.486736512732092"><ele>1151.4</ele><time>2026-04-19T09:29:54Z</time></trkpt><trkpt lat="45.83229573731638" lon="11.486891261326921"><ele>1152.6</ele><time>2026-04-19T09:29:56Z</time></trkpt><trkpt lat="45.83225248656724" lon="11.486959669929863"><ele>1153.8</ele><time>2026-04-19T09:29:57Z</time></trkpt><trkpt lat="45.832299977537474" lon="11.487110830067188"><ele>1155.0</ele><time>2026-04-19T09:30:00Z</time></trkpt><trkpt lat="45.832361916632976" lon="11.48717126814828"><ele>1156.8</ele><time>2026-04-19T09:30:02Z</time></trkpt><trkpt lat="45.83244572428856" lon="11.487120285875625"><ele>1158.6</ele><time>2026-04-19T09:30:03Z</time></trkpt><trkpt lat="45.83251844652581" lon="11.487233925101608"><ele>1160.4</ele><time>2026-04-19T09:30:05Z</time></trkpt><trkpt lat="45.83256914562048" lon="11.487382392566259"><ele>1162.2</ele><time>2026-04-19T09:30:06Z</time></trkpt><trkpt lat="45.83258104416938" lon="11.48752364155084"><ele>1164.0</ele><time>2026-04-19T09:30:07Z</time></trkpt><trkpt lat="45.832613625528644" lon="11.487606534301884"><ele>1163.1666666666667</ele><time>2026-04-19T09:30:08Z</time></trkpt><trkpt lat="45.83264947306622" lon="11.487688203713002"><ele>1162.3333333333333</ele><time>2026-04-19T09:30:09Z</time></trkpt><trkpt lat="45.83270576729537" lon="11.48777725136584"><ele>1161.5</ele><time>2026-04-19T09:30:10Z</time></trkpt><trkpt lat="45.832801223430266" lon="11.48784368158114"><ele>1160.6666666666665</ele><time>2026-04-19T09:30:11Z</time></trkpt><trkpt lat="45.832879694174075" lon="11.487875409192071"><ele>1159.8333333333333</ele><time>2026-04-19T09:30:13Z</time></trkpt><trkpt lat="45.832952125960226" lon="11.487960987553421"><ele>1159.0</ele><time>2026-04-19T09:30:15Z</time></trkpt><trkpt lat="45.833007841668035" lon="11.488013277108381"><ele>1162.2</ele><time>2026-04-19T09:30:17Z</time></trkpt><trkpt lat="45.833096631942745" lon="11.488087089433991"><ele>1165.4</ele><time>2026-04-19T09:30:19Z</time></trkpt><trkpt lat="45.833180034905965" lon="11.488115021816903"><ele>1168.6</ele><time>2026-04-19T09:30:20Z</time></trkpt><trkpt lat="45.833288392326274" lon="11.488177782273594"><ele>1171.8</ele><time>2026-04-19T09:30:21Z</time></trkpt><trkpt lat="45.83336245480628" lon="11.488217460885373"><ele>1175.0</ele><time>2026-04-19T09:30:22Z</time></trkpt><trkpt lat="45.83345055883444" lon="11.488237059919554"><ele>1174.4</ele><time>2026-04-19T09:30:23Z</time></trkpt><trkpt lat="45.83352645427349" lon="11.488265595563105"><ele>1173.8</ele><time>2026-04-19T09:30:24Z</time></trkpt><trkpt lat="45.83358923484897" lon="11.488290242670852"><ele>1173.2</ele><time>2026-04-19T09:30:25Z</time></trkpt><trkpt lat="45.83366371544855" lon="11.488342515406243"><ele>1172.6</ele><time>2026-04-19T09:30:26Z</time></trkpt><trkpt lat="45.83381387780312" lon="11.488409953977603"><ele>1172.0</ele><time>2026-04-19T09:30:27Z</time></trkpt><trkpt lat="45.833887271888194" lon="11.488443854993507"><ele>1172.0</ele><time>2026-04-19T09:30:28Z</time></trkpt><trkpt lat="45.83397160376032" lon="11.488492184150344"><ele>1172.0</ele><time>2026-04-19T09:30:29Z</time></trkpt><trkpt lat="45.834023859956474" lon="11.488555176296499"><ele>1172.0</ele><time>2026-04-19T09:30:30Z</time></trkpt><trkpt lat="45.83411089544581" lon="11.488640631118907"><ele>1172.0</ele><time>2026-04-19T09:30:31Z</time></trkpt><trkpt lat="45.834159029379876" lon="11.488715424648131"><ele>1172.0</ele><time>2026-04-19T09:30:32Z</time></trkpt><trkpt lat="45.83423560684278" lon="11.488716214484388"><ele>1172.0</ele><time>2026-04-19T09:30:33Z</time></trkpt><trkpt lat="45.834303127569264" lon="11.488647496591186"><ele>1172.3333333333335</ele><time>2026-04-19T09:30:35Z</time></trkpt><trkpt lat="45.83434625081053" lon="11.488540051514004"><ele>1172.6666666666667</ele><time>2026-04-19T09:30:37Z</time></trkpt><trkpt lat="45.83442975334628" lon="11.48847718328052"><ele>1173.0</ele><time>2026-04-19T09:30:39Z</time></trkpt><trkpt lat="45.83448909619124" lon="11.488426922954204"><ele>1173.3333333333333</ele><time>2026-04-19T09:30:40Z</time></trkpt><trkpt lat="45.83458746878419" lon="11.488407967436478"><ele>1173.6666666666665</ele><time>2026-04-19T09:30:42Z</time></trkpt><trkpt lat="45.83467254217332" lon="11.488364969584387"><ele>1174.0</ele><time>2026-04-19T09:30:44Z</time></trkpt><trkpt lat="45.83474268430712" lon="11.488377295079296"><ele>1174.0</ele><time>2026-04-19T09:30:46Z</time></trkpt><trkpt lat="45.83482359747307" lon="11.488387811198411"><ele>1174.0</ele><time>2026-04-19T09:30:48Z</time></trkpt><trkpt lat="45.834923737961724" lon="11.488415025043846"><ele>1174.0</ele><time>2026-04-19T09:30:49Z</time></trkpt><trkpt lat="45.83503677834066" lon="11.488472321054692"><ele>1174.0</ele><time>2026-04-19T09:30:51Z</time></trkpt><trkpt lat="45.83511820126181" lon="11.4885804012402"><ele>1174.0</ele><time>2026-04-19T09:30:53Z</time></trkpt><trkpt lat="45.835141054492425" lon="11.488687141250304"><ele>1173.6000000000001</ele><time>2026-04-19T09:30:54Z</time></trkpt><trkpt lat="45.83520696572276" lon="11.488816004877709"><ele>1173.2</ele><time>2026-04-19T09:30:56Z</time></trkpt><trkpt lat="45.83527673932765" lon="11.4889482623366"><ele>1172.8000000000002</ele><time>2026-04-19T09:30:58Z</time></trkpt><trkpt lat="45.835339962649726" lon="11.489074423823944"><ele>1172.4</ele><time>2026-04-19T09:31:00Z</time></trkpt><trkpt lat="45.835389066896745" lon="11.48918869929514"><ele>1172.0</ele><time>2026-04-19T09:31:02Z</time></trkpt><trkpt lat="45.83543905443208" lon="11.489378976301813"><ele>1172.0</ele><time>2026-04-19T09:31:04.001Z</time></trkpt><trkpt lat="45.83544959559412" lon="11.489468934549226"><ele>1172.0</ele><time>2026-04-19T09:31:05.001Z</time></trkpt><trkpt lat="45.835464398102026" lon="11.489649224566943"><ele>1172.0</ele><time>2026-04-19T09:31:07.001Z</time></trkpt><trkpt lat="45.83546694274914" lon="11.489811630027365"><ele>1172.0</ele><time>2026-04-19T09:31:09.001Z</time></trkpt><trkpt lat="45.83545948165425" lon="11.489942855613913"><ele>1172.0</ele><time>2026-04-19T09:31:10.001Z</time></trkpt><trkpt lat="45.83544398037037" lon="11.490039055885752"><ele>1171.8571428571427</ele><time>2026-04-19T09:31:11.001Z</time></trkpt><trkpt lat="45.835424134764956" lon="11.490132086630043"><ele>1171.7142857142858</ele><time>2026-04-19T09:31:12.001Z</time></trkpt><trkpt lat="45.83539640363285" lon="11.49025078890669"><ele>1171.5714285714284</ele><time>2026-04-19T09:31:13.001Z</time></trkpt><trkpt lat="45.835366935185796" lon="11.490354289138025"><ele>1171.4285714285713</ele><time>2026-04-19T09:31:14.001Z</time></trkpt><trkpt lat="45.83533419372091" lon="11.490440073093307"><ele>1171.2857142857142</ele><time>2026-04-19T09:31:15.001Z</time></trkpt><trkpt lat="45.8352871604764" lon="11.490511246079437"><ele>1171.142857142857</ele><time>2026-04-19T09:31:16.001Z</time></trkpt><trkpt lat="45.83523576625602" lon="11.490586790822366"><ele>1171.0</ele><time>2026-04-19T09:31:17.001Z</time></trkpt><trkpt lat="45.83517973101143" lon="11.490635160287354"><ele>1173.6666666666665</ele><time>2026-04-19T09:31:18.001Z</time></trkpt><trkpt lat="45.8351131586806" lon="11.490655398839126"><ele>1176.3333333333333</ele><time>2026-04-19T09:31:19.001Z</time></trkpt><trkpt lat="45.835027276184604" lon="11.490711500867425"><ele>1179.0</ele><time>2026-04-19T09:31:20.001Z</time></trkpt><trkpt lat="45.83493797309078" lon="11.490776248863659"><ele>1181.6666666666667</ele><time>2026-04-19T09:31:21.001Z</time></trkpt><trkpt lat="45.834858385453266" lon="11.490841021659897"><ele>1184.3333333333335</ele><time>2026-04-19T09:31:22.001Z</time></trkpt><trkpt lat="45.83478498679226" lon="11.49091249132832"><ele>1187.0</ele><time>2026-04-19T09:31:23.001Z</time></trkpt><trkpt lat="45.83469932853511" lon="11.491010466245225"><ele>1187.0</ele><time>2026-04-19T09:31:24.001Z</time></trkpt><trkpt lat="45.83461447801517" lon="11.491149824218036"><ele>1187.0</ele><time>2026-04-19T09:31:25.001Z</time></trkpt><trkpt lat="45.834510218117074" lon="11.491246281723537"><ele>1187.0</ele><time>2026-04-19T09:31:26.001Z</time></trkpt><trkpt lat="45.8344372052597" lon="11.491342781845592"><ele>1187.0</ele><time>2026-04-19T09:31:27.001Z</time></trkpt><trkpt lat="45.83436152380967" lon="11.491478750242178"><ele>1189.8</ele><time>2026-04-19T09:31:29.001Z</time></trkpt><trkpt lat="45.834301007408236" lon="11.491547923642935"><ele>1192.6</ele><time>2026-04-19T09:31:30.001Z</time></trkpt><trkpt lat="45.83423686762164" lon="11.491696771612522"><ele>1195.3999999999999</ele><time>2026-04-19T09:31:31.001Z</time></trkpt><trkpt lat="45.8341706516545" lon="11.491794487700345"><ele>1198.2</ele><time>2026-04-19T09:31:32.001Z</time></trkpt><trkpt lat="45.834119104641005" lon="11.491878498258576"><ele>1201.0</ele><time>2026-04-19T09:31:33.001Z</time></trkpt><trkpt lat="45.834081030527244" lon="11.491996825846531"><ele>1199.5</ele><time>2026-04-19T09:31:34.001Z</time></trkpt><trkpt lat="45.8340366397765" lon="11.492091254724816"><ele>1198.0</ele><time>2026-04-19T09:31:35.001Z</time></trkpt><trkpt lat="45.83397295598535" lon="11.492181133713586"><ele>1196.5</ele><time>2026-04-19T09:31:36.001Z</time></trkpt><trkpt lat="45.833921784052315" lon="11.492326906765502"><ele>1195.0</ele><time>2026-04-19T09:31:38.001Z</time></trkpt><trkpt lat="45.833873457219156" lon="11.492412172327134"><ele>1193.5</ele><time>2026-04-19T09:31:39.001Z</time></trkpt><trkpt lat="45.83382011217553" lon="11.492501649116724"><ele>1192.0</ele><time>2026-04-19T09:31:40.001Z</time></trkpt><trkpt lat="45.833747811885544" lon="11.492599850516294"><ele>1192.0</ele><time>2026-04-19T09:31:41.001Z</time></trkpt><trkpt lat="45.83368762154856" lon="11.492692748469267"><ele>1192.0</ele><time>2026-04-19T09:31:42.001Z</time></trkpt><trkpt lat="45.83358020750721" lon="11.492822636234633"><ele>1192.0</ele><time>2026-04-19T09:31:43.001Z</time></trkpt><trkpt lat="45.83347206722599" lon="11.492951257265258"><ele>1192.0</ele><time>2026-04-19T09:31:44.001Z</time></trkpt><trkpt lat="45.833380672726314" lon="11.4930888208985"><ele>1194.8</ele><time>2026-04-19T09:31:45.001Z</time></trkpt><trkpt lat="45.83330826135704" lon="11.49324215338079"><ele>1197.6</ele><time>2026-04-19T09:31:46Z</time></trkpt><trkpt lat="45.833208917749786" lon="11.493361362390837"><ele>1200.3999999999999</ele><time>2026-04-19T09:31:48Z</time></trkpt><trkpt lat="45.833142040220636" lon="11.493421792099012"><ele>1203.2</ele><time>2026-04-19T09:31:49Z</time></trkpt><trkpt lat="45.833071035322824" lon="11.49345213395009"><ele>1206.0</ele><time>2026-04-19T09:31:50Z</time></trkpt><trkpt lat="45.83300907055549" lon="11.493531337397403"><ele>1206.0</ele><time>2026-04-19T09:31:51Z</time></trkpt><trkpt lat="45.832915355968815" lon="11.493563660241497"><ele>1206.0</ele><time>2026-04-19T09:31:52Z</time></trkpt><trkpt lat="45.83286482626012" lon="11.493645714780246"><ele>1206.0</ele><time>2026-04-19T09:31:53Z</time></trkpt><trkpt lat="45.83279728795469" lon="11.49370936240805"><ele>1206.0</ele><time>2026-04-19T09:31:54Z</time></trkpt><trkpt lat="45.83274056240392" lon="11.493803498843672"><ele>1206.0</ele><time>2026-04-19T09:31:55Z</time></trkpt><trkpt lat="45.83269415464645" lon="11.493873850134083"><ele>1206.0</ele><time>2026-04-19T09:31:56Z</time></trkpt><trkpt lat="45.83260635981863" lon="11.49392086615347"><ele>1208.8</ele><time>2026-04-19T09:31:57Z</time></trkpt><trkpt lat="45.832524969890805" lon="11.49401284374953"><ele>1211.6</ele><time>2026-04-19T09:31:58Z</time></trkpt><trkpt lat="45.83247536945663" lon="11.494104724194752"><ele>1214.4</ele><time>2026-04-19T09:31:59Z</time></trkpt><trkpt lat="45.83242432745761" lon="11.49417201384743"><ele>1217.2</ele><time>2026-04-19T09:32:00Z</time></trkpt><trkpt lat="45.83234608575944" lon="11.494275161218804"><ele>1220.0</ele><time>2026-04-19T09:32:02Z</time></trkpt><trkpt lat="45.83227195784856" lon="11.49437566149455"><ele>1220.0</ele><time>2026-04-19T09:32:03Z</time></trkpt><trkpt lat="45.83216777556608" lon="11.494568608300723"><ele>1220.0</ele><time>2026-04-19T09:32:05Z</time></trkpt><trkpt lat="45.83211189471333" lon="11.49465724808803"><ele>1220.0</ele><time>2026-04-19T09:32:06Z</time></trkpt><trkpt lat="45.83208057330157" lon="11.494762838222876"><ele>1220.0</ele><time>2026-04-19T09:32:07Z</time></trkpt><trkpt lat="45.83204600541924" lon="11.494852281888877"><ele>1220.0</ele><time>2026-04-19T09:32:08Z</time></trkpt><trkpt lat="45.831990943204296" lon="11.49496523580021"><ele>1218.8</ele><time>2026-04-19T09:32:09Z</time></trkpt><trkpt lat="45.8319190057837" lon="11.49509894523819"><ele>1217.6</ele><time>2026-04-19T09:32:11Z</time></trkpt><trkpt lat="45.83183690640843" lon="11.495264159578626"><ele>1216.4</ele><time>2026-04-19T09:32:13Z</time></trkpt><trkpt lat="45.831777230763045" lon="11.49535146087262"><ele>1215.2</ele><time>2026-04-19T09:32:14Z</time></trkpt><trkpt lat="45.8317246021722" lon="11.49544142569274"><ele>1214.0</ele><time>2026-04-19T09:32:15Z</time></trkpt><trkpt lat="45.83165564487852" lon="11.495559895721705"><ele>1216.3333333333335</ele><time>2026-04-19T09:32:17Z</time></trkpt><trkpt lat="45.831578460400905" lon="11.495649219286374"><ele>1218.6666666666667</ele><time>2026-04-19T09:32:19Z</time></trkpt><trkpt lat="45.83149530694401" lon="11.495709054067763"><ele>1221.0</ele><time>2026-04-19T09:32:21Z</time></trkpt><trkpt lat="45.831426349300365" lon="11.495732014311535"><ele>1223.3333333333333</ele><time>2026-04-19T09:32:22Z</time></trkpt><trkpt lat="45.83135437583662" lon="11.495728624548052"><ele>1225.6666666666665</ele><time>2026-04-19T09:32:24Z</time></trkpt><trkpt lat="45.83125595462514" lon="11.495731723400388"><ele>1228.0</ele><time>2026-04-19T09:32:26Z</time></trkpt><trkpt lat="45.83110099384184" lon="11.49573638650266"><ele>1229.75</ele><time>2026-04-19T09:32:28Z</time></trkpt><trkpt lat="45.830950862237515" lon="11.495786167774547"><ele>1231.5</ele><time>2026-04-19T09:32:29Z</time></trkpt><trkpt lat="45.830825332429015" lon="11.495803009924797"><ele>1233.25</ele><time>2026-04-19T09:32:31Z</time></trkpt><trkpt lat="45.830760689075866" lon="11.495798313311932"><ele>1235.0</ele><time>2026-04-19T09:32:33Z</time></trkpt><trkpt lat="45.830657068905246" lon="11.495824668127762"><ele>1235.0</ele><time>2026-04-19T09:32:35Z</time></trkpt><trkpt lat="45.830581752483084" lon="11.49593243754086"><ele>1235.0</ele><time>2026-04-19T09:32:37Z</time></trkpt><trkpt lat="45.83053287119106" lon="11.495991318050462"><ele>1235.0</ele><time>2026-04-19T09:32:38Z</time></trkpt><trkpt lat="45.83048389755759" lon="11.49607739730378"><ele>1235.0</ele><time>2026-04-19T09:32:39Z</time></trkpt><trkpt lat="45.83041810133494" lon="11.496213969181063"><ele>1235.0</ele><time>2026-04-19T09:32:40Z</time></trkpt><trkpt lat="45.83037310161248" lon="11.496316657214066"><ele>1235.0</ele><time>2026-04-19T09:32:41Z</time></trkpt><trkpt lat="45.83030296812505" lon="11.496509670439265"><ele>1234.5</ele><time>2026-04-19T09:32:42Z</time></trkpt><trkpt lat="45.83026187762149" lon="11.496668160672261"><ele>1234.0</ele><time>2026-04-19T09:32:43Z</time></trkpt><trkpt lat="45.830235621866464" lon="11.496806385172478"><ele>1233.5</ele><time>2026-04-19T09:32:44Z</time></trkpt><trkpt lat="45.8302140079203" lon="11.497039649368725"><ele>1233.0</ele><time>2026-04-19T09:32:46Z</time></trkpt><trkpt lat="45.83017982248609" lon="11.497205686926826"><ele>1233.0</ele><time>2026-04-19T09:32:48Z</time></trkpt><trkpt lat="45.83015870289793" lon="11.497331719016739"><ele>1233.0</ele><time>2026-04-19T09:32:49Z</time></trkpt><trkpt lat="45.83014286669738" lon="11.497424785849137"><ele>1233.0</ele><time>2026-04-19T09:32:50Z</time></trkpt><trkpt lat="45.83008820611966" lon="11.497511058289788"><ele>1233.0</ele><time>2026-04-19T09:32:51Z</time></trkpt><trkpt lat="45.830044721215955" lon="11.497591264794524"><ele>1233.0</ele><time>2026-04-19T09:32:52Z</time></trkpt><trkpt lat="45.829966225130256" lon="11.497726451020002"><ele>1233.0</ele><time>2026-04-19T09:32:53Z</time></trkpt><trkpt lat="45.82990909321381" lon="11.497826156734476"><ele>1231.4</ele><time>2026-04-19T09:32:54Z</time></trkpt><trkpt lat="45.82985385388802" lon="11.497922559809371"><ele>1229.8</ele><time>2026-04-19T09:32:55Z</time></trkpt><trkpt lat="45.82977861268857" lon="11.498052014756677"><ele>1228.2</ele><time>2026-04-19T09:32:56Z</time></trkpt><trkpt lat="45.829729551292786" lon="11.498137214914514"><ele>1226.6</ele><time>2026-04-19T09:32:57Z</time></trkpt><trkpt lat="45.82966275457052" lon="11.498279841265452"><ele>1225.0</ele><time>2026-04-19T09:32:58Z</time></trkpt><trkpt lat="45.829623546320654" lon="11.498438329038615"><ele>1225.0</ele><time>2026-04-19T09:32:59Z</time></trkpt><trkpt lat="45.82958093158909" lon="11.498548056792131"><ele>1225.0</ele><time>2026-04-19T09:33:00Z</time></trkpt><trkpt lat="45.829516669796575" lon="11.498698279806641"><ele>1225.0</ele><time>2026-04-19T09:33:01Z</time></trkpt><trkpt lat="45.82950274798331" lon="11.498826640704214"><ele>1225.0</ele><time>2026-04-19T09:33:02Z</time></trkpt><trkpt lat="45.829483472453695" lon="11.49894813497543"><ele>1225.0</ele><time>2026-04-19T09:33:03Z</time></trkpt><trkpt lat="45.82945424896047" lon="11.499099597159141"><ele>1225.4</ele><time>2026-04-19T09:33:04Z</time></trkpt><trkpt lat="45.82942853129075" lon="11.499269142779257"><ele>1225.8</ele><time>2026-04-19T09:33:05Z</time></trkpt><trkpt lat="45.82940464079697" lon="11.49941640365394"><ele>1226.2</ele><time>2026-04-19T09:33:06Z</time></trkpt><trkpt lat="45.829382932803966" lon="11.499545047834284"><ele>1226.6</ele><time>2026-04-19T09:33:07Z</time></trkpt><trkpt lat="45.82935311701962" lon="11.49967281430123"><ele>1227.0</ele><time>2026-04-19T09:33:08Z</time></trkpt><trkpt lat="45.82932518640183" lon="11.499794928496817"><ele>1225.4</ele><time>2026-04-19T09:33:09Z</time></trkpt><trkpt lat="45.82929916414966" lon="11.499924710051072"><ele>1223.8000000000002</ele><time>2026-04-19T09:33:10Z</time></trkpt><trkpt lat="45.82925447382422" lon="11.500079737708802"><ele>1222.2</ele><time>2026-04-19T09:33:11Z</time></trkpt><trkpt lat="45.82919309111504" lon="11.500199027226158"><ele>1220.6000000000001</ele><time>2026-04-19T09:33:12Z</time></trkpt><trkpt lat="45.829152530132255" lon="11.50030569264821"><ele>1219.0</ele><time>2026-04-19T09:33:13Z</time></trkpt><trkpt lat="45.829103242852675" lon="11.500379676688341"><ele>1219.0</ele><time>2026-04-19T09:33:14Z</time></trkpt><trkpt lat="45.82903001441613" lon="11.500414786797219"><ele>1219.0</ele><time>2026-04-19T09:33:15Z</time></trkpt><trkpt lat="45.828940914029225" lon="11.500338463038776"><ele>1219.0</ele><time>2026-04-19T09:33:16Z</time></trkpt><trkpt lat="45.82884906291812" lon="11.500314884347707"><ele>1219.0</ele><time>2026-04-19T09:33:17.001Z</time></trkpt><trkpt lat="45.828767581060525" lon="11.500282183341849"><ele>1219.0</ele><time>2026-04-19T09:33:18.001Z</time></trkpt><trkpt lat="45.82868365920766" lon="11.500262412472303"><ele>1219.0</ele><time>2026-04-19T09:33:19.001Z</time></trkpt><trkpt lat="45.82860640485979" lon="11.500274126332723"><ele>1219.0</ele><time>2026-04-19T09:33:20.001Z</time></trkpt><trkpt lat="45.828538897883284" lon="11.500315432335048"><ele>1219.0</ele><time>2026-04-19T09:33:21.001Z</time></trkpt><trkpt lat="45.82851669970419" lon="11.500520843481842"><ele>1219.0</ele><time>2026-04-19T09:33:23.001Z</time></trkpt><trkpt lat="45.828531882968576" lon="11.500616437384176"><ele>1219.0</ele><time>2026-04-19T09:33:24.001Z</time></trkpt><trkpt lat="45.82850985393102" lon="11.500711722687743"><ele>1219.0</ele><time>2026-04-19T09:33:25.001Z</time></trkpt><trkpt lat="45.82850876612348" lon="11.5008554370174"><ele>1219.0</ele><time>2026-04-19T09:33:26.001Z</time></trkpt><trkpt lat="45.82852951017723" lon="11.500990419368874"><ele>1219.0</ele><time>2026-04-19T09:33:27.001Z</time></trkpt><trkpt lat="45.82855526462058" lon="11.501179609085506"><ele>1219.0</ele><time>2026-04-19T09:33:28.001Z</time></trkpt><trkpt lat="45.828577609563304" lon="11.501368761342036"><ele>1219.0</ele><time>2026-04-19T09:33:30.001Z</time></trkpt><trkpt lat="45.82863653979376" lon="11.501450647117"><ele>1219.0</ele><time>2026-04-19T09:33:31.001Z</time></trkpt><trkpt lat="45.82868033092355" lon="11.501530935041297"><ele>1219.0</ele><time>2026-04-19T09:33:32.001Z</time></trkpt><trkpt lat="45.8287451979705" lon="11.501581163436876"><ele>1219.0</ele><time>2026-04-19T09:33:33.001Z</time></trkpt><trkpt lat="45.82883453185714" lon="11.501683324778874"><ele>1219.0</ele><time>2026-04-19T09:33:34.001Z</time></trkpt><trkpt lat="45.82889928464001" lon="11.501754602053456"><ele>1219.0</ele><time>2026-04-19T09:33:35.001Z</time></trkpt><trkpt lat="45.8289938081318" lon="11.501843594045775"><ele>1219.0</ele><time>2026-04-19T09:33:36.001Z</time></trkpt><trkpt lat="45.82906330733686" lon="11.501985607560803"><ele>1218.8</ele><time>2026-04-19T09:33:37.001Z</time></trkpt><trkpt lat="45.8291057808916" lon="11.502088853490877"><ele>1218.6000000000001</ele><time>2026-04-19T09:33:38.001Z</time></trkpt><trkpt lat="45.82911656045571" lon="11.502190738638033"><ele>1218.4</ele><time>2026-04-19T09:33:39.001Z</time></trkpt><trkpt lat="45.829085162689175" lon="11.502344395957632"><ele>1218.2</ele><time>2026-04-19T09:33:40.001Z</time></trkpt><trkpt lat="45.829039749828006" lon="11.502485074270297"><ele>1218.0</ele><time>2026-04-19T09:33:41.001Z</time></trkpt><trkpt lat="45.82901016032187" lon="11.502627127155183"><ele>1218.0</ele><time>2026-04-19T09:33:42.001Z</time></trkpt><trkpt lat="45.828994506679784" lon="11.502753682857167"><ele>1218.0</ele><time>2026-04-19T09:33:43.001Z</time></trkpt><trkpt lat="45.828967548705954" lon="11.502856380888867"><ele>1218.0</ele><time>2026-04-19T09:33:44.001Z</time></trkpt><trkpt lat="45.828939712423946" lon="11.502952220766778"><ele>1218.0</ele><time>2026-04-19T09:33:45.001Z</time></trkpt><trkpt lat="45.828908822143866" lon="11.503039007715387"><ele>1218.0</ele><time>2026-04-19T09:33:46.001Z</time></trkpt><trkpt lat="45.828848112790844" lon="11.503179643920378"><ele>1218.0</ele><time>2026-04-19T09:33:48.001Z</time></trkpt><trkpt lat="45.828865318663354" lon="11.503292389909257"><ele>1217.6666666666667</ele><time>2026-04-19T09:33:49.001Z</time></trkpt><trkpt lat="45.82889180729353" lon="11.503384674475903"><ele>1217.3333333333333</ele><time>2026-04-19T09:33:50.001Z</time></trkpt><trkpt lat="45.828916345180524" lon="11.503489013476722"><ele>1217.0</ele><time>2026-04-19T09:33:51.001Z</time></trkpt><trkpt lat="45.82889285624955" lon="11.503638170027633"><ele>1216.6666666666665</ele><time>2026-04-19T09:33:53Z</time></trkpt><trkpt lat="45.82883462148057" lon="11.503737290870353"><ele>1216.3333333333333</ele><time>2026-04-19T09:33:56Z</time></trkpt><trkpt lat="45.8287947224627" lon="11.503841609134033"><ele>1216.0</ele><time>2026-04-19T09:33:59Z</time></trkpt><trkpt lat="45.82876424573787" lon="11.503922381736729"><ele>1214.6</ele><time>2026-04-19T09:34:01Z</time></trkpt><trkpt lat="45.82878679077253" lon="11.504031578420438"><ele>1213.1999999999998</ele><time>2026-04-19T09:34:05Z</time></trkpt><trkpt lat="45.82883325017046" lon="11.504196230680963"><ele>1211.8000000000002</ele><time>2026-04-19T09:34:07Z</time></trkpt><trkpt lat="45.828853151796636" lon="11.504328003853134"><ele>1210.4</ele><time>2026-04-19T09:34:08Z</time></trkpt><trkpt lat="45.82888812275035" lon="11.504453365457005"><ele>1209.0</ele><time>2026-04-19T09:34:09Z</time></trkpt><trkpt lat="45.828931832265106" lon="11.504584997848724"><ele>1207.8333333333333</ele><time>2026-04-19T09:34:10Z</time></trkpt><trkpt lat="45.82896993333993" lon="11.504727165472634"><ele>1206.6666666666667</ele><time>2026-04-19T09:34:11Z</time></trkpt><trkpt lat="45.82898611633123" lon="11.50484252065246"><ele>1205.5</ele><time>2026-04-19T09:34:12Z</time></trkpt><trkpt lat="45.82900040247709" lon="11.50494576568318"><ele>1204.3333333333335</ele><time>2026-04-19T09:34:13Z</time></trkpt><trkpt lat="45.829014856293405" lon="11.505038557982198"><ele>1203.1666666666667</ele><time>2026-04-19T09:34:14Z</time></trkpt><trkpt lat="45.829047011416414" lon="11.505150877839728"><ele>1202.0</ele><time>2026-04-19T09:34:16Z</time></trkpt><trkpt lat="45.82906876054969" lon="11.505297970087984"><ele>1200.6</ele><time>2026-04-19T09:34:18Z</time></trkpt><trkpt lat="45.82910374336812" lon="11.505455763035084"><ele>1199.2</ele><time>2026-04-19T09:34:20Z</time></trkpt><trkpt lat="45.82913390503314" lon="11.505601004071206"><ele>1197.8</ele><time>2026-04-19T09:34:22Z</time></trkpt><trkpt lat="45.82916738830803" lon="11.505678229671473"><ele>1196.4</ele><time>2026-04-19T09:34:23Z</time></trkpt><trkpt lat="45.82920277340832" lon="11.505833862682056"><ele>1195.0</ele><time>2026-04-19T09:34:25Z</time></trkpt><trkpt lat="45.82924688949861" lon="11.505925660716882"><ele>1195.0</ele><time>2026-04-19T09:34:27Z</time></trkpt><trkpt lat="45.829275956391946" lon="11.506038441338715"><ele>1195.0</ele><time>2026-04-19T09:34:29Z</time></trkpt><trkpt lat="45.829308211956224" lon="11.506135452217276"><ele>1195.0</ele><time>2026-04-19T09:34:31Z</time></trkpt><trkpt lat="45.82931473453123" lon="11.506235178437649"><ele>1195.0</ele><time>2026-04-19T09:34:33Z</time></trkpt><trkpt lat="45.82930906326958" lon="11.506336044294589"><ele>1195.0</ele><time>2026-04-19T09:34:35Z</time></trkpt><trkpt lat="45.8293254880842" lon="11.506446169807042"><ele>1195.0</ele><time>2026-04-19T09:34:39Z</time></trkpt><trkpt lat="45.82926013722819" lon="11.506521487973052"><ele>1194.1666666666665</ele><time>2026-04-19T09:34:41Z</time></trkpt><trkpt lat="45.82923142308743" lon="11.506633166450088"><ele>1193.3333333333333</ele><time>2026-04-19T09:34:44Z</time></trkpt><trkpt lat="45.82920505881382" lon="11.506716112786822"><ele>1192.5</ele><time>2026-04-19T09:34:45Z</time></trkpt><trkpt lat="45.829203095888246" lon="11.50685961623076"><ele>1191.6666666666667</ele><time>2026-04-19T09:34:47Z</time></trkpt><trkpt lat="45.829197826305595" lon="11.506993786718583"><ele>1190.8333333333335</ele><time>2026-04-19T09:34:50Z</time></trkpt><trkpt lat="45.829203411832076" lon="11.507090220748978"><ele>1190.0</ele><time>2026-04-19T09:34:52Z</time></trkpt><trkpt lat="45.82921334102769" lon="11.507180759922667"><ele>1190.0</ele><time>2026-04-19T09:34:54Z</time></trkpt><trkpt lat="45.82923297133754" lon="11.507293396820147"><ele>1190.0</ele><time>2026-04-19T09:34:57Z</time></trkpt><trkpt lat="45.82927873024518" lon="11.507358760855574"><ele>1190.0</ele><time>2026-04-19T09:34:59Z</time></trkpt><trkpt lat="45.829328819290836" lon="11.507452792413485"><ele>1190.0</ele><time>2026-04-19T09:35:02Z</time></trkpt><trkpt lat="45.829321390318924" lon="11.507568421912241"><ele>1190.0</ele><time>2026-04-19T09:35:05Z</time></trkpt><trkpt lat="45.82927011740368" lon="11.507667369837607"><ele>1190.0</ele><time>2026-04-19T09:35:07Z</time></trkpt><trkpt lat="45.82923953549592" lon="11.50775251624724"><ele>1190.0</ele><time>2026-04-19T09:36:27Z</time></trkpt><trkpt lat="45.829174829639726" lon="11.507791382115279"><ele>1190.0</ele><time>2026-04-19T09:45:19Z</time></trkpt><trkpt lat="45.82911585854285" lon="11.507876899805643"><ele>1190.0</ele><time>2026-04-19T09:45:21Z</time></trkpt><trkpt lat="45.829069364136494" lon="11.507974668809188"><ele>1190.0</ele><time>2026-04-19T09:45:24Z</time></trkpt><trkpt lat="45.82904637711598" lon="11.508061941015578"><ele>1190.0</ele><time>2026-04-19T09:45:29Z</time></trkpt><trkpt lat="45.82908282002516" lon="11.50817071764369"><ele>1190.0</ele><time>2026-04-19T09:45:32Z</time></trkpt><trkpt lat="45.82906812977248" lon="11.50831851975205"><ele>1190.4</ele><time>2026-04-19T09:45:35Z</time></trkpt><trkpt lat="45.829041159612096" lon="11.50841746046955"><ele>1190.8</ele><time>2026-04-19T09:45:37Z</time></trkpt><trkpt lat="45.82904142097497" lon="11.508516027877358"><ele>1191.2</ele><time>2026-04-19T09:45:39Z</time></trkpt><trkpt lat="45.829143691574274" lon="11.508596266696669"><ele>1191.6</ele><time>2026-04-19T09:45:42Z</time></trkpt><trkpt lat="45.82924917677952" lon="11.508618729066985"><ele>1192.0</ele><time>2026-04-19T09:45:44Z</time></trkpt><trkpt lat="45.82934334249487" lon="11.508624103320821"><ele>1191.2</ele><time>2026-04-19T09:45:46Z</time></trkpt><trkpt lat="45.829408948040346" lon="11.508648367684264"><ele>1190.4</ele><time>2026-04-19T09:45:48Z</time></trkpt><trkpt lat="45.8294641681921" lon="11.508708143679089"><ele>1189.6</ele><time>2026-04-19T09:45:50Z</time></trkpt><trkpt lat="45.829523077598466" lon="11.508842007388642"><ele>1188.8</ele><time>2026-04-19T09:45:52Z</time></trkpt><trkpt lat="45.82955872938804" lon="11.508971790708648"><ele>1188.0</ele><time>2026-04-19T09:45:54Z</time></trkpt><trkpt lat="45.829620823288984" lon="11.509107430184002"><ele>1188.0</ele><time>2026-04-19T09:45:56Z</time></trkpt><trkpt lat="45.82968333896805" lon="11.509147683170228"><ele>1188.0</ele><time>2026-04-19T09:45:57Z</time></trkpt><trkpt lat="45.829838204508206" lon="11.50919831147446"><ele>1188.0</ele><time>2026-04-19T09:45:59Z</time></trkpt><trkpt lat="45.82990088312384" lon="11.50926996467025"><ele>1188.0</ele><time>2026-04-19T09:46:00Z</time></trkpt><trkpt lat="45.829957228751454" lon="11.5093121655306"><ele>1188.0</ele><time>2026-04-19T09:46:01Z</time></trkpt><trkpt lat="45.830016206968025" lon="11.5093663968344"><ele>1188.0</ele><time>2026-04-19T09:46:02Z</time></trkpt><trkpt lat="45.83008133213829" lon="11.509434150056046"><ele>1188.0</ele><time>2026-04-19T09:46:03Z</time></trkpt><trkpt lat="45.8301410495413" lon="11.509481437190411"><ele>1188.0</ele><time>2026-04-19T09:46:04Z</time></trkpt><trkpt lat="45.83022539311477" lon="11.509561947249022"><ele>1188.0</ele><time>2026-04-19T09:46:05Z</time></trkpt><trkpt lat="45.83030074786941" lon="11.509595560734331"><ele>1188.0</ele><time>2026-04-19T09:46:06Z</time></trkpt><trkpt lat="45.83042311535537" lon="11.509695408888094"><ele>1188.0</ele><time>2026-04-19T09:46:08Z</time></trkpt><trkpt lat="45.8305165993505" lon="11.509724804354242"><ele>1186.8</ele><time>2026-04-19T09:46:09Z</time></trkpt><trkpt lat="45.830586627864406" lon="11.509767478925866"><ele>1185.6</ele><time>2026-04-19T09:46:10Z</time></trkpt><trkpt lat="45.83064878929553" lon="11.509809700837822"><ele>1184.4</ele><time>2026-04-19T09:46:11Z</time></trkpt><trkpt lat="45.83073641923344" lon="11.509842381406552"><ele>1183.2</ele><time>2026-04-19T09:46:13Z</time></trkpt><trkpt lat="45.830845508525556" lon="11.509905063824188"><ele>1182.0</ele><time>2026-04-19T09:46:15Z</time></trkpt><trkpt lat="45.83095345499322" lon="11.510010475969725"><ele>1180.6</ele><time>2026-04-19T09:46:17Z</time></trkpt><trkpt lat="45.83102162007937" lon="11.510115046722271"><ele>1179.2</ele><time>2026-04-19T09:46:18Z</time></trkpt><trkpt lat="45.83108990501778" lon="11.510202998927161"><ele>1177.8</ele><time>2026-04-19T09:46:20Z</time></trkpt><trkpt lat="45.83114706633795" lon="11.510257808823528"><ele>1176.4</ele><time>2026-04-19T09:46:21Z</time></trkpt><trkpt lat="45.83121461299716" lon="11.51036637356935"><ele>1175.0</ele><time>2026-04-19T09:46:23Z</time></trkpt><trkpt lat="45.8312824616792" lon="11.51047796031625"><ele>1174.6666666666667</ele><time>2026-04-19T09:46:25Z</time></trkpt><trkpt lat="45.83135816724849" lon="11.510562411088095"><ele>1174.3333333333335</ele><time>2026-04-19T09:46:27Z</time></trkpt><trkpt lat="45.83141516534979" lon="11.51062417817844"><ele>1174.0</ele><time>2026-04-19T09:46:29Z</time></trkpt><trkpt lat="45.831449273872636" lon="11.510709632867012"><ele>1173.6666666666667</ele><time>2026-04-19T09:46:31Z</time></trkpt><trkpt lat="45.83148374025996" lon="11.510788858038623"><ele>1173.3333333333333</ele><time>2026-04-19T09:46:33Z</time></trkpt><trkpt lat="45.83156212521504" lon="11.510871549891636"><ele>1173.0</ele><time>2026-04-19T09:46:35Z</time></trkpt><trkpt lat="45.83163196957141" lon="11.510936875557505"><ele>1173.0</ele><time>2026-04-19T09:46:37Z</time></trkpt><trkpt lat="45.831704541522186" lon="11.510953077639432"><ele>1173.0</ele><time>2026-04-19T09:46:39Z</time></trkpt><trkpt lat="45.83171753519149" lon="11.511075338933656"><ele>1173.0</ele><time>2026-04-19T09:46:42Z</time></trkpt><trkpt lat="45.831717757918625" lon="11.511222590485024"><ele>1173.0</ele><time>2026-04-19T09:46:45Z</time></trkpt><trkpt lat="45.83173222639029" lon="11.511310911124056"><ele>1173.0</ele><time>2026-04-19T09:46:47Z</time></trkpt><trkpt lat="45.831732074620106" lon="11.5114093494218"><ele>1173.0</ele><time>2026-04-19T09:46:50Z</time></trkpt><trkpt lat="45.831746159623876" lon="11.511530041029614"><ele>1172.5</ele><time>2026-04-19T09:46:53Z</time></trkpt><trkpt lat="45.83176923458218" lon="11.51163481608041"><ele>1172.0</ele><time>2026-04-19T09:46:56Z</time></trkpt><trkpt lat="45.831801766822096" lon="11.511719684186478"><ele>1171.5</ele><time>2026-04-19T09:47:00Z</time></trkpt><trkpt lat="45.8318188862123" lon="11.511814649865098"><ele>1171.0</ele><time>2026-04-19T09:47:04Z</time></trkpt><trkpt lat="45.831852332484175" lon="11.511913668983723"><ele>1170.5</ele><time>2026-04-19T09:47:08Z</time></trkpt><trkpt lat="45.83189011100417" lon="11.512015783592556"><ele>1170.0</ele><time>2026-04-19T09:47:12Z</time></trkpt><trkpt lat="45.831933337450295" lon="11.512121173400764"><ele>1169.142857142857</ele><time>2026-04-19T09:47:15Z</time></trkpt><trkpt lat="45.831959082082825" lon="11.512235390940942"><ele>1168.2857142857142</ele><time>2026-04-19T09:47:18Z</time></trkpt><trkpt lat="45.832012066450105" lon="11.512305279605583"><ele>1167.4285714285713</ele><time>2026-04-19T09:47:22Z</time></trkpt><trkpt lat="45.83205095384633" lon="11.512398338883363"><ele>1166.5714285714284</ele><time>2026-04-19T09:47:25Z</time></trkpt><trkpt lat="45.832077774181386" lon="11.512498432606368"><ele>1165.7142857142856</ele><time>2026-04-19T09:47:28Z</time></trkpt><trkpt lat="45.832090468299484" lon="11.51259485644982"><ele>1164.857142857143</ele><time>2026-04-19T09:47:41Z</time></trkpt><trkpt lat="45.83212182257464" lon="11.51267615980131"><ele>1164.0</ele><time>2026-04-19T09:47:51Z</time></trkpt><trkpt lat="45.83216272837082" lon="11.51277115560353"><ele>1164.0</ele><time>2026-04-19T09:48:02Z</time></trkpt><trkpt lat="45.83219145539248" lon="11.512869114420148"><ele>1164.0</ele><time>2026-04-19T09:48:07Z</time></trkpt><trkpt lat="45.83223055824401" lon="11.512970609981364"><ele>1164.0</ele><time>2026-04-19T09:48:12Z</time></trkpt><trkpt lat="45.83226375269601" lon="11.513066802279655"><ele>1164.0</ele><time>2026-04-19T09:48:16Z</time></trkpt><trkpt lat="45.83229147649423" lon="11.513151323331021"><ele>1164.0</ele><time>2026-04-19T09:48:23Z</time></trkpt><trkpt lat="45.83230966363497" lon="11.513244081582842"><ele>1164.0</ele><time>2026-04-19T09:48:36.999Z</time></trkpt><trkpt lat="45.83234124729327" lon="11.513335371083214"><ele>1164.0</ele><time>2026-04-19T09:48:41.999Z</time></trkpt><trkpt lat="45.832377642022834" lon="11.513426991197885"><ele>1164.6666666666667</ele><time>2026-04-19T09:48:48.999Z</time></trkpt><trkpt lat="45.832437097784435" lon="11.513489254781858"><ele>1165.3333333333333</ele><time>2026-04-19T09:48:52.999Z</time></trkpt><trkpt lat="45.832502446670595" lon="11.51354859489151"><ele>1166.0</ele><time>2026-04-19T09:48:55.999Z</time></trkpt><trkpt lat="45.83257371634414" lon="11.513623423628518"><ele>1166.6666666666665</ele><time>2026-04-19T09:48:59Z</time></trkpt><trkpt lat="45.83265264723522" lon="11.513667092398958"><ele>1167.3333333333333</ele><time>2026-04-19T09:49:02Z</time></trkpt><trkpt lat="45.83272042440362" lon="11.513723699195218"><ele>1168.0</ele><time>2026-04-19T09:49:05Z</time></trkpt><trkpt lat="45.8327779943065" lon="11.513760559066144"><ele>1166.7142857142858</ele><time>2026-04-19T09:49:08Z</time></trkpt><trkpt lat="45.832806476348516" lon="11.51384968539838"><ele>1165.4285714285716</ele><time>2026-04-19T09:49:14Z</time></trkpt><trkpt lat="45.83278233783542" lon="11.513950858385941"><ele>1164.1428571428573</ele><time>2026-04-19T09:49:16Z</time></trkpt><trkpt lat="45.83279639278531" lon="11.514047226080722"><ele>1162.857142857143</ele><time>2026-04-19T09:49:21Z</time></trkpt><trkpt lat="45.83281529197507" lon="11.514145356783382"><ele>1161.5714285714287</ele><time>2026-04-19T09:49:25Z</time></trkpt><trkpt lat="45.832816662472275" lon="11.514239034720656"><ele>1160.2857142857144</ele><time>2026-04-19T09:49:28Z</time></trkpt><trkpt lat="45.83286756461996" lon="11.514329470945519"><ele>1159.0</ele><time>2026-04-19T09:49:33Z</time></trkpt><trkpt lat="45.83292533852146" lon="11.514396463696006"><ele>1159.0</ele><time>2026-04-19T09:49:38Z</time></trkpt><trkpt lat="45.83294059091526" lon="11.514494974309155"><ele>1159.0</ele><time>2026-04-19T09:49:41Z</time></trkpt><trkpt lat="45.832999850330914" lon="11.51452981894414"><ele>1159.0</ele><time>2026-04-19T09:49:43Z</time></trkpt><trkpt lat="45.83314925082609" lon="11.514594882919182"><ele>1159.0</ele><time>2026-04-19T09:49:56Z</time></trkpt><trkpt lat="45.83322839879569" lon="11.514635837631417"><ele>1159.0</ele><time>2026-04-19T09:49:59Z</time></trkpt><trkpt lat="45.83326115447021" lon="11.514736657704994"><ele>1158.8333333333333</ele><time>2026-04-19T09:50:04Z</time></trkpt><trkpt lat="45.83333468456645" lon="11.514806781010233"><ele>1158.6666666666665</ele><time>2026-04-19T09:50:09Z</time></trkpt><trkpt lat="45.833381268666486" lon="11.514880739879013"><ele>1158.5</ele><time>2026-04-19T09:50:12Z</time></trkpt><trkpt lat="45.83337363537685" lon="11.515005426801444"><ele>1158.3333333333333</ele><time>2026-04-19T09:50:14Z</time></trkpt><trkpt lat="45.83338281105968" lon="11.51510151441491"><ele>1158.1666666666667</ele><time>2026-04-19T09:50:17Z</time></trkpt><trkpt lat="45.83347426422598" lon="11.515091059414825"><ele>1158.0</ele><time>2026-04-19T09:50:19Z</time></trkpt><trkpt lat="45.83353535769393" lon="11.515132352845669"><ele>1158.0</ele><time>2026-04-19T09:50:21Z</time></trkpt><trkpt lat="45.833588328236466" lon="11.51519749286403"><ele>1158.0</ele><time>2026-04-19T09:50:23Z</time></trkpt><trkpt lat="45.83366085021856" lon="11.515212570821399"><ele>1158.0</ele><time>2026-04-19T09:50:26Z</time></trkpt><trkpt lat="45.833740426950804" lon="11.515258123212247"><ele>1158.0</ele><time>2026-04-19T09:50:29Z</time></trkpt><trkpt lat="45.83380200396801" lon="11.515327361598354"><ele>1158.0</ele><time>2026-04-19T09:50:31Z</time></trkpt><trkpt lat="45.833890090505086" lon="11.515398716828095"><ele>1158.0</ele><time>2026-04-19T09:50:33Z</time></trkpt><trkpt lat="45.83395895756832" lon="11.515501238272005"><ele>1157.2</ele><time>2026-04-19T09:50:35Z</time></trkpt><trkpt lat="45.83402422148446" lon="11.515600010794087"><ele>1156.4</ele><time>2026-04-19T09:50:37Z</time></trkpt><trkpt lat="45.83408318502341" lon="11.51573508133523"><ele>1155.6000000000001</ele><time>2026-04-19T09:50:39.999Z</time></trkpt><trkpt lat="45.83411870385757" lon="11.515829565055995"><ele>1154.8</ele><time>2026-04-19T09:50:42.999Z</time></trkpt><trkpt lat="45.83416964798119" lon="11.515941795703434"><ele>1154.0</ele><time>2026-04-19T09:50:46.999Z</time></trkpt><trkpt lat="45.83419089887545" lon="11.516056076485322"><ele>1154.0</ele><time>2026-04-19T09:50:49.999Z</time></trkpt><trkpt lat="45.83419179047066" lon="11.516149388027104"><ele>1154.0</ele><time>2026-04-19T09:50:52.999Z</time></trkpt><trkpt lat="45.83420235049595" lon="11.516260894732161"><ele>1154.0</ele><time>2026-04-19T09:50:55.999Z</time></trkpt><trkpt lat="45.834229303096066" lon="11.516356661674507"><ele>1154.0</ele><time>2026-04-19T09:51:01.999Z</time></trkpt><trkpt lat="45.834246342996416" lon="11.51645052942582"><ele>1154.0</ele><time>2026-04-19T09:51:05.999Z</time></trkpt><trkpt lat="45.834227771207075" lon="11.516557775007797"><ele>1154.0</ele><time>2026-04-19T09:51:08Z</time></trkpt><trkpt lat="45.834237104837385" lon="11.516671662803097"><ele>1154.0</ele><time>2026-04-19T09:51:10Z</time></trkpt><trkpt lat="45.834237426910555" lon="11.516779721457567"><ele>1153.8333333333335</ele><time>2026-04-19T09:51:12Z</time></trkpt><trkpt lat="45.8342720958606" lon="11.516882765997822"><ele>1153.6666666666667</ele><time>2026-04-19T09:51:14Z</time></trkpt><trkpt lat="45.834285299963916" lon="11.516992385644407"><ele>1153.5</ele><time>2026-04-19T09:51:16Z</time></trkpt><trkpt lat="45.8343196517433" lon="11.517080128719208"><ele>1153.3333333333333</ele><time>2026-04-19T09:51:18Z</time></trkpt><trkpt lat="45.8343772538524" lon="11.517170466443403"><ele>1153.1666666666665</ele><time>2026-04-19T09:51:20Z</time></trkpt><trkpt lat="45.834353375380104" lon="11.517327340020202"><ele>1153.0</ele><time>2026-04-19T09:51:22Z</time></trkpt><trkpt lat="45.83438463187171" lon="11.517418445963143"><ele>1153.0</ele><time>2026-04-19T09:51:24Z</time></trkpt><trkpt lat="45.834421776203634" lon="11.517500819966527"><ele>1153.0</ele><time>2026-04-19T09:51:26Z</time></trkpt><trkpt lat="45.83445602484559" lon="11.517591738503981"><ele>1153.0</ele><time>2026-04-19T09:51:28Z</time></trkpt><trkpt lat="45.83451448162498" lon="11.517629165846294"><ele>1153.0</ele><time>2026-04-19T09:51:31Z</time></trkpt><trkpt lat="45.834593062013234" lon="11.517605516633406"><ele>1153.0</ele><time>2026-04-19T09:51:36Z</time></trkpt><trkpt lat="45.83468690290458" lon="11.517650212045208"><ele>1153.0</ele><time>2026-04-19T09:51:38Z</time></trkpt><trkpt lat="45.83475211996882" lon="11.517676493163416"><ele>1153.0</ele><time>2026-04-19T09:51:39Z</time></trkpt><trkpt lat="45.834825273811674" lon="11.517740171072312"><ele>1153.0</ele><time>2026-04-19T09:51:41Z</time></trkpt><trkpt lat="45.83488991780388" lon="11.517871167650819"><ele>1153.0</ele><time>2026-04-19T09:51:43Z</time></trkpt><trkpt lat="45.83492913946058" lon="11.518010393155267"><ele>1153.0</ele><time>2026-04-19T09:51:45Z</time></trkpt><trkpt lat="45.83495166211288" lon="11.51812981433926"><ele>1153.0</ele><time>2026-04-19T09:51:47Z</time></trkpt><trkpt lat="45.834985992887376" lon="11.51826523798462"><ele>1151.7142857142858</ele><time>2026-04-19T09:51:50Z</time></trkpt><trkpt lat="45.83505785473391" lon="11.518347018197955"><ele>1150.4285714285716</ele><time>2026-04-19T09:51:52Z</time></trkpt><trkpt lat="45.835079901703246" lon="11.518441372896245"><ele>1149.142857142857</ele><time>2026-04-19T09:51:54Z</time></trkpt><trkpt lat="45.83508954705051" lon="11.518540580790557"><ele>1147.857142857143</ele><time>2026-04-19T09:51:57Z</time></trkpt><trkpt lat="45.83511812372563" lon="11.518647120131506"><ele>1146.5714285714284</ele><time>2026-04-19T09:52:01Z</time></trkpt><trkpt lat="45.83513755922897" lon="11.518745374854745"><ele>1145.2857142857142</ele><time>2026-04-19T09:52:04Z</time></trkpt><trkpt lat="45.835165318558005" lon="11.518826856743482"><ele>1144.0</ele><time>2026-04-19T09:52:06Z</time></trkpt><trkpt lat="45.835195340070385" lon="11.518942763629141"><ele>1144.0</ele><time>2026-04-19T09:52:09Z</time></trkpt><trkpt lat="45.83521472809722" lon="11.5190530102844"><ele>1144.0</ele><time>2026-04-19T09:52:11Z</time></trkpt><trkpt lat="45.835237952492605" lon="11.519201652419584"><ele>1144.0</ele><time>2026-04-19T09:52:13Z</time></trkpt><trkpt lat="45.8352720881101" lon="11.519357400962738"><ele>1144.0</ele><time>2026-04-19T09:52:15Z</time></trkpt><trkpt lat="45.83531867820206" lon="11.519497648921085"><ele>1144.0</ele><time>2026-04-19T09:52:17Z</time></trkpt><trkpt lat="45.8353874994353" lon="11.519633029100016"><ele>1142.2</ele><time>2026-04-19T09:52:19Z</time></trkpt><trkpt lat="45.835438792730656" lon="11.519692292182842"><ele>1140.4</ele><time>2026-04-19T09:52:20Z</time></trkpt><trkpt lat="45.835542166802114" lon="11.51980188881677"><ele>1138.6</ele><time>2026-04-19T09:52:22Z</time></trkpt><trkpt lat="45.83563745360046" lon="11.519888739416535"><ele>1136.8</ele><time>2026-04-19T09:52:24Z</time></trkpt><trkpt lat="45.83570651502437" lon="11.519993578438083"><ele>1135.0</ele><time>2026-04-19T09:52:26Z</time></trkpt><trkpt lat="45.83571549131054" lon="11.520192656079644"><ele>1135.0</ele><time>2026-04-19T09:52:28Z</time></trkpt><trkpt lat="45.83570174998848" lon="11.520306338508272"><ele>1135.0</ele><time>2026-04-19T09:52:29Z</time></trkpt><trkpt lat="45.83575214422714" lon="11.52045731459911"><ele>1135.0</ele><time>2026-04-19T09:52:31Z</time></trkpt><trkpt lat="45.83581165999671" lon="11.52050471047532"><ele>1135.0</ele><time>2026-04-19T09:52:32Z</time></trkpt><trkpt lat="45.83589437473243" lon="11.520613056973778"><ele>1135.0</ele><time>2026-04-19T09:52:34Z</time></trkpt><trkpt lat="45.835988106818405" lon="11.520736370391868"><ele>1135.1666666666665</ele><time>2026-04-19T09:52:36Z</time></trkpt><trkpt lat="45.83603045053041" lon="11.520805192907366"><ele>1135.3333333333333</ele><time>2026-04-19T09:52:37Z</time></trkpt><trkpt lat="45.836088612208954" lon="11.520965282612684"><ele>1135.5</ele><time>2026-04-19T09:52:39Z</time></trkpt><trkpt lat="45.83612881740561" lon="11.521041659263048"><ele>1135.6666666666667</ele><time>2026-04-19T09:52:40Z</time></trkpt><trkpt lat="45.836184491688535" lon="11.521094148040474"><ele>1135.8333333333335</ele><time>2026-04-19T09:52:41Z</time></trkpt><trkpt lat="45.83628859955533" lon="11.521123062714688"><ele>1136.0</ele><time>2026-04-19T09:52:42Z</time></trkpt><trkpt lat="45.83638567551272" lon="11.521167475736048"><ele>1136.0</ele><time>2026-04-19T09:52:43Z</time></trkpt><trkpt lat="45.83646630944429" lon="11.521203495779046"><ele>1136.0</ele><time>2026-04-19T09:52:44Z</time></trkpt><trkpt lat="45.836532000678524" lon="11.521236094465635"><ele>1136.0</ele><time>2026-04-19T09:52:45Z</time></trkpt><trkpt lat="45.836607347067364" lon="11.521268640798915"><ele>1136.0</ele><time>2026-04-19T09:52:45.998Z</time></trkpt><trkpt lat="45.83667769707248" lon="11.521305405340767"><ele>1136.0</ele><time>2026-04-19T09:52:46.998Z</time></trkpt><trkpt lat="45.83676973674743" lon="11.521314676881188"><ele>1136.0</ele><time>2026-04-19T09:52:47.998Z</time></trkpt><trkpt lat="45.83685749494115" lon="11.521405045070606"><ele>1136.2</ele><time>2026-04-19T09:52:48.998Z</time></trkpt><trkpt lat="45.83693160961062" lon="11.521420684368492"><ele>1136.3999999999999</ele><time>2026-04-19T09:52:49.998Z</time></trkpt><trkpt lat="45.83700681037404" lon="11.521435162661701"><ele>1136.6</ele><time>2026-04-19T09:52:50.998Z</time></trkpt><trkpt lat="45.83711393456966" lon="11.521439738282565"><ele>1136.8</ele><time>2026-04-19T09:52:51.998Z</time></trkpt><trkpt lat="45.837221340159864" lon="11.521486475559362"><ele>1137.0</ele><time>2026-04-19T09:52:52.998Z</time></trkpt><trkpt lat="45.83734075973566" lon="11.52150497393267"><ele>1137.0</ele><time>2026-04-19T09:52:53.998Z</time></trkpt><trkpt lat="45.83744153087599" lon="11.52151486604975"><ele>1137.0</ele><time>2026-04-19T09:52:54.998Z</time></trkpt><trkpt lat="45.8375500329486" lon="11.52152728300735"><ele>1137.0</ele><time>2026-04-19T09:52:55.998Z</time></trkpt><trkpt lat="45.83765866860838" lon="11.521520436645844"><ele>1137.0</ele><time>2026-04-19T09:52:56.998Z</time></trkpt><trkpt lat="45.83777864759219" lon="11.521527501711528"><ele>1137.0</ele><time>2026-04-19T09:52:57.998Z</time></trkpt><trkpt lat="45.83792307147562" lon="11.521523565470753"><ele>1136.0</ele><time>2026-04-19T09:52:58.998Z</time></trkpt><trkpt lat="45.83806485213283" lon="11.521522008761423"><ele>1135.0</ele><time>2026-04-19T09:52:59.999Z</time></trkpt><trkpt lat="45.83820820199274" lon="11.52153138892725"><ele>1134.0</ele><time>2026-04-19T09:53:00.999Z</time></trkpt><trkpt lat="45.83832505216665" lon="11.521560340674899"><ele>1133.0</ele><time>2026-04-19T09:53:01.999Z</time></trkpt><trkpt lat="45.83843942084927" lon="11.521615640157204"><ele>1132.8</ele><time>2026-04-19T09:53:02.999Z</time></trkpt><trkpt lat="45.83855063689194" lon="11.521659818601893"><ele>1132.6</ele><time>2026-04-19T09:53:03.999Z</time></trkpt><trkpt lat="45.83864845916929" lon="11.52170887319932"><ele>1132.4</ele><time>2026-04-19T09:53:04.999Z</time></trkpt><trkpt lat="45.83875118327743" lon="11.521753076725968"><ele>1132.2</ele><time>2026-04-19T09:53:05.999Z</time></trkpt><trkpt lat="45.83885416452851" lon="11.521801174910715"><ele>1132.0</ele><time>2026-04-19T09:53:06.999Z</time></trkpt><trkpt lat="45.838956392337614" lon="11.521868506764408"><ele>1132.0</ele><time>2026-04-19T09:53:07.999Z</time></trkpt><trkpt lat="45.83907275904122" lon="11.52189839252937"><ele>1132.0</ele><time>2026-04-19T09:53:08.999Z</time></trkpt><trkpt lat="45.839153384921254" lon="11.521992560047543"><ele>1132.0</ele><time>2026-04-19T09:53:09.999Z</time></trkpt><trkpt lat="45.839264187212564" lon="11.522044230173252"><ele>1132.0</ele><time>2026-04-19T09:53:10.999Z</time></trkpt><trkpt lat="45.83937168321417" lon="11.522136175621968"><ele>1130.4</ele><time>2026-04-19T09:53:11.999Z</time></trkpt><trkpt lat="45.83946021960345" lon="11.522212655114737"><ele>1128.8000000000002</ele><time>2026-04-19T09:53:12.999Z</time></trkpt><trkpt lat="45.83953775419951" lon="11.522276988890473"><ele>1127.2</ele><time>2026-04-19T09:53:13.999Z</time></trkpt><trkpt lat="45.839625678491686" lon="11.522344398836534"><ele>1125.6000000000001</ele><time>2026-04-19T09:53:14.999Z</time></trkpt><trkpt lat="45.83974875953843" lon="11.522424722902766"><ele>1124.0</ele><time>2026-04-19T09:53:15.999Z</time></trkpt><trkpt lat="45.83983716145257" lon="11.522464309416556"><ele>1124.0</ele><time>2026-04-19T09:53:16.999Z</time></trkpt><trkpt lat="45.83996994985406" lon="11.522514319317565"><ele>1124.0</ele><time>2026-04-19T09:53:18.999Z</time></trkpt><trkpt lat="45.840068769464146" lon="11.522553741676482"><ele>1124.0</ele><time>2026-04-19T09:53:19.999Z</time></trkpt><trkpt lat="45.84018661331212" lon="11.522603886056464"><ele>1124.0</ele><time>2026-04-19T09:53:20.999Z</time></trkpt><trkpt lat="45.840312236570774" lon="11.522664317816487"><ele>1122.75</ele><time>2026-04-19T09:53:21.999Z</time></trkpt><trkpt lat="45.84043307877406" lon="11.522745606946513"><ele>1121.5</ele><time>2026-04-19T09:53:22.999Z</time></trkpt><trkpt lat="45.8405393355402" lon="11.522804924386088"><ele>1120.25</ele><time>2026-04-19T09:53:23.999Z</time></trkpt><trkpt lat="45.84065466460771" lon="11.522849681195924"><ele>1119.0</ele><time>2026-04-19T09:53:24.999Z</time></trkpt><trkpt lat="45.84073193694692" lon="11.52293462018917"><ele>1119.0</ele><time>2026-04-19T09:53:25.999Z</time></trkpt><trkpt lat="45.84083609030085" lon="11.522997469098444"><ele>1119.0</ele><time>2026-04-19T09:53:26.999Z</time></trkpt><trkpt lat="45.840923687433495" lon="11.52305647920167"><ele>1119.0</ele><time>2026-04-19T09:53:27.999Z</time></trkpt><trkpt lat="45.84101074083955" lon="11.523096405274599"><ele>1119.0</ele><time>2026-04-19T09:53:28.999Z</time></trkpt><trkpt lat="45.841100634687514" lon="11.5231760955077"><ele>1119.0</ele><time>2026-04-19T09:53:29.999Z</time></trkpt><trkpt lat="45.8411812430062" lon="11.523246661696028"><ele>1119.8</ele><time>2026-04-19T09:53:30.999Z</time></trkpt><trkpt lat="45.84126240001681" lon="11.523313844650508"><ele>1120.6000000000001</ele><time>2026-04-19T09:53:31.999Z</time></trkpt><trkpt lat="45.84134955322715" lon="11.523375123669902"><ele>1121.4</ele><time>2026-04-19T09:53:32.999Z</time></trkpt><trkpt lat="45.84142428233362" lon="11.523425792312167"><ele>1122.2</ele><time>2026-04-19T09:53:33.999Z</time></trkpt><trkpt lat="45.84151203064826" lon="11.523464476237706"><ele>1123.0</ele><time>2026-04-19T09:53:34.999Z</time></trkpt><trkpt lat="45.84159604778468" lon="11.523508460817466"><ele>1123.0</ele><time>2026-04-19T09:53:35.999Z</time></trkpt><trkpt lat="45.84167343761549" lon="11.523548299658529"><ele>1123.0</ele><time>2026-04-19T09:53:36.999Z</time></trkpt><trkpt lat="45.84175526702656" lon="11.523569382008866"><ele>1123.0</ele><time>2026-04-19T09:53:37.999Z</time></trkpt><trkpt lat="45.841830297484975" lon="11.523587926211757"><ele>1123.0</ele><time>2026-04-19T09:53:38.999Z</time></trkpt><trkpt lat="45.84190701813726" lon="11.523593318969715"><ele>1123.0</ele><time>2026-04-19T09:53:39.999Z</time></trkpt><trkpt lat="45.84198445433415" lon="11.523646842206782"><ele>1123.0</ele><time>2026-04-19T09:53:40.999Z</time></trkpt><trkpt lat="45.84205884532559" lon="11.523656859458121"><ele>1123.0</ele><time>2026-04-19T09:53:41.999Z</time></trkpt><trkpt lat="45.84212138229337" lon="11.52367151267306"><ele>1123.0</ele><time>2026-04-19T09:53:42.999Z</time></trkpt><trkpt lat="45.84218612310184" lon="11.523686981850497"><ele>1123.0</ele><time>2026-04-19T09:53:43.999Z</time></trkpt><trkpt lat="45.842244552900326" lon="11.52372870699657"><ele>1123.0</ele><time>2026-04-19T09:53:45Z</time></trkpt><trkpt lat="45.842322354920995" lon="11.52372082951592"><ele>1123.0</ele><time>2026-04-19T09:53:46Z</time></trkpt><trkpt lat="45.84241851633239" lon="11.523749260534625"><ele>1123.0</ele><time>2026-04-19T09:53:47Z</time></trkpt><trkpt lat="45.84250405333552" lon="11.52377648224494"><ele>1123.0</ele><time>2026-04-19T09:53:48Z</time></trkpt><trkpt lat="45.84258777804213" lon="11.523809195867894"><ele>1123.0</ele><time>2026-04-19T09:53:49Z</time></trkpt><trkpt lat="45.84265867684315" lon="11.523837859828332"><ele>1123.0</ele><time>2026-04-19T09:53:50Z</time></trkpt><trkpt lat="45.842741731487074" lon="11.523900173730583"><ele>1123.0</ele><time>2026-04-19T09:53:51Z</time></trkpt><trkpt lat="45.842834334751416" lon="11.523954807622852"><ele>1123.0</ele><time>2026-04-19T09:53:52Z</time></trkpt><trkpt lat="45.8429373637701" lon="11.523983097506289"><ele>1121.6</ele><time>2026-04-19T09:53:53Z</time></trkpt><trkpt lat="45.84302217605071" lon="11.524041484634585"><ele>1120.1999999999998</ele><time>2026-04-19T09:53:54Z</time></trkpt><trkpt lat="45.843099225776044" lon="11.52407983750134"><ele>1118.8</ele><time>2026-04-19T09:53:55Z</time></trkpt><trkpt lat="45.843170569328976" lon="11.524110364740995"><ele>1117.3999999999999</ele><time>2026-04-19T09:53:56Z</time></trkpt><trkpt lat="45.843242427473655" lon="11.52413825046211"><ele>1116.0</ele><time>2026-04-19T09:53:57Z</time></trkpt><trkpt lat="45.84337271546022" lon="11.524128709366227"><ele>1116.0</ele><time>2026-04-19T09:53:59Z</time></trkpt><trkpt lat="45.84344880523774" lon="11.524119176817193"><ele>1116.0</ele><time>2026-04-19T09:54:00Z</time></trkpt><trkpt lat="45.84351235119355" lon="11.524117274409425"><ele>1116.0</ele><time>2026-04-19T09:54:01Z</time></trkpt><trkpt lat="45.84358662491292" lon="11.524101297643726"><ele>1116.0</ele><time>2026-04-19T09:54:02Z</time></trkpt><trkpt lat="45.843652552390864" lon="11.5240839051011"><ele>1116.0</ele><time>2026-04-19T09:54:03Z</time></trkpt><trkpt lat="45.84377675179668" lon="11.524096199467984"><ele>1116.0</ele><time>2026-04-19T09:54:04Z</time></trkpt><trkpt lat="45.843842372918374" lon="11.524094838145984"><ele>1116.6</ele><time>2026-04-19T09:54:05Z</time></trkpt><trkpt lat="45.84394729133641" lon="11.524100140598724"><ele>1117.1999999999998</ele><time>2026-04-19T09:54:06Z</time></trkpt><trkpt lat="45.84404317299651" lon="11.524104741037089"><ele>1117.8000000000002</ele><time>2026-04-19T09:54:07Z</time></trkpt><trkpt lat="45.84413372336603" lon="11.524129065214865"><ele>1118.4</ele><time>2026-04-19T09:54:08Z</time></trkpt><trkpt lat="45.84422374134433" lon="11.524200012116411"><ele>1119.0</ele><time>2026-04-19T09:54:09Z</time></trkpt><trkpt lat="45.84431668867034" lon="11.524251469657294"><ele>1119.0</ele><time>2026-04-19T09:54:10Z</time></trkpt><trkpt lat="45.84439909675091" lon="11.524304577109241"><ele>1119.0</ele><time>2026-04-19T09:54:11Z</time></trkpt><trkpt lat="45.844477609713735" lon="11.52437849300105"><ele>1119.0</ele><time>2026-04-19T09:54:12Z</time></trkpt><trkpt lat="45.84454623300231" lon="11.524455466801463"><ele>1119.0</ele><time>2026-04-19T09:54:13Z</time></trkpt><trkpt lat="45.84461428502287" lon="11.524540029563484"><ele>1119.0</ele><time>2026-04-19T09:54:14Z</time></trkpt><trkpt lat="45.84468452121094" lon="11.524605820823231"><ele>1119.0</ele><time>2026-04-19T09:54:15Z</time></trkpt><trkpt lat="45.84474972556763" lon="11.524714158672515"><ele>1118.0</ele><time>2026-04-19T09:54:16Z</time></trkpt><trkpt lat="45.844808049931984" lon="11.524796240219379"><ele>1117.0</ele><time>2026-04-19T09:54:17Z</time></trkpt><trkpt lat="45.84487553369021" lon="11.52488613927883"><ele>1116.0</ele><time>2026-04-19T09:54:18Z</time></trkpt><trkpt lat="45.844930209167345" lon="11.52493838112547"><ele>1115.0</ele><time>2026-04-19T09:54:19Z</time></trkpt><trkpt lat="45.844987690365905" lon="11.524986816784946"><ele>1114.0</ele><time>2026-04-19T09:54:20Z</time></trkpt><trkpt lat="45.845051675487895" lon="11.525040215131229"><ele>1113.0</ele><time>2026-04-19T09:54:21Z</time></trkpt><trkpt lat="45.84510857258566" lon="11.525095113426884"><ele>1112.0</ele><time>2026-04-19T09:54:22Z</time></trkpt><trkpt lat="45.84520388112229" lon="11.525189699351463"><ele>1112.0</ele><time>2026-04-19T09:54:24Z</time></trkpt><trkpt lat="45.84528066332054" lon="11.525275393386176"><ele>1112.0</ele><time>2026-04-19T09:54:26Z</time></trkpt><trkpt lat="45.84532592390892" lon="11.525342016286654"><ele>1112.0</ele><time>2026-04-19T09:54:28Z</time></trkpt><trkpt lat="45.84538462849535" lon="11.52540872559725"><ele>1112.0</ele><time>2026-04-19T09:54:31Z</time></trkpt><trkpt lat="45.84542049157725" lon="11.525488929340073"><ele>1112.0</ele><time>2026-04-19T09:54:33Z</time></trkpt><trkpt lat="45.845490757475005" lon="11.525580051699336"><ele>1112.0</ele><time>2026-04-19T09:54:35Z</time></trkpt><trkpt lat="45.84557358705686" lon="11.525651696331343"><ele>1111.1666666666667</ele><time>2026-04-19T09:54:37Z</time></trkpt><trkpt lat="45.845633624564066" lon="11.525681427257293"><ele>1110.3333333333335</ele><time>2026-04-19T09:54:39Z</time></trkpt><trkpt lat="45.8457359127182" lon="11.525654967880127"><ele>1109.5</ele><time>2026-04-19T09:54:41Z</time></trkpt><trkpt lat="45.845815816329576" lon="11.525656249245092"><ele>1108.6666666666667</ele><time>2026-04-19T09:54:43Z</time></trkpt><trkpt lat="45.84590894269516" lon="11.525667602489024"><ele>1107.8333333333333</ele><time>2026-04-19T09:54:46Z</time></trkpt><trkpt lat="45.84598906124822" lon="11.525671766953506"><ele>1107.0</ele><time>2026-04-19T09:54:48Z</time></trkpt><trkpt lat="45.84610910606509" lon="11.525701381702273"><ele>1106.5</ele><time>2026-04-19T09:54:50Z</time></trkpt><trkpt lat="45.84622657230589" lon="11.525761498010528"><ele>1106.0</ele><time>2026-04-19T09:54:51.999Z</time></trkpt><trkpt lat="45.846341779553235" lon="11.525831952123033"><ele>1105.5</ele><time>2026-04-19T09:54:53.999Z</time></trkpt><trkpt lat="45.84645086277876" lon="11.525889516083385"><ele>1105.0</ele><time>2026-04-19T09:54:55.999Z</time></trkpt><trkpt lat="45.84657067407777" lon="11.525997308848087"><ele>1105.0</ele><time>2026-04-19T09:54:57.999Z</time></trkpt><trkpt lat="45.84664545262565" lon="11.526054194605262"><ele>1105.0</ele><time>2026-04-19T09:54:58.999Z</time></trkpt><trkpt lat="45.84672697021671" lon="11.526096585518125"><ele>1105.0</ele><time>2026-04-19T09:54:59.999Z</time></trkpt><trkpt lat="45.84680882887777" lon="11.526136611536693"><ele>1105.0</ele><time>2026-04-19T09:55:00.999Z</time></trkpt><trkpt lat="45.84689157268017" lon="11.526177832248594"><ele>1105.0</ele><time>2026-04-19T09:55:01.999Z</time></trkpt><trkpt lat="45.84697273975183" lon="11.52620693586111"><ele>1105.0</ele><time>2026-04-19T09:55:02.999Z</time></trkpt><trkpt lat="45.84709157844649" lon="11.526188102836153"><ele>1105.0</ele><time>2026-04-19T09:55:03.999Z</time></trkpt><trkpt lat="45.84717736151055" lon="11.526197153184397"><ele>1105.0</ele><time>2026-04-19T09:55:04.999Z</time></trkpt><trkpt lat="45.84724912148582" lon="11.526195568332174"><ele>1105.0</ele><time>2026-04-19T09:55:05.999Z</time></trkpt><trkpt lat="45.84731539592129" lon="11.526187181581019"><ele>1105.0</ele><time>2026-04-19T09:55:06.999Z</time></trkpt><trkpt lat="45.84738379776334" lon="11.52619719941636"><ele>1105.0</ele><time>2026-04-19T09:55:07.999Z</time></trkpt><trkpt lat="45.847460216980686" lon="11.526202312528035"><ele>1105.0</ele><time>2026-04-19T09:55:08.999Z</time></trkpt><trkpt lat="45.84754383227535" lon="11.526228725511341"><ele>1103.8</ele><time>2026-04-19T09:55:09.999Z</time></trkpt><trkpt lat="45.84764681754617" lon="11.526246885676777"><ele>1102.6</ele><time>2026-04-19T09:55:10.999Z</time></trkpt><trkpt lat="45.84774374302036" lon="11.526265240378796"><ele>1101.4</ele><time>2026-04-19T09:55:11.999Z</time></trkpt><trkpt lat="45.84785379546001" lon="11.526281542879849"><ele>1100.2</ele><time>2026-04-19T09:55:12.999Z</time></trkpt><trkpt lat="45.8479543580796" lon="11.52630118009562"><ele>1099.0</ele><time>2026-04-19T09:55:13.999Z</time></trkpt><trkpt lat="45.84805039681238" lon="11.526333797891514"><ele>1099.0</ele><time>2026-04-19T09:55:14.999Z</time></trkpt><trkpt lat="45.848118795657385" lon="11.526372239976048"><ele>1099.0</ele><time>2026-04-19T09:55:15.999Z</time></trkpt><trkpt lat="45.84817992563475" lon="11.52641923639731"><ele>1099.0</ele><time>2026-04-19T09:55:16.999Z</time></trkpt><trkpt lat="45.848267157926585" lon="11.526489546166227"><ele>1099.0</ele><time>2026-04-19T09:55:17.999Z</time></trkpt><trkpt lat="45.84835610329301" lon="11.52657288080714"><ele>1099.0</ele><time>2026-04-19T09:55:18.999Z</time></trkpt><trkpt lat="45.84843534925112" lon="11.526632549690959"><ele>1099.0</ele><time>2026-04-19T09:55:19.999Z</time></trkpt><trkpt lat="45.84851913895142" lon="11.526670622462884"><ele>1099.0</ele><time>2026-04-19T09:55:20.999Z</time></trkpt><trkpt lat="45.84859953030952" lon="11.526684750028805"><ele>1099.0</ele><time>2026-04-19T09:55:21.999Z</time></trkpt><trkpt lat="45.84872770816094" lon="11.526641888512897"><ele>1099.0</ele><time>2026-04-19T09:55:25Z</time></trkpt><trkpt lat="45.84879358506945" lon="11.52667113561641"><ele>1099.0</ele><time>2026-04-19T09:55:26Z</time></trkpt><trkpt lat="45.84886463794577" lon="11.526673601413075"><ele>1099.0</ele><time>2026-04-19T09:55:27Z</time></trkpt><trkpt lat="45.84894466100711" lon="11.526647629407716"><ele>1099.0</ele><time>2026-04-19T09:55:28Z</time></trkpt><trkpt lat="45.84903669326024" lon="11.526641429664636"><ele>1099.0</ele><time>2026-04-19T09:55:29Z</time></trkpt><trkpt lat="45.849104994046726" lon="11.52666242634319"><ele>1099.0</ele><time>2026-04-19T09:55:30Z</time></trkpt><trkpt lat="45.84917120852415" lon="11.5266218848455"><ele>1099.0</ele><time>2026-04-19T09:55:31Z</time></trkpt><trkpt lat="45.84924827495344" lon="11.526615064099618"><ele>1099.0</ele><time>2026-04-19T09:55:32Z</time></trkpt><trkpt lat="45.84933441898149" lon="11.52662753110421"><ele>1099.0</ele><time>2026-04-19T09:55:33Z</time></trkpt><trkpt lat="45.84943253767597" lon="11.526650892738108"><ele>1099.0</ele><time>2026-04-19T09:55:34Z</time></trkpt><trkpt lat="45.849501068262576" lon="11.526673929845524"><ele>1099.3333333333333</ele><time>2026-04-19T09:55:35Z</time></trkpt><trkpt lat="45.8495805400588" lon="11.526694201956031"><ele>1099.6666666666665</ele><time>2026-04-19T09:55:36Z</time></trkpt><trkpt lat="45.84965445961031" lon="11.526706604289872"><ele>1100.0</ele><time>2026-04-19T09:55:37Z</time></trkpt><trkpt lat="45.84972484393613" lon="11.526714841035918"><ele>1100.3333333333333</ele><time>2026-04-19T09:55:38Z</time></trkpt><trkpt lat="45.849790937672694" lon="11.526711904321562"><ele>1100.6666666666667</ele><time>2026-04-19T09:55:39Z</time></trkpt><trkpt lat="45.84986900733487" lon="11.5266998686689"><ele>1101.0</ele><time>2026-04-19T09:55:41Z</time></trkpt><trkpt lat="45.84998741377406" lon="11.526707009399644"><ele>1101.0</ele><time>2026-04-19T09:55:43Z</time></trkpt><trkpt lat="45.85006337258646" lon="11.526714070035403"><ele>1101.0</ele><time>2026-04-19T09:55:44Z</time></trkpt><trkpt lat="45.850197296832064" lon="11.526727020055207"><ele>1101.0</ele><time>2026-04-19T09:55:46Z</time></trkpt><trkpt lat="45.85030510203164" lon="11.526708528364148"><ele>1101.0</ele><time>2026-04-19T09:55:48Z</time></trkpt><trkpt lat="45.85038203854702" lon="11.5266362684038"><ele>1101.0</ele><time>2026-04-19T09:55:50Z</time></trkpt><trkpt lat="45.850458807960585" lon="11.526570203892199"><ele>1100.5</ele><time>2026-04-19T09:55:51Z</time></trkpt><trkpt lat="45.850512533380304" lon="11.52647525122353"><ele>1100.0</ele><time>2026-04-19T09:55:52Z</time></trkpt><trkpt lat="45.8505709487417" lon="11.52643428801514"><ele>1099.5</ele><time>2026-04-19T09:55:53Z</time></trkpt><trkpt lat="45.85064146038848" lon="11.52639160531867"><ele>1099.0</ele><time>2026-04-19T09:55:54Z</time></trkpt><trkpt lat="45.850701225395255" lon="11.52633488694282"><ele>1098.5</ele><time>2026-04-19T09:55:55Z</time></trkpt><trkpt lat="45.850787829620245" lon="11.526228480610337"><ele>1098.0</ele><time>2026-04-19T09:55:56Z</time></trkpt><trkpt lat="45.85087119694502" lon="11.526129545824368"><ele>1097.6666666666667</ele><time>2026-04-19T09:55:57Z</time></trkpt><trkpt lat="45.85092659091083" lon="11.526016493897087"><ele>1097.3333333333333</ele><time>2026-04-19T09:55:58Z</time></trkpt><trkpt lat="45.8509850556173" lon="11.525942941368472"><ele>1097.0</ele><time>2026-04-19T09:55:59Z</time></trkpt><trkpt lat="45.85100994177761" lon="11.525850856832037"><ele>1096.6666666666665</ele><time>2026-04-19T09:56:00Z</time></trkpt><trkpt lat="45.85106129004833" lon="11.5257773918459"><ele>1096.3333333333333</ele><time>2026-04-19T09:56:01Z</time></trkpt><trkpt lat="45.851122418059035" lon="11.525692083723468"><ele>1096.0</ele><time>2026-04-19T09:56:02Z</time></trkpt><trkpt lat="45.85115341760509" lon="11.525610268478347"><ele>1096.0</ele><time>2026-04-19T09:56:03Z</time></trkpt><trkpt lat="45.8512167869735" lon="11.525553005615501"><ele>1096.0</ele><time>2026-04-19T09:56:04Z</time></trkpt><trkpt lat="45.8512674473447" lon="11.525495901168872"><ele>1096.0</ele><time>2026-04-19T09:56:05Z</time></trkpt><trkpt lat="45.85136517767283" lon="11.525410631195149"><ele>1096.0</ele><time>2026-04-19T09:56:07Z</time></trkpt><trkpt lat="45.851489670002174" lon="11.525338644091212"><ele>1096.0</ele><time>2026-04-19T09:56:08Z</time></trkpt><trkpt lat="45.85161126505745" lon="11.525319244707672"><ele>1095.5</ele><time>2026-04-19T09:56:10Z</time></trkpt><trkpt lat="45.85170212361864" lon="11.525322855839635"><ele>1095.0</ele><time>2026-04-19T09:56:12Z</time></trkpt><trkpt lat="45.85182664891586" lon="11.525325074729835"><ele>1094.5</ele><time>2026-04-19T09:56:14Z</time></trkpt><trkpt lat="45.851913426320024" lon="11.525325842609867"><ele>1094.0</ele><time>2026-04-19T09:56:15Z</time></trkpt><trkpt lat="45.85198960347034" lon="11.525320024488417"><ele>1093.5</ele><time>2026-04-19T09:56:16Z</time></trkpt><trkpt lat="45.8520583411941" lon="11.525307357635771"><ele>1093.0</ele><time>2026-04-19T09:56:17Z</time></trkpt><trkpt lat="45.85212997337561" lon="11.525291378446722"><ele>1093.0</ele><time>2026-04-19T09:56:18Z</time></trkpt><trkpt lat="45.852201724875385" lon="11.525271387564151"><ele>1093.0</ele><time>2026-04-19T09:56:19Z</time></trkpt><trkpt lat="45.85233603918565" lon="11.52520250464207"><ele>1093.0</ele><time>2026-04-19T09:56:20Z</time></trkpt><trkpt lat="45.852414907460926" lon="11.525136070861661"><ele>1093.0</ele><time>2026-04-19T09:56:21Z</time></trkpt><trkpt lat="45.852472591101034" lon="11.5250696889331"><ele>1093.0</ele><time>2026-04-19T09:56:22Z</time></trkpt><trkpt lat="45.852554849321976" lon="11.524954080686795"><ele>1093.0</ele><time>2026-04-19T09:56:23Z</time></trkpt><trkpt lat="45.852613923946016" lon="11.524862137431274"><ele>1093.0</ele><time>2026-04-19T09:56:24Z</time></trkpt><trkpt lat="45.85267005484413" lon="11.524788895472877"><ele>1093.0</ele><time>2026-04-19T09:56:25Z</time></trkpt><trkpt lat="45.85274617748411" lon="11.524683437260641"><ele>1093.0</ele><time>2026-04-19T09:56:26Z</time></trkpt><trkpt lat="45.852787850357224" lon="11.524608562399905"><ele>1093.0</ele><time>2026-04-19T09:56:27Z</time></trkpt><trkpt lat="45.85284265911065" lon="11.524523644134993"><ele>1093.0</ele><time>2026-04-19T09:56:28Z</time></trkpt><trkpt lat="45.85289375158014" lon="11.524423889404334"><ele>1092.6</ele><time>2026-04-19T09:56:29Z</time></trkpt><trkpt lat="45.85296829731776" lon="11.524345019579329"><ele>1092.1999999999998</ele><time>2026-04-19T09:56:30Z</time></trkpt><trkpt lat="45.853019121718255" lon="11.524233748641427"><ele>1091.8</ele><time>2026-04-19T09:56:31Z</time></trkpt><trkpt lat="45.85306272890102" lon="11.524163716106743"><ele>1091.3999999999999</ele><time>2026-04-19T09:56:32Z</time></trkpt><trkpt lat="45.853115885883945" lon="11.52407834675855"><ele>1091.0</ele><time>2026-04-19T09:56:33Z</time></trkpt><trkpt lat="45.85318879583482" lon="11.5239394558541"><ele>1091.0</ele><time>2026-04-19T09:56:35Z</time></trkpt><trkpt lat="45.85322627833041" lon="11.523767381420807"><ele>1091.0</ele><time>2026-04-19T09:56:37Z</time></trkpt><trkpt lat="45.853208656321506" lon="11.523595559535188"><ele>1091.0</ele><time>2026-04-19T09:56:39Z</time></trkpt><trkpt lat="45.85323751105908" lon="11.523441490937705"><ele>1091.0</ele><time>2026-04-19T09:56:41Z</time></trkpt><trkpt lat="45.85324631344352" lon="11.52333012080526"><ele>1091.0</ele><time>2026-04-19T09:56:44Z</time></trkpt><trkpt lat="45.853285806219596" lon="11.523214625031738"><ele>1090.8333333333335</ele><time>2026-04-19T09:56:46Z</time></trkpt><trkpt lat="45.85332951080849" lon="11.52307438293129"><ele>1090.6666666666667</ele><time>2026-04-19T09:56:49Z</time></trkpt><trkpt lat="45.85335357903174" lon="11.522984593523905"><ele>1090.5</ele><time>2026-04-19T09:56:50Z</time></trkpt><trkpt lat="45.85337120310129" lon="11.522881951090785"><ele>1090.3333333333333</ele><time>2026-04-19T09:56:51Z</time></trkpt><trkpt lat="45.853374676509894" lon="11.52274750181608"><ele>1090.1666666666665</ele><time>2026-04-19T09:56:53Z</time></trkpt><trkpt lat="45.85336985501157" lon="11.5226121141798"><ele>1090.0</ele><time>2026-04-19T09:56:56.001Z</time></trkpt><trkpt lat="45.85336945370576" lon="11.522490340570135"><ele>1089.5</ele><time>2026-04-19T09:56:58Z</time></trkpt><trkpt lat="45.85337494732568" lon="11.522348966842245"><ele>1089.0</ele><time>2026-04-19T09:57:01Z</time></trkpt><trkpt lat="45.85338075703407" lon="11.522227841390425"><ele>1088.5</ele><time>2026-04-19T09:57:03Z</time></trkpt><trkpt lat="45.85338989696894" lon="11.52210694636263"><ele>1088.0</ele><time>2026-04-19T09:57:05Z</time></trkpt><trkpt lat="45.853399156352005" lon="11.522008522175721"><ele>1087.5</ele><time>2026-04-19T09:57:07Z</time></trkpt><trkpt lat="45.85340308443935" lon="11.521877538539709"><ele>1087.0</ele><time>2026-04-19T09:57:09Z</time></trkpt><trkpt lat="45.853456215328954" lon="11.52176598212512"><ele>1087.0</ele><time>2026-04-19T09:57:11Z</time></trkpt><trkpt lat="45.853476183946135" lon="11.521649253341367"><ele>1087.0</ele><time>2026-04-19T09:57:13Z</time></trkpt><trkpt lat="45.85352406295067" lon="11.521545097344701"><ele>1087.0</ele><time>2026-04-19T09:57:15Z</time></trkpt><trkpt lat="45.8535391443389" lon="11.521448670490912"><ele>1087.0</ele><time>2026-04-19T09:57:16Z</time></trkpt><trkpt lat="45.85356569247662" lon="11.521343567719907"><ele>1087.0</ele><time>2026-04-19T09:57:18Z</time></trkpt><trkpt lat="45.85360331484693" lon="11.52115873628901"><ele>1087.8333333333333</ele><time>2026-04-19T09:57:20Z</time></trkpt><trkpt lat="45.85359126240091" lon="11.521062988191114"><ele>1088.6666666666665</ele><time>2026-04-19T09:57:23Z</time></trkpt><trkpt lat="45.85356751177202" lon="11.520945457517987"><ele>1089.5</ele><time>2026-04-19T09:57:24Z</time></trkpt><trkpt lat="45.85354903440198" lon="11.520811899884366"><ele>1090.3333333333333</ele><time>2026-04-19T09:57:25Z</time></trkpt><trkpt lat="45.85353297197662" lon="11.52071967451812"><ele>1091.1666666666667</ele><time>2026-04-19T09:57:26Z</time></trkpt><trkpt lat="45.8535155846909" lon="11.520611586963781"><ele>1092.0</ele><time>2026-04-19T09:57:27Z</time></trkpt><trkpt lat="45.85349676652151" lon="11.520478635342258"><ele>1092.4</ele><time>2026-04-19T09:57:28Z</time></trkpt><trkpt lat="45.853480062686415" lon="11.52033061166523"><ele>1092.8000000000002</ele><time>2026-04-19T09:57:29Z</time></trkpt><trkpt lat="45.853467306591256" lon="11.52014334316459"><ele>1093.2</ele><time>2026-04-19T09:57:30Z</time></trkpt><trkpt lat="45.85344967616006" lon="11.520020824440705"><ele>1093.6000000000001</ele><time>2026-04-19T09:57:31Z</time></trkpt><trkpt lat="45.8534410084092" lon="11.519881737376906"><ele>1094.0</ele><time>2026-04-19T09:57:32Z</time></trkpt><trkpt lat="45.8534323328003" lon="11.519736296779419"><ele>1092.3333333333335</ele><time>2026-04-19T09:57:33Z</time></trkpt><trkpt lat="45.85342557222371" lon="11.519612824746696"><ele>1090.6666666666667</ele><time>2026-04-19T09:57:34Z</time></trkpt><trkpt lat="45.853417517439425" lon="11.519467342579025"><ele>1089.0</ele><time>2026-04-19T09:57:35Z</time></trkpt><trkpt lat="45.85341720486327" lon="11.519356581359801"><ele>1087.3333333333333</ele><time>2026-04-19T09:57:36Z</time></trkpt><trkpt lat="45.85342044161723" lon="11.519247851560252"><ele>1085.6666666666665</ele><time>2026-04-19T09:57:37Z</time></trkpt><trkpt lat="45.853420441621125" lon="11.519145149296579"><ele>1084.0</ele><time>2026-04-19T09:57:38Z</time></trkpt><trkpt lat="45.85342409302883" lon="11.519047037012207"><ele>1084.0</ele><time>2026-04-19T09:57:39Z</time></trkpt><trkpt lat="45.85338357779248" lon="11.518932933324274"><ele>1084.0</ele><time>2026-04-19T09:57:41Z</time></trkpt><trkpt lat="45.85336344025912" lon="11.51884001567337"><ele>1084.0</ele><time>2026-04-19T09:57:42Z</time></trkpt><trkpt lat="45.853367120684474" lon="11.518743292209088"><ele>1084.0</ele><time>2026-04-19T09:57:43Z</time></trkpt><trkpt lat="45.85334479409358" lon="11.518572600376151"><ele>1084.0</ele><time>2026-04-19T09:57:45Z</time></trkpt><trkpt lat="45.8532647338095" lon="11.518509331291899"><ele>1084.0</ele><time>2026-04-19T09:57:46Z</time></trkpt><trkpt lat="45.85320419440343" lon="11.518331106552697"><ele>1083.5</ele><time>2026-04-19T09:57:48Z</time></trkpt><trkpt lat="45.85314911969916" lon="11.51824149669535"><ele>1083.0</ele><time>2026-04-19T09:57:49Z</time></trkpt><trkpt lat="45.853112562035186" lon="11.51815361512314"><ele>1082.5</ele><time>2026-04-19T09:57:50Z</time></trkpt><trkpt lat="45.85309388499927" lon="11.518042629199748"><ele>1082.0</ele><time>2026-04-19T09:57:51Z</time></trkpt><trkpt lat="45.85307229887287" lon="11.517931231430472"><ele>1081.5</ele><time>2026-04-19T09:57:52Z</time></trkpt><trkpt lat="45.853046670555074" lon="11.517834137019163"><ele>1081.0</ele><time>2026-04-19T09:57:53Z</time></trkpt><trkpt lat="45.85300851813441" lon="11.517738877878688"><ele>1081.0</ele><time>2026-04-19T09:57:54Z</time></trkpt><trkpt lat="45.852956355421156" lon="11.51757776678087"><ele>1081.0</ele><time>2026-04-19T09:57:56Z</time></trkpt><trkpt lat="45.85292454094706" lon="11.517480940600898"><ele>1081.0</ele><time>2026-04-19T09:57:57Z</time></trkpt><trkpt lat="45.85288596152605" lon="11.517397619191334"><ele>1081.0</ele><time>2026-04-19T09:57:58Z</time></trkpt><trkpt lat="45.85286443210878" lon="11.517304083541509"><ele>1081.0</ele><time>2026-04-19T09:57:59Z</time></trkpt><trkpt lat="45.85286168078434" lon="11.517193959602915"><ele>1081.0</ele><time>2026-04-19T09:58:00Z</time></trkpt><trkpt lat="45.85282908504929" lon="11.517027684623862"><ele>1080.6666666666665</ele><time>2026-04-19T09:58:02Z</time></trkpt><trkpt lat="45.852816291635705" lon="11.516933813599474"><ele>1080.3333333333333</ele><time>2026-04-19T09:58:03Z</time></trkpt><trkpt lat="45.85279678515871" lon="11.516790966032511"><ele>1080.0</ele><time>2026-04-19T09:58:05.001Z</time></trkpt><trkpt lat="45.852775289991406" lon="11.516682661840745"><ele>1079.6666666666667</ele><time>2026-04-19T09:58:07.001Z</time></trkpt><trkpt lat="45.8527990681086" lon="11.516562549967189"><ele>1079.3333333333335</ele><time>2026-04-19T09:58:09.001Z</time></trkpt><trkpt lat="45.85279583285994" lon="11.516407139375346"><ele>1079.0</ele><time>2026-04-19T09:58:11.001Z</time></trkpt><trkpt lat="45.85282078116542" lon="11.516223147918506"><ele>1078.1666666666667</ele><time>2026-04-19T09:58:12.001Z</time></trkpt><trkpt lat="45.852866481702875" lon="11.516079860872953"><ele>1077.3333333333335</ele><time>2026-04-19T09:58:13.001Z</time></trkpt><trkpt lat="45.85289678584886" lon="11.515958524367488"><ele>1076.5</ele><time>2026-04-19T09:58:14.001Z</time></trkpt><trkpt lat="45.852927153098236" lon="11.51585599132928"><ele>1075.6666666666667</ele><time>2026-04-19T09:58:15.001Z</time></trkpt><trkpt lat="45.85296961769194" lon="11.5157545757605"><ele>1074.8333333333333</ele><time>2026-04-19T09:58:16.001Z</time></trkpt><trkpt lat="45.85299562682695" lon="11.51566688640693"><ele>1074.0</ele><time>2026-04-19T09:58:17.001Z</time></trkpt><trkpt lat="45.853016585482884" lon="11.515574560805314"><ele>1074.0</ele><time>2026-04-19T09:58:18.001Z</time></trkpt><trkpt lat="45.853037139696816" lon="11.515475177098443"><ele>1074.0</ele><time>2026-04-19T09:58:19.001Z</time></trkpt><trkpt lat="45.85306147351588" lon="11.51538679114788"><ele>1074.0</ele><time>2026-04-19T09:58:20.001Z</time></trkpt><trkpt lat="45.85304519667173" lon="11.51521619938214"><ele>1074.0</ele><time>2026-04-19T09:58:22.001Z</time></trkpt><trkpt lat="45.85308275656285" lon="11.515097995850741"><ele>1074.0</ele><time>2026-04-19T09:58:24.001Z</time></trkpt><trkpt lat="45.85314337255337" lon="11.515050379767036"><ele>1074.0</ele><time>2026-04-19T09:58:26.001Z</time></trkpt><trkpt lat="45.85322759638883" lon="11.514960356346892"><ele>1073.6666666666667</ele><time>2026-04-19T09:58:28.001Z</time></trkpt><trkpt lat="45.853302082343575" lon="11.514920023279378"><ele>1073.3333333333333</ele><time>2026-04-19T09:58:29.001Z</time></trkpt><trkpt lat="45.85341849887248" lon="11.514822127747205"><ele>1073.0</ele><time>2026-04-19T09:58:31.001Z</time></trkpt><trkpt lat="45.85348220478179" lon="11.514753933096852"><ele>1072.6666666666665</ele><time>2026-04-19T09:58:32.001Z</time></trkpt><trkpt lat="45.853546402645534" lon="11.514681346219822"><ele>1072.3333333333333</ele><time>2026-04-19T09:58:33.001Z</time></trkpt><trkpt lat="45.85360236952454" lon="11.51462705468449"><ele>1072.0</ele><time>2026-04-19T09:58:34.001Z</time></trkpt><trkpt lat="45.853670038136386" lon="11.51457417121307"><ele>1068.4</ele><time>2026-04-19T09:58:35.001Z</time></trkpt><trkpt lat="45.85371844561848" lon="11.514511019607289"><ele>1064.8000000000002</ele><time>2026-04-19T09:58:36.001Z</time></trkpt><trkpt lat="45.853854322431935" lon="11.514452708132527"><ele>1061.2</ele><time>2026-04-19T09:58:38.001Z</time></trkpt><trkpt lat="45.853916456539004" lon="11.51441715183063"><ele>1057.6000000000001</ele><time>2026-04-19T09:58:39.001Z</time></trkpt><trkpt lat="45.85402645841043" lon="11.514376152302756"><ele>1054.0</ele><time>2026-04-19T09:58:41.001Z</time></trkpt><trkpt lat="45.85408404638278" lon="11.514298525733963"><ele>1054.0</ele><time>2026-04-19T09:58:42.001Z</time></trkpt><trkpt lat="45.85413635531412" lon="11.51422393197536"><ele>1054.0</ele><time>2026-04-19T09:58:43.001Z</time></trkpt><trkpt lat="45.854207575446345" lon="11.514165122813148"><ele>1054.0</ele><time>2026-04-19T09:58:44.001Z</time></trkpt><trkpt lat="45.85425765216886" lon="11.51408840143523"><ele>1054.0</ele><time>2026-04-19T09:58:45.001Z</time></trkpt><trkpt lat="45.8543759402098" lon="11.514029736733427"><ele>1054.0</ele><time>2026-04-19T09:58:46.001Z</time></trkpt><trkpt lat="45.85444177014855" lon="11.513868973737859"><ele>1052.3333333333333</ele><time>2026-04-19T09:58:48.001Z</time></trkpt><trkpt lat="45.85449212123791" lon="11.51379981405567"><ele>1050.6666666666665</ele><time>2026-04-19T09:58:49.001Z</time></trkpt><trkpt lat="45.85457185589173" lon="11.513707033523692"><ele>1049.0</ele><time>2026-04-19T09:58:51.001Z</time></trkpt><trkpt lat="45.854647992156075" lon="11.513669414287122"><ele>1047.3333333333333</ele><time>2026-04-19T09:58:53.001Z</time></trkpt><trkpt lat="45.85471522155159" lon="11.513594943208982"><ele>1045.6666666666667</ele><time>2026-04-19T09:58:55.001Z</time></trkpt><trkpt lat="45.85476473978483" lon="11.513527363414978"><ele>1044.0</ele><time>2026-04-19T09:58:56.001Z</time></trkpt><trkpt lat="45.854848014571914" lon="11.513364244212696"><ele>1042.4</ele><time>2026-04-19T09:58:58.001Z</time></trkpt><trkpt lat="45.85491535980613" lon="11.513221846288623"><ele>1040.8000000000002</ele><time>2026-04-19T09:59:00.001Z</time></trkpt><trkpt lat="45.854970401426534" lon="11.513148871619796"><ele>1039.1999999999998</ele><time>2026-04-19T09:59:01.001Z</time></trkpt><trkpt lat="45.8550485546967" lon="11.513106898116437"><ele>1037.6</ele><time>2026-04-19T09:59:02.001Z</time></trkpt><trkpt lat="45.85511957715194" lon="11.513053509588222"><ele>1036.0</ele><time>2026-04-19T09:59:03.001Z</time></trkpt><trkpt lat="45.855213595457116" lon="11.512964795292216"><ele>1032.6666666666665</ele><time>2026-04-19T09:59:05Z</time></trkpt><trkpt lat="45.85527583923694" lon="11.512903028109507"><ele>1029.3333333333333</ele><time>2026-04-19T09:59:07Z</time></trkpt><trkpt lat="45.855302433128905" lon="11.51279014216283"><ele>1026.0</ele><time>2026-04-19T09:59:09Z</time></trkpt><trkpt lat="45.8553176901294" lon="11.512697041499552"><ele>1022.6666666666667</ele><time>2026-04-19T09:59:10Z</time></trkpt><trkpt lat="45.855336797256626" lon="11.512546533845995"><ele>1019.3333333333334</ele><time>2026-04-19T09:59:12Z</time></trkpt><trkpt lat="45.85539456890492" lon="11.512475859203208"><ele>1016.0</ele><time>2026-04-19T09:59:13Z</time></trkpt><trkpt lat="45.855475020723446" lon="11.512397824366817"><ele>1016.0000000000001</ele><time>2026-04-19T09:59:15Z</time></trkpt><trkpt lat="45.85554549871671" lon="11.512323418342882"><ele>1016.0</ele><time>2026-04-19T09:59:18Z</time></trkpt><trkpt lat="45.85560619648462" lon="11.51229604790888"><ele>1016.0</ele><time>2026-04-19T10:00:32.001Z</time></trkpt><trkpt lat="45.85564763353121" lon="11.51236447328836"><ele>1016.0</ele><time>2026-04-19T10:00:36.001Z</time></trkpt><trkpt lat="45.855692572513796" lon="11.512439869654123"><ele>1016.0000000000001</ele><time>2026-04-19T10:00:38.001Z</time></trkpt><trkpt lat="45.85573624505643" lon="11.512565430655467"><ele>1016.0</ele><time>2026-04-19T10:00:40.001Z</time></trkpt><trkpt lat="45.855772493343416" lon="11.51270786568442"><ele>1016.0</ele><time>2026-04-19T10:00:42.001Z</time></trkpt><trkpt lat="45.85580945976595" lon="11.512899580197663"><ele>1016.0</ele><time>2026-04-19T10:00:44.001Z</time></trkpt><trkpt lat="45.85583897263442" lon="11.513058980004411"><ele>1016.0</ele><time>2026-04-19T10:00:46.001Z</time></trkpt><trkpt lat="45.85588838152206" lon="11.513194668074371"><ele>1016.0</ele><time>2026-04-19T10:00:48.001Z</time></trkpt><trkpt lat="45.855967062247494" lon="11.51329439906946"><ele>1014.0</ele><time>2026-04-19T10:00:50.001Z</time></trkpt><trkpt lat="45.85605877686845" lon="11.513357899558354"><ele>1011.9999999999999</ele><time>2026-04-19T10:00:52.001Z</time></trkpt><trkpt lat="45.856169115272095" lon="11.513390311141087"><ele>1009.9999999999999</ele><time>2026-04-19T10:00:54.001Z</time></trkpt><trkpt lat="45.85627238717678" lon="11.513404118997492"><ele>1008.0</ele><time>2026-04-19T10:00:56.001Z</time></trkpt><trkpt lat="45.856367563202525" lon="11.513394474444745"><ele>1006.0</ele><time>2026-04-19T10:00:58.001Z</time></trkpt><trkpt lat="45.85647975934455" lon="11.51338374681716"><ele>1006.0</ele><time>2026-04-19T10:01:00.001Z</time></trkpt><trkpt lat="45.85658845305508" lon="11.513397381277734"><ele>1005.9999999999999</ele><time>2026-04-19T10:01:02.001Z</time></trkpt><trkpt lat="45.85669783073396" lon="11.51343705793902"><ele>1005.9999999999999</ele><time>2026-04-19T10:01:04.001Z</time></trkpt><trkpt lat="45.856808772399425" lon="11.51350553294046"><ele>1006.0</ele><time>2026-04-19T10:01:06.001Z</time></trkpt><trkpt lat="45.85690825668741" lon="11.51355573019618"><ele>1006.0</ele><time>2026-04-19T10:01:08.001Z</time></trkpt><trkpt lat="45.857022190569154" lon="11.513587894935332"><ele>1006.4</ele><time>2026-04-19T10:01:10.001Z</time></trkpt><trkpt lat="45.85708808304605" lon="11.513598833380435"><ele>1006.8</ele><time>2026-04-19T10:01:11.001Z</time></trkpt><trkpt lat="45.85720997345785" lon="11.513610280352717"><ele>1007.1999999999999</ele><time>2026-04-19T10:01:13.001Z</time></trkpt><trkpt lat="45.8573227915794" lon="11.513640812865129"><ele>1007.5999999999999</ele><time>2026-04-19T10:01:15.001Z</time></trkpt><trkpt lat="45.85742411436188" lon="11.513684291031646"><ele>1008.0</ele><time>2026-04-19T10:01:17.001Z</time></trkpt><trkpt lat="45.85751731838831" lon="11.513698712132756"><ele>1008.0</ele><time>2026-04-19T10:01:19Z</time></trkpt><trkpt lat="45.85760031575732" lon="11.513635487679881"><ele>1008.0</ele><time>2026-04-19T10:01:21Z</time></trkpt><trkpt lat="45.8576556751649" lon="11.513527408351553"><ele>1008.0</ele><time>2026-04-19T10:01:23Z</time></trkpt><trkpt lat="45.85772769944352" lon="11.5134477717704"><ele>1008.0</ele><time>2026-04-19T10:01:25Z</time></trkpt><trkpt lat="45.8578106596666" lon="11.513337432535598"><ele>1008.0</ele><time>2026-04-19T10:01:27Z</time></trkpt><trkpt lat="45.85788993725891" lon="11.513226708452644"><ele>1008.0</ele><time>2026-04-19T10:01:29Z</time></trkpt><trkpt lat="45.857982299877946" lon="11.513156518068035"><ele>1008.0</ele><time>2026-04-19T10:01:31Z</time></trkpt><trkpt lat="45.85809599631597" lon="11.513128340438591"><ele>1008.0</ele><time>2026-04-19T10:01:33Z</time></trkpt><trkpt lat="45.85820328830126" lon="11.513150153318294"><ele>1008.0</ele><time>2026-04-19T10:01:35Z</time></trkpt><trkpt lat="45.85826352828572" lon="11.51317722861225"><ele>1008.0</ele><time>2026-04-19T10:01:36Z</time></trkpt><trkpt lat="45.85837248514139" lon="11.513259723873619"><ele>1008.0</ele><time>2026-04-19T10:01:38Z</time></trkpt><trkpt lat="45.858432320783756" lon="11.513314525878494"><ele>1008.0</ele><time>2026-04-19T10:01:39Z</time></trkpt><trkpt lat="45.85852749083269" lon="11.513390571075218"><ele>1008.0</ele><time>2026-04-19T10:01:41Z</time></trkpt><trkpt lat="45.858642511580236" lon="11.513423637635562"><ele>1008.0</ele><time>2026-04-19T10:01:43Z</time></trkpt><trkpt lat="45.85875930268836" lon="11.513446485520829"><ele>1008.0</ele><time>2026-04-19T10:01:45Z</time></trkpt><trkpt lat="45.85886244260003" lon="11.513461824708546"><ele>1008.2</ele><time>2026-04-19T10:01:47Z</time></trkpt><trkpt lat="45.85897065599525" lon="11.513476217616649"><ele>1008.4</ele><time>2026-04-19T10:01:49Z</time></trkpt><trkpt lat="45.85906479210976" lon="11.51348610938096"><ele>1008.6000000000001</ele><time>2026-04-19T10:01:51.001Z</time></trkpt><trkpt lat="45.85914722659277" lon="11.513476757776301"><ele>1008.8000000000001</ele><time>2026-04-19T10:01:53.001Z</time></trkpt><trkpt lat="45.859218319891625" lon="11.513439111880242"><ele>1009.0</ele><time>2026-04-19T10:01:55.001Z</time></trkpt><trkpt lat="45.859301303854075" lon="11.513392944058815"><ele>1008.9999999999999</ele><time>2026-04-19T10:01:57.001Z</time></trkpt><trkpt lat="45.85937976968237" lon="11.513340625463899"><ele>1009.0</ele><time>2026-04-19T10:01:59.001Z</time></trkpt><trkpt lat="45.85946629052998" lon="11.513293619072714"><ele>1009.0</ele><time>2026-04-19T10:02:01.001Z</time></trkpt><trkpt lat="45.85954897443067" lon="11.513259875055612"><ele>1009.0</ele><time>2026-04-19T10:02:03.001Z</time></trkpt><trkpt lat="45.85963779986886" lon="11.513235227174608"><ele>1008.9999999999999</ele><time>2026-04-19T10:02:05.001Z</time></trkpt><trkpt lat="45.85972670321901" lon="11.51321906729997"><ele>1009.0</ele><time>2026-04-19T10:02:07.001Z</time></trkpt><trkpt lat="45.85981175060801" lon="11.513218879363407"><ele>1008.9999999999999</ele><time>2026-04-19T10:02:09.001Z</time></trkpt><trkpt lat="45.859894552811305" lon="11.513223027657952"><ele>1009.0</ele><time>2026-04-19T10:02:11.001Z</time></trkpt><trkpt lat="45.859989987035725" lon="11.513247406894546"><ele>1009.0</ele><time>2026-04-19T10:02:13.001Z</time></trkpt><trkpt lat="45.86010728794383" lon="11.513263716833706"><ele>1009.0</ele><time>2026-04-19T10:02:15.001Z</time></trkpt><trkpt lat="45.86017288347468" lon="11.513262007301913"><ele>1008.9999999999999</ele><time>2026-04-19T10:02:16.001Z</time></trkpt><trkpt lat="45.8602384670014" lon="11.513257814241411"><ele>1009.0</ele><time>2026-04-19T10:02:17.001Z</time></trkpt><trkpt lat="45.860306853841415" lon="11.513242856780419"><ele>1007.4999999999999</ele><time>2026-04-19T10:02:18.001Z</time></trkpt><trkpt lat="45.860380267242114" lon="11.513224280551883"><ele>1006.0</ele><time>2026-04-19T10:02:19.001Z</time></trkpt><trkpt lat="45.86045539625483" lon="11.513203021013036"><ele>1004.5</ele><time>2026-04-19T10:02:20.001Z</time></trkpt><trkpt lat="45.860533633028744" lon="11.513179135500552"><ele>1003.0</ele><time>2026-04-19T10:02:21.001Z</time></trkpt><trkpt lat="45.860606373166746" lon="11.513142331602845"><ele>1001.4999999999999</ele><time>2026-04-19T10:02:22.001Z</time></trkpt><trkpt lat="45.86068525455336" lon="11.51311279717734"><ele>1000.0</ele><time>2026-04-19T10:02:23.001Z</time></trkpt><trkpt lat="45.860760325815505" lon="11.513090782721868"><ele>999.9999999999999</ele><time>2026-04-19T10:02:24.001Z</time></trkpt><trkpt lat="45.860829794383335" lon="11.513063246786558"><ele>1000.0</ele><time>2026-04-19T10:02:25.001Z</time></trkpt><trkpt lat="45.86090534096304" lon="11.513033893153468"><ele>1000.0</ele><time>2026-04-19T10:02:26.001Z</time></trkpt><trkpt lat="45.860982684845425" lon="11.51300747087599"><ele>1000.0</ele><time>2026-04-19T10:02:27.001Z</time></trkpt><trkpt lat="45.86105288599055" lon="11.51298411704224"><ele>999.9999999999999</ele><time>2026-04-19T10:02:28.001Z</time></trkpt><trkpt lat="45.86112871431895" lon="11.512965420118412"><ele>1000.0</ele><time>2026-04-19T10:02:29.001Z</time></trkpt><trkpt lat="45.86120539897659" lon="11.512957546018795"><ele>999.6666666666666</ele><time>2026-04-19T10:02:30.001Z</time></trkpt><trkpt lat="45.86128214375923" lon="11.512941317390304"><ele>999.3333333333333</ele><time>2026-04-19T10:02:31.001Z</time></trkpt><trkpt lat="45.86135435101761" lon="11.512925292323036"><ele>999.0</ele><time>2026-04-19T10:02:32.001Z</time></trkpt><trkpt lat="45.861429026401815" lon="11.512898725751448"><ele>998.6666666666667</ele><time>2026-04-19T10:02:33.001Z</time></trkpt><trkpt lat="45.8615001595249" lon="11.512859944163965"><ele>998.3333333333334</ele><time>2026-04-19T10:02:34.001Z</time></trkpt><trkpt lat="45.861571468397024" lon="11.51281895253244"><ele>998.0</ele><time>2026-04-19T10:02:35.001Z</time></trkpt><trkpt lat="45.86163905718965" lon="11.512767781255231"><ele>998.0000000000001</ele><time>2026-04-19T10:02:36.001Z</time></trkpt><trkpt lat="45.86170636918405" lon="11.51270448890491"><ele>998.0</ele><time>2026-04-19T10:02:37.001Z</time></trkpt><trkpt lat="45.86177396220521" lon="11.512654917320267"><ele>998.0</ele><time>2026-04-19T10:02:38.001Z</time></trkpt><trkpt lat="45.86182807934864" lon="11.512583331976789"><ele>998.0</ele><time>2026-04-19T10:02:39.001Z</time></trkpt><trkpt lat="45.861882764963326" lon="11.512513332254123"><ele>998.0000000000001</ele><time>2026-04-19T10:02:40.001Z</time></trkpt><trkpt lat="45.861938655878596" lon="11.51244178971236"><ele>998.0</ele><time>2026-04-19T10:02:41.001Z</time></trkpt><trkpt lat="45.861995616539545" lon="11.512368877851571"><ele>998.5000000000001</ele><time>2026-04-19T10:02:42.001Z</time></trkpt><trkpt lat="45.86204755531032" lon="11.512293664296951"><ele>999.0</ele><time>2026-04-19T10:02:43.001Z</time></trkpt><trkpt lat="45.86211226836251" lon="11.512219202162973"><ele>999.5</ele><time>2026-04-19T10:02:44.001Z</time></trkpt><trkpt lat="45.86217628792986" lon="11.51215352034089"><ele>1000.0</ele><time>2026-04-19T10:02:45.001Z</time></trkpt><trkpt lat="45.86223808642162" lon="11.512082331762024"><ele>1000.5000000000001</ele><time>2026-04-19T10:02:46.001Z</time></trkpt><trkpt lat="45.862306781698805" lon="11.512015796345345"><ele>1001.0</ele><time>2026-04-19T10:02:47.001Z</time></trkpt><trkpt lat="45.86237963700781" lon="11.511956642813967"><ele>1001.0</ele><time>2026-04-19T10:02:48.001Z</time></trkpt><trkpt lat="45.862457978822434" lon="11.511897695715017"><ele>1000.9999999999999</ele><time>2026-04-19T10:02:49.001Z</time></trkpt><trkpt lat="45.86254715862817" lon="11.511845803583736"><ele>1000.9999999999999</ele><time>2026-04-19T10:02:50.001Z</time></trkpt><trkpt lat="45.862644420719654" lon="11.511791518780116"><ele>1001.0</ele><time>2026-04-19T10:02:51.001Z</time></trkpt><trkpt lat="45.8627375887437" lon="11.511729315349065"><ele>1001.0</ele><time>2026-04-19T10:02:52.001Z</time></trkpt><trkpt lat="45.862833062617696" lon="11.51166570443108"><ele>1000.5999999999999</ele><time>2026-04-19T10:02:53.001Z</time></trkpt><trkpt lat="45.862929385414645" lon="11.511605153583993"><ele>1000.1999999999999</ele><time>2026-04-19T10:02:54.001Z</time></trkpt><trkpt lat="45.863028353679006" lon="11.51154478105704"><ele>999.8000000000001</ele><time>2026-04-19T10:02:55.001Z</time></trkpt><trkpt lat="45.86312747329541" lon="11.511478261886381"><ele>999.4000000000001</ele><time>2026-04-19T10:02:56.001Z</time></trkpt><trkpt lat="45.86322529304489" lon="11.511400211195273"><ele>999.0</ele><time>2026-04-19T10:02:57.001Z</time></trkpt><trkpt lat="45.8633263998971" lon="11.511317823502589"><ele>998.25</ele><time>2026-04-19T10:02:58.001Z</time></trkpt><trkpt lat="45.863424530456115" lon="11.511231921956334"><ele>997.5</ele><time>2026-04-19T10:02:59.001Z</time></trkpt><trkpt lat="45.863528747375916" lon="11.511156586922787"><ele>996.75</ele><time>2026-04-19T10:03:00.001Z</time></trkpt><trkpt lat="45.86362899047789" lon="11.511073562273205"><ele>996.0</ele><time>2026-04-19T10:03:01.001Z</time></trkpt><trkpt lat="45.86372358502701" lon="11.51099375137889"><ele>997.1999999999999</ele><time>2026-04-19T10:03:02.001Z</time></trkpt><trkpt lat="45.86381565968689" lon="11.510917640250481"><ele>998.3999999999999</ele><time>2026-04-19T10:03:03.001Z</time></trkpt><trkpt lat="45.86391468459211" lon="11.510857600994585"><ele>999.6</ele><time>2026-04-19T10:03:04.001Z</time></trkpt><trkpt lat="45.86401253266988" lon="11.510813750010904"><ele>1000.8</ele><time>2026-04-19T10:03:05.001Z</time></trkpt><trkpt lat="45.864121800869334" lon="11.510794607590633"><ele>1002.0</ele><time>2026-04-19T10:03:06.001Z</time></trkpt><trkpt lat="45.8642241307275" lon="11.51077209083555"><ele>1002.6</ele><time>2026-04-19T10:03:07.001Z</time></trkpt><trkpt lat="45.86432248954146" lon="11.510738544445745"><ele>1003.2</ele><time>2026-04-19T10:03:08.001Z</time></trkpt><trkpt lat="45.86441862163727" lon="11.510712330677686"><ele>1003.8</ele><time>2026-04-19T10:03:09.001Z</time></trkpt><trkpt lat="45.86450699293768" lon="11.510687787953323"><ele>1004.4</ele><time>2026-04-19T10:03:10.001Z</time></trkpt><trkpt lat="45.86459297944706" lon="11.510674845342395"><ele>1005.0</ele><time>2026-04-19T10:03:11.001Z</time></trkpt><trkpt lat="45.86468790774673" lon="11.51068712383433"><ele>1005.0</ele><time>2026-04-19T10:03:12.001Z</time></trkpt><trkpt lat="45.86477787409588" lon="11.510704337853268"><ele>1005.0</ele><time>2026-04-19T10:03:13.001Z</time></trkpt><trkpt lat="45.86486612217494" lon="11.51072126413963"><ele>1005.0</ele><time>2026-04-19T10:03:14.001Z</time></trkpt><trkpt lat="45.86495854181535" lon="11.510749277509149"><ele>1005.0</ele><time>2026-04-19T10:03:15.001Z</time></trkpt><trkpt lat="45.86504710177075" lon="11.510809151181812"><ele>1005.0</ele><time>2026-04-19T10:03:16Z</time></trkpt><trkpt lat="45.86513757394586" lon="11.510884643684513"><ele>1004.4</ele><time>2026-04-19T10:03:17Z</time></trkpt><trkpt lat="45.86520481334261" lon="11.511022743636822"><ele>1003.8</ele><time>2026-04-19T10:03:18Z</time></trkpt><trkpt lat="45.86529793811758" lon="11.511125825478695"><ele>1003.2</ele><time>2026-04-19T10:03:19Z</time></trkpt><trkpt lat="45.86538779569693" lon="11.51121831819754"><ele>1002.6</ele><time>2026-04-19T10:03:20Z</time></trkpt><trkpt lat="45.86547998905893" lon="11.511261018973281"><ele>1002.0</ele><time>2026-04-19T10:03:21Z</time></trkpt><trkpt lat="45.86558220179453" lon="11.511259406022909"><ele>1000.4000000000001</ele><time>2026-04-19T10:03:22Z</time></trkpt><trkpt lat="45.86568839045325" lon="11.511200367924886"><ele>998.8000000000001</ele><time>2026-04-19T10:03:23Z</time></trkpt><trkpt lat="45.86578971780404" lon="11.511120674165623"><ele>997.2</ele><time>2026-04-19T10:03:24Z</time></trkpt><trkpt lat="45.8658941113638" lon="11.511098834378771"><ele>995.6</ele><time>2026-04-19T10:03:25Z</time></trkpt><trkpt lat="45.865996643426676" lon="11.511077754137936"><ele>994.0</ele><time>2026-04-19T10:03:26Z</time></trkpt><trkpt lat="45.866106500761084" lon="11.511138489374249"><ele>994.0</ele><time>2026-04-19T10:03:27Z</time></trkpt><trkpt lat="45.86623049109534" lon="11.511171868882032"><ele>994.0000000000001</ele><time>2026-04-19T10:03:28Z</time></trkpt><trkpt lat="45.86633183133981" lon="11.511216928379238"><ele>994.0000000000001</ele><time>2026-04-19T10:03:29Z</time></trkpt><trkpt lat="45.86643292430551" lon="11.511247569505377"><ele>994.0</ele><time>2026-04-19T10:03:30Z</time></trkpt><trkpt lat="45.86654256857422" lon="11.511274652365511"><ele>994.0</ele><time>2026-04-19T10:03:31Z</time></trkpt><trkpt lat="45.866641924458854" lon="11.511262984245807"><ele>992.8000000000001</ele><time>2026-04-19T10:03:32Z</time></trkpt><trkpt lat="45.866737496003466" lon="11.511208595413642"><ele>991.6000000000001</ele><time>2026-04-19T10:03:33Z</time></trkpt><trkpt lat="45.866827403536426" lon="11.511125280313228"><ele>990.4</ele><time>2026-04-19T10:03:34Z</time></trkpt><trkpt lat="45.86691642343751" lon="11.511036725610372"><ele>989.2</ele><time>2026-04-19T10:03:35Z</time></trkpt><trkpt lat="45.86700539697875" lon="11.510918797584502"><ele>988.0</ele><time>2026-04-19T10:03:36Z</time></trkpt><trkpt lat="45.86709830374464" lon="11.510805774069022"><ele>987.25</ele><time>2026-04-19T10:03:37Z</time></trkpt><trkpt lat="45.867193215413565" lon="11.510706666850457"><ele>986.5</ele><time>2026-04-19T10:03:38Z</time></trkpt><trkpt lat="45.867295050037185" lon="11.510621245592347"><ele>985.75</ele><time>2026-04-19T10:03:39Z</time></trkpt><trkpt lat="45.86740878233196" lon="11.51058443960955"><ele>985.0</ele><time>2026-04-19T10:03:40Z</time></trkpt><trkpt lat="45.867533931811906" lon="11.510615662161792"><ele>985.4</ele><time>2026-04-19T10:03:41Z</time></trkpt><trkpt lat="45.867638157394474" lon="11.510610018368814"><ele>985.8</ele><time>2026-04-19T10:03:42Z</time></trkpt><trkpt lat="45.8677374861096" lon="11.51064240430344"><ele>986.2</ele><time>2026-04-19T10:03:43Z</time></trkpt><trkpt lat="45.86784282447165" lon="11.510676634908739"><ele>986.6</ele><time>2026-04-19T10:03:44Z</time></trkpt><trkpt lat="45.86794319013871" lon="11.510711076287727"><ele>987.0</ele><time>2026-04-19T10:03:45Z</time></trkpt><trkpt lat="45.86804251281186" lon="11.510737292442034"><ele>987.0</ele><time>2026-04-19T10:03:46Z</time></trkpt><trkpt lat="45.868154598135035" lon="11.510751843731098"><ele>987.0</ele><time>2026-04-19T10:03:47Z</time></trkpt><trkpt lat="45.86825928140862" lon="11.510760329563997"><ele>987.0</ele><time>2026-04-19T10:03:48Z</time></trkpt><trkpt lat="45.868367398790895" lon="11.510775197571165"><ele>987.0</ele><time>2026-04-19T10:03:49Z</time></trkpt><trkpt lat="45.868471394441734" lon="11.510793581786634"><ele>987.0</ele><time>2026-04-19T10:03:50Z</time></trkpt><trkpt lat="45.86858365838861" lon="11.510805137208626"><ele>987.8</ele><time>2026-04-19T10:03:51Z</time></trkpt><trkpt lat="45.868689259955666" lon="11.510830012845146"><ele>988.6</ele><time>2026-04-19T10:03:52Z</time></trkpt><trkpt lat="45.86878619460713" lon="11.510857146347483"><ele>989.3999999999999</ele><time>2026-04-19T10:03:53Z</time></trkpt><trkpt lat="45.868886326945805" lon="11.510888806741237"><ele>990.1999999999999</ele><time>2026-04-19T10:03:54Z</time></trkpt><trkpt lat="45.86898776594599" lon="11.510913726346171"><ele>991.0</ele><time>2026-04-19T10:03:55Z</time></trkpt><trkpt lat="45.86908920049462" lon="11.510946145843501"><ele>991.0</ele><time>2026-04-19T10:03:56Z</time></trkpt><trkpt lat="45.8691901462141" lon="11.510973068703557"><ele>990.9999999999999</ele><time>2026-04-19T10:03:57Z</time></trkpt><trkpt lat="45.86929391849075" lon="11.510995664309249"><ele>990.9999999999999</ele><time>2026-04-19T10:03:58Z</time></trkpt><trkpt lat="45.86939732211045" lon="11.511020600106189"><ele>991.0</ele><time>2026-04-19T10:03:59Z</time></trkpt><trkpt lat="45.8694983827988" lon="11.511043572925633"><ele>991.0</ele><time>2026-04-19T10:04:00Z</time></trkpt><trkpt lat="45.86959587258709" lon="11.511065765760028"><ele>991.4999999999999</ele><time>2026-04-19T10:04:01Z</time></trkpt><trkpt lat="45.869694428690735" lon="11.511089299778803"><ele>992.0</ele><time>2026-04-19T10:04:02Z</time></trkpt><trkpt lat="45.86978886093699" lon="11.511123347587192"><ele>992.5</ele><time>2026-04-19T10:04:03Z</time></trkpt><trkpt lat="45.86987808886905" lon="11.511166724151765"><ele>993.0</ele><time>2026-04-19T10:04:04Z</time></trkpt><trkpt lat="45.86994399167692" lon="11.511168983987295"><ele>993.4999999999999</ele><time>2026-04-19T10:04:05Z</time></trkpt><trkpt lat="45.87003378205664" lon="11.511184516699373"><ele>994.0</ele><time>2026-04-19T10:04:06Z</time></trkpt><trkpt lat="45.87010808963917" lon="11.511219257863946"><ele>994.5714285714286</ele><time>2026-04-19T10:04:07Z</time></trkpt><trkpt lat="45.87017657013192" lon="11.51125628769543"><ele>995.1428571428571</ele><time>2026-04-19T10:04:08Z</time></trkpt><trkpt lat="45.87024685391788" lon="11.511297371587766"><ele>995.7142857142858</ele><time>2026-04-19T10:04:09Z</time></trkpt><trkpt lat="45.87031088625607" lon="11.511343328951073"><ele>996.2857142857143</ele><time>2026-04-19T10:04:10Z</time></trkpt><trkpt lat="45.870365109702576" lon="11.511391674559343"><ele>996.8571428571429</ele><time>2026-04-19T10:04:11Z</time></trkpt><trkpt lat="45.87042506572198" lon="11.511435223080184"><ele>997.4285714285716</ele><time>2026-04-19T10:04:12Z</time></trkpt><trkpt lat="45.87048383802192" lon="11.511495001909633"><ele>998.0000000000001</ele><time>2026-04-19T10:04:14Z</time></trkpt><trkpt lat="45.87050139997084" lon="11.511631719771557"><ele>998.0000000000001</ele><time>2026-04-19T10:04:18Z</time></trkpt><trkpt lat="45.8704447706947" lon="11.511690392588047"><ele>998.0</ele><time>2026-04-19T10:04:19Z</time></trkpt><trkpt lat="45.87039983903388" lon="11.511760042989357"><ele>998.0</ele><time>2026-04-19T10:04:20Z</time></trkpt><trkpt lat="45.870356308991305" lon="11.511827520691714"><ele>998.0</ele><time>2026-04-19T10:04:21Z</time></trkpt><trkpt lat="45.87029233711598" lon="11.511926686131014"><ele>998.0000000000001</ele><time>2026-04-19T10:04:22Z</time></trkpt><trkpt lat="45.8702209640092" lon="11.512032864089983"><ele>998.0</ele><time>2026-04-19T10:04:23Z</time></trkpt><trkpt lat="45.87015363436564" lon="11.51213057202044"><ele>997.2</ele><time>2026-04-19T10:04:24Z</time></trkpt><trkpt lat="45.87007701712847" lon="11.512241758000144"><ele>996.4</ele><time>2026-04-19T10:04:25Z</time></trkpt><trkpt lat="45.87001953074669" lon="11.512325181505464"><ele>995.6000000000001</ele><time>2026-04-19T10:04:26Z</time></trkpt><trkpt lat="45.86995838545956" lon="11.512412951720197"><ele>994.8000000000001</ele><time>2026-04-19T10:04:27Z</time></trkpt><trkpt lat="45.869889744518346" lon="11.51251099301896"><ele>994.0</ele><time>2026-04-19T10:04:28Z</time></trkpt><trkpt lat="45.869833722751245" lon="11.51259090410295"><ele>994.0</ele><time>2026-04-19T10:04:29Z</time></trkpt><trkpt lat="45.86977909668418" lon="11.512670334794043"><ele>994.0000000000001</ele><time>2026-04-19T10:04:30Z</time></trkpt><trkpt lat="45.86972430383497" lon="11.512752418922053"><ele>994.0000000000001</ele><time>2026-04-19T10:04:31Z</time></trkpt><trkpt lat="45.86967353604685" lon="11.51283086987107"><ele>994.0</ele><time>2026-04-19T10:04:32Z</time></trkpt><trkpt lat="45.86962283513908" lon="11.5129212331328"><ele>994.0</ele><time>2026-04-19T10:04:33Z</time></trkpt><trkpt lat="45.86956818153759" lon="11.513185482292698"><ele>997.0</ele><time>2026-04-19T10:04:35Z</time></trkpt><trkpt lat="45.869555859518485" lon="11.51329039346289"><ele>997.0</ele><time>2026-04-19T10:04:36Z</time></trkpt><trkpt lat="45.86954603405825" lon="11.513384812476348"><ele>997.0</ele><time>2026-04-19T10:04:37Z</time></trkpt><trkpt lat="45.869532261566306" lon="11.513538184017097"><ele>997.0</ele><time>2026-04-19T10:04:39Z</time></trkpt><trkpt lat="45.86952559821553" lon="11.513639599271182"><ele>997.0</ele><time>2026-04-19T10:04:42.001Z</time></trkpt></trkseg></trk></gpx>